[[[{"header":{"parameterUnit":"kt","parameterCategory":2,"dx":1,"dy":1,"la1":29.587661999999998,"la2":31.0,"lo1":-88.76705300000003,"lo2":-86.6583820000003,"nx":115,"ny":88,"refTime":"2022-09-27T06:00:00:Z","depth":0,"parameterNumber":1,"parameterNumberName":"U-component_of_WINDS"},"data":[18.8807,19.0093,19.0436,19.0472,19.0472,19.0472,19.0472,19.0472,19.0472,19.0472,19.0472,19.0472,19.0472,19.0472,19.0472,19.0604,19.1342,19.3628,19.4548,19.5272,19.7983,19.8903,19.9298,19.9298,19.9298,19.9298,19.9298,19.9298,19.9495,20.0973,20.2502,20.362,20.5051,20.6679,20.7731,20.7813,20.7813,20.7813,20.7813,20.7813,20.7813,20.7813,20.7813,20.7813,20.7813,20.7813,20.847,21.0509,21.1561,21.3025,21.4801,21.6099,21.6542,21.6542,21.6542,21.6542,21.6542,21.6542,21.6542,21.6542,21.6542,21.6542,21.6542,21.6542,21.6542,21.6542,21.6954,21.8023,21.8286,21.9058,22.0308,22.1492,22.2873,22.389,22.499,22.5056,22.5056,22.5056,22.5056,22.5187,22.5402,22.6191,22.7375,22.8905,23.0352,23.1751,23.3019,23.3676,23.3826,23.3826,23.3826,23.3892,23.3892,23.3826,23.3892,23.5086,23.5875,23.7388,23.8834,24.0544,24.1728,24.2122,24.2385,24.2385,24.2385,24.2385,24.2385,24.2385,24.2648,24.2911,24.3879,24.5062,24.664,24.8153,24.9731,18.736,18.8741,18.9976,19.0472,19.0472,19.0472,19.0472,19.0472,19.0472,19.0472,19.0472,19.0472,19.0472,19.0472,19.0472,19.0472,19.1261,19.3299,19.4467,19.5519,19.7786,19.8772,19.9101,19.9298,19.9298,19.9298,19.9298,19.9298,19.9364,20.1631,20.3225,20.3965,20.5659,20.7599,20.7747,20.7813,20.7813,20.7813,20.7813,20.7813,20.7813,20.7813,20.7813,20.7813,20.7813,20.7813,20.8257,20.944,21.0887,21.2614,21.4603,21.5902,21.6428,21.6542,21.6542,21.6542,21.6542,21.6542,21.6542,21.6542,21.6542,21.6542,21.6542,21.6542,21.6542,21.6542,21.6542,21.6888,21.6888,21.7546,21.8927,22.0308,22.1689,22.3004,22.4153,22.499,22.5056,22.5056,22.5056,22.5056,22.545,22.5862,22.7112,22.8624,23.0089,23.1554,23.2606,23.3347,23.3826,23.3826,23.3826,23.3826,23.3826,23.3826,23.3826,23.4466,23.4907,23.642,23.813,23.9905,24.1418,24.1991,24.2385,24.2385,24.2385,24.2385,24.2385,24.2385,24.2385,24.2451,24.3503,24.4555,24.6068,24.7449,24.9093,18.7032,18.8493,18.991,19.0472,19.0472,19.0472,19.0472,19.0472,19.0472,19.0472,19.0472,19.0472,19.0472,19.0472,19.0472,19.0472,19.0867,19.2788,19.3891,19.514,19.6881,19.8312,19.9035,19.9298,19.9298,19.9298,19.9298,19.9429,19.9758,20.1894,20.3636,20.4015,20.6169,20.7747,20.7813,20.7813,20.7813,20.7813,20.7813,20.7813,20.7813,20.7813,20.7813,20.7813,20.7813,20.7813,20.8257,20.9227,21.0213,21.1528,21.3863,21.5227,21.6296,21.6494,21.6559,21.6542,21.6542,21.6542,21.6542,21.6542,21.6542,21.6542,21.6542,21.6542,21.6542,21.6542,21.6542,21.6542,21.6542,21.6954,21.8335,21.9256,22.0588,22.2167,22.3447,22.4595,22.499,22.5056,22.5056,22.5056,22.5253,22.5647,22.6239,22.7685,22.9018,23.0483,23.1817,23.2474,23.3413,23.3826,23.3826,23.3826,23.3826,23.3826,23.3826,23.4071,23.44,23.5697,23.7341,23.8966,24.0478,24.1531,24.2385,24.2385,24.2385,24.2385,24.2385,24.2385,24.2385,24.2385,24.3175,24.4095,24.5345,24.666,24.7975,18.6586,18.7982,18.9399,19.0224,19.0487,19.0472,19.0472,19.0472,19.0472,19.0472,19.0472,19.0472,19.0472,19.0472,19.0472,19.0472,19.0801,19.2262,19.3431,19.4958,19.6436,19.8014,19.9035,19.9298,19.9298,19.9298,19.9298,19.9298,19.989,20.1894,20.3702,20.4327,20.63,20.7813,20.7813,20.7813,20.7813,20.7813,20.7813,20.7813,20.7813,20.7813,20.7813,20.7813,20.7813,20.7813,20.8076,20.8898,20.9342,21.0262,21.2646,21.4438,21.5951,21.6362,21.6494,21.6542,21.6542,21.6542,21.6542,21.6542,21.6542,21.6542,21.6542,21.6542,21.6542,21.6542,21.6542,21.6542,21.6757,21.7217,21.7875,21.8615,21.9602,22.1246,22.2807,22.3907,22.499,22.5056,22.5056,22.5056,22.5056,22.5253,22.545,22.6436,22.7835,22.93,23.0764,23.208,23.3084,23.3742,23.3742,23.3808,23.3826,23.3826,23.3826,23.4005,23.4202,23.5321,23.6486,23.7914,23.9473,24.0591,24.1643,24.1991,24.2385,24.2385,24.2385,24.2385,24.2385,24.2385,24.2977,24.3635,24.4753,24.5608,24.6791,18.511,18.6571,18.7901,18.9333,19.0406,19.0472,19.0472,19.0472,19.0472,19.0472,19.0472,19.0472,19.0472,19.0472,19.0472,19.0472,19.0882,19.1751,19.3051,19.4862,19.6173,19.7751,19.8772,19.9298,19.9298,19.9298,19.9298,19.9298,20.0021,20.196,20.4146,20.5545,20.7073,20.7747,20.7813,20.7813,20.7813,20.7813,20.7813,20.7813,20.7813,20.7813,20.7813,20.7813,20.7813,20.7813,20.7879,20.8142,20.8569,20.995,21.1545,21.3008,21.4504,21.5556,21.6296,21.6494,21.6542,21.6542,21.6542,21.6542,21.6542,21.6542,21.6542,21.6542,21.6542,21.6542,21.6542,21.6542,21.6542,21.6954,21.7217,21.7809,21.8878,22.0308,22.1886,22.3118,22.4218,22.4924,22.499,22.5056,22.5056,22.5121,22.5319,22.5713,22.7129,22.9036,23.0567,23.1948,23.2887,23.3479,23.3676,23.3808,23.3808,23.3826,23.3826,23.3892,23.4071,23.4531,23.5499,23.6927,23.8618,23.9802,24.0854,24.1662,24.2385,24.2385,24.2385,24.2385,24.2385,24.2385,24.2648,24.3221,24.3832,24.449,24.5476,18.4898,18.6359,18.777,18.9202,19.0356,19.0472,19.0472,19.0472,19.0472,19.0472,19.0472,19.0472,19.0472,19.0472,19.0472,19.0472,19.0553,19.1357,19.2723,19.4351,19.5419,19.726,19.864,19.9298,19.9298,19.9298,19.9298,19.9298,19.9971,20.2026,20.4262,20.5742,20.7073,20.7616,20.7813,20.7813,20.7813,20.7813,20.7813,20.7813,20.7813,20.7813,20.7813,20.7813,20.7813,20.7813,20.7813,20.7813,20.806,20.8651,21.0016,21.1545,21.3008,21.4438,21.5359,21.6428,21.6494,21.6542,21.6542,21.6542,21.6542,21.6542,21.6542,21.6542,21.6542,21.6542,21.6542,21.6542,21.6542,21.6542,21.6757,21.7151,21.8269,21.9387,22.0834,22.2263,22.3429,22.453,22.4858,22.499,22.5056,22.5056,22.5253,22.5599,22.652,22.8116,22.9646,23.1027,23.1882,23.2624,23.3019,23.3676,23.3808,23.3826,23.3826,23.3892,23.3958,23.4268,23.5039,23.6204,23.7914,23.9295,24.0459,24.1465,24.2254,24.2385,24.2385,24.2385,24.2385,24.2385,24.2583,24.2846,24.3175,24.3635,24.4029,18.4321,18.5702,18.7178,18.8544,18.9779,18.983,19.0093,19.0487,19.0472,19.0472,19.0472,19.0472,19.0472,19.0472,19.0472,19.0472,19.0472,19.0867,19.2444,19.3825,19.5009,19.685,19.8296,19.9298,19.9298,19.9298,19.9298,19.9298,19.9906,20.2173,20.4262,20.5955,20.7353,20.7681,20.7813,20.7813,20.7813,20.7813,20.7813,20.7813,20.7813,20.7813,20.7813,20.7813,20.7813,20.7813,20.7813,20.7813,20.7813,20.8125,20.9227,21.0196,21.1759,21.3386,21.4635,21.5819,21.6345,21.6559,21.6542,21.6542,21.6542,21.6542,21.6542,21.6542,21.6542,21.6542,21.6542,21.6542,21.6542,21.6542,21.6691,21.6954,21.7612,21.8598,21.9602,22.1229,22.2987,22.3955,22.4481,22.4679,22.5056,22.5056,22.5056,22.5384,22.5928,22.7046,22.8247,22.9563,23.0615,23.1554,23.2277,23.3479,23.3826,23.3826,23.3826,23.3826,23.3826,23.3958,23.4597,23.5565,23.6993,23.8506,23.9999,24.1117,24.1991,24.232,24.2385,24.2385,24.2385,24.2385,24.2385,24.2385,24.2385,24.2648,24.2977,18.2888,18.4226,18.5702,18.7097,18.8362,18.8625,18.9333,19.0472,19.0472,19.0472,19.0472,19.0472,19.0472,19.0472,19.0472,19.0472,19.0472,19.0472,19.2247,19.3891,19.468,19.6668,19.818,19.9166,19.9298,19.9298,19.9298,19.9298,19.9561,20.2091,20.4804,20.6711,20.7353,20.7747,20.7813,20.7813,20.7813,20.7813,20.7813,20.7813,20.7813,20.7813,20.7813,20.7813,20.7813,20.7813,20.7813,20.7813,20.7813,20.8191,20.9029,20.967,21.0903,21.2826,21.3895,21.4833,21.5885,21.6214,21.6494,21.6542,21.6542,21.6542,21.6542,21.6542,21.6542,21.6542,21.6542,21.6542,21.6542,21.6542,21.6542,21.6822,21.7086,21.7809,21.8615,22.0128,22.2018,22.325,22.3842,22.4368,22.4727,22.5056,22.5056,22.5187,22.5647,22.6454,22.7112,22.8295,22.9234,23.0238,23.1619,23.2887,23.3545,23.3676,23.3826,23.3826,23.3826,23.3826,23.44,23.4992,23.6025,23.7388,23.9013,24.0525,24.1577,24.2254,24.232,24.2385,24.2385,24.2385,24.2385,24.2385,24.2385,24.2385,24.2451,18.2823,18.4095,18.4635,18.6162,18.8164,18.8362,18.9136,19.0356,19.0472,19.0472,19.0472,19.0472,19.0472,19.0472,19.0472,19.0472,19.0472,19.0553,19.1868,19.3198,19.4285,19.6076,19.767,19.8722,19.9166,19.9298,19.9298,19.9298,19.9429,20.2157,20.4015,20.5462,20.6843,20.755,20.7813,20.7813,20.7813,20.7813,20.7813,20.7813,20.7813,20.7813,20.7813,20.7813,20.7813,20.7813,20.7813,20.7813,20.7813,20.7879,20.8323,20.8882,20.9785,21.1183,21.2317,21.3912,21.5096,21.5556,21.6231,21.6477,21.6542,21.6542,21.6542,21.6542,21.6542,21.6542,21.6542,21.6542,21.6542,21.6542,21.6542,21.6559,21.6822,21.702,21.7892,21.8698,22.0457,22.2281,22.3136,22.371,22.417,22.4727,22.5056,22.5253,22.5319,22.5647,22.5928,22.6866,22.7787,22.9168,23.0615,23.1948,23.2887,23.3413,23.3761,23.3826,23.3826,23.3826,23.4202,23.4644,23.5631,23.6467,23.8158,23.9717,24.0638,24.1446,24.1991,24.2385,24.2385,24.2385,24.2385,24.2385,24.2385,24.2385,24.2385,18.2494,18.34,18.3897,18.5176,18.6849,18.7456,18.8413,18.9728,19.029,19.0472,19.0472,19.0472,19.0472,19.0472,19.0472,19.0472,19.0472,19.0553,19.1291,19.2753,19.4088,19.5616,19.7159,19.854,19.9232,19.9298,19.9298,19.9298,19.9298,20.1434,20.2699,20.3949,20.584,20.7237,20.7681,20.7813,20.7813,20.7813,20.7813,20.7813,20.7813,20.7813,20.7813,20.7813,20.7813,20.7813,20.7813,20.7813,20.7813,20.7813,20.7879,20.8323,20.8964,20.9983,21.0985,21.2186,21.4372,21.4833,21.549,21.6345,21.6494,21.6542,21.6542,21.6542,21.6542,21.6542,21.6542,21.6542,21.6542,21.6542,21.6542,21.6542,21.6559,21.6822,21.7086,21.7892,21.8961,22.0786,22.2215,22.2741,22.3513,22.4087,22.4858,22.5187,22.5187,22.5384,22.545,22.6125,22.7129,22.8445,22.9628,23.1027,23.2343,23.3084,23.3695,23.3826,23.3826,23.3826,23.4071,23.44,23.4907,23.5678,23.7191,23.875,23.9717,24.0638,24.1643,24.2385,24.2385,24.2385,24.2385,24.2385,24.2385,24.2385,24.2385,18.1996,18.2114,18.3386,18.4043,18.4504,18.5636,18.7112,18.8691,18.9713,19.0356,19.0487,19.0472,19.0472,19.0472,19.0472,19.0472,19.0472,19.0538,19.1079,19.2541,19.3906,19.5419,19.6946,19.8343,19.9298,19.9298,19.9298,19.9298,19.9298,20.1039,20.2355,20.3686,20.4919,20.6284,20.7681,20.7813,20.7813,20.7813,20.7813,20.7813,20.7813,20.7813,20.7813,20.7813,20.7813,20.7813,20.7813,20.7813,20.7813,20.7813,20.7813,20.7944,20.8191,20.9144,20.9868,21.0459,21.2777,21.4027,21.457,21.577,21.6296,21.6494,21.6542,21.6542,21.6542,21.6542,21.6542,21.6542,21.6542,21.6542,21.6542,21.6542,21.6542,21.6625,21.6625,21.7151,21.7958,21.9405,22.0588,22.1492,22.2412,22.3447,22.435,22.499,22.499,22.5056,22.5056,22.5647,22.6651,22.7721,22.8642,23.0041,23.1488,23.2229,23.3019,23.3413,23.3826,23.3826,23.3939,23.4005,23.44,23.4907,23.6091,23.7717,23.89,23.998,24.1117,24.232,24.2385,24.2385,24.2385,24.2385,24.2385,24.2385,24.2385,18.1931,18.1982,18.2428,18.3137,18.4029,18.4569,18.6111,18.8164,18.8822,18.9531,19.0487,19.0472,19.0472,19.0472,19.0472,19.0472,19.0472,19.0538,19.0801,19.1853,19.3431,19.4877,19.6208,19.7654,19.9101,19.9298,19.9298,19.9298,19.9364,20.071,20.1976,20.3094,20.4064,20.5708,20.7089,20.7813,20.7813,20.7813,20.7813,20.7813,20.7813,20.7813,20.7813,20.7813,20.7813,20.7813,20.7813,20.7813,20.7813,20.7813,20.7813,20.7813,20.7928,20.824,20.8898,20.9818,21.0985,21.23,21.3764,21.4964,21.5441,21.6033,21.6296,21.6411,21.6542,21.6542,21.6542,21.6542,21.6542,21.6542,21.6542,21.6542,21.6542,21.6542,21.6542,21.6625,21.7414,21.8023,21.919,22.0391,22.1755,22.3004,22.3907,22.4595,22.4727,22.5056,22.5056,22.545,22.6191,22.6866,22.7721,22.8971,23.0501,23.1422,23.2343,23.315,23.3826,23.3826,23.3826,23.3826,23.3826,23.4024,23.4926,23.6683,23.8111,23.9276,24.0459,24.1596,24.2057,24.232,24.2385,24.2385,24.2385,24.2385,24.2385,18.1931,18.1931,18.1931,18.2494,18.3254,18.3846,18.511,18.6703,18.7916,18.8873,18.9647,19.0224,19.0472,19.0472,19.0472,19.0472,19.0472,19.0472,19.0538,19.1327,19.2642,19.4088,19.5484,19.6997,19.8788,19.9166,19.9298,19.9298,19.9298,19.9971,20.1368,20.2568,20.3291,20.5001,20.6432,20.7418,20.7681,20.7813,20.7813,20.7813,20.7813,20.7813,20.7813,20.7813,20.7813,20.7813,20.7813,20.7813,20.7813,20.7813,20.7813,20.7813,20.7862,20.7862,20.8323,20.898,20.9802,21.0854,21.2317,21.2646,21.3386,21.4521,21.5507,21.5951,21.6542,21.6542,21.6542,21.6542,21.6542,21.6542,21.6542,21.6542,21.6542,21.6542,21.6542,21.6542,21.6888,21.73,21.8221,21.9405,22.0851,22.2281,22.3184,22.4087,22.4613,22.499,22.5056,22.5187,22.545,22.5994,22.6783,22.7901,22.9497,23.0549,23.1882,23.2887,23.3826,23.3826,23.3826,23.3826,23.3826,23.3892,23.4268,23.5697,23.7256,23.8684,23.9999,24.092,24.1643,24.2254,24.2385,24.2385,24.2385,24.2385,24.2385,18.1931,18.1931,18.1931,18.1996,18.2114,18.34,18.3977,18.4701,18.6915,18.8033,18.8691,18.9581,19.0224,19.0487,19.0472,19.0472,19.0472,19.0472,19.0472,19.0947,19.2015,19.3512,19.4958,19.6486,19.7948,19.9035,19.9298,19.9298,19.9364,19.9561,20.03,20.1302,20.2502,20.413,20.5626,20.6876,20.7336,20.7813,20.7813,20.7813,20.7813,20.7813,20.7813,20.7813,20.7813,20.7813,20.7813,20.7813,20.7813,20.7813,20.7813,20.7813,20.7813,20.7813,20.7813,20.8323,20.8964,20.9555,21.0213,21.0476,21.0871,21.2071,21.3469,21.4784,21.5885,21.6296,21.6542,21.6542,21.6542,21.6542,21.6542,21.6542,21.6542,21.6542,21.6542,21.6542,21.6691,21.6954,21.7497,21.8484,21.9733,22.1097,22.2132,22.3447,22.4087,22.435,22.4416,22.5056,22.5253,22.5384,22.6125,22.6783,22.8427,22.9891,23.1225,23.2408,23.3282,23.3545,23.3742,23.3826,23.3826,23.4005,23.4137,23.5434,23.6401,23.8158,23.967,24.0328,24.1117,24.1925,24.2385,24.2385,24.2385,24.2385,24.2385,18.1931,18.1931,18.1931,18.1931,18.1996,18.2297,18.3071,18.4043,18.4978,18.6374,18.7967,18.8676,18.9516,19.029,19.0472,19.0472,19.0472,19.0472,19.0472,19.0947,19.2015,19.333,19.463,19.6238,19.7751,19.9217,19.9166,19.9298,19.9298,19.9364,19.9971,20.1368,20.1828,20.3275,20.5019,20.6071,20.681,20.755,20.7747,20.7813,20.7813,20.7813,20.7813,20.7813,20.7813,20.7813,20.7813,20.7813,20.7813,20.7813,20.7813,20.7813,20.7813,20.7813,20.7813,20.7928,20.8125,20.852,20.8783,20.9309,20.9999,21.0871,21.1939,21.332,21.4701,21.6016,21.6477,21.6362,21.6428,21.6559,21.6542,21.6542,21.6542,21.6542,21.6542,21.6542,21.6559,21.6691,21.7086,21.7875,21.8795,22.0045,22.1211,22.2592,22.3316,22.3579,22.4218,22.4924,22.5121,22.5121,22.5516,22.5647,22.7177,22.8558,22.9891,23.129,23.2606,23.3282,23.3676,23.3826,23.3826,23.3939,23.4071,23.4644,23.5481,23.6993,23.8374,23.9407,24.0375,24.1051,24.1709,24.1991,24.2385,24.2385,24.2385,18.1931,18.1931,18.1931,18.1931,18.1931,18.1931,18.2442,18.3203,18.3766,18.503,18.6374,18.7112,18.823,18.9465,19.029,19.0472,19.0472,19.0472,19.0472,19.0816,19.1291,19.2424,19.3972,19.5353,19.6912,19.8064,19.8838,19.9232,19.9298,19.9364,19.9577,20.0497,20.1139,20.242,20.3309,20.4953,20.6021,20.6744,20.7484,20.7813,20.7813,20.7813,20.7813,20.7813,20.7813,20.7813,20.7813,20.7813,20.7813,20.7813,20.7813,20.7813,20.7813,20.7813,20.7813,20.7813,20.7813,20.7813,20.7879,20.8503,20.8849,20.9375,21.0361,21.1594,21.258,21.4175,21.5573,21.5622,21.6165,21.6494,21.6542,21.6542,21.6542,21.6542,21.6542,21.6542,21.6542,21.6542,21.6625,21.7151,21.7809,21.8795,21.9913,22.0768,22.1097,22.1886,22.2921,22.3758,22.4218,22.4595,22.4858,22.499,22.6173,22.744,22.8839,23.0107,23.1488,23.2672,23.3019,23.3676,23.3742,23.3826,23.3874,23.4334,23.5105,23.5941,23.6862,23.798,23.8881,23.9868,24.0901,24.1643,24.232,24.232,24.2385,18.1785,18.1931,18.1931,18.1931,18.1931,18.1931,18.1996,18.2179,18.3254,18.3832,18.4518,18.549,18.6769,18.815,18.9516,19.0224,19.0472,19.0472,19.0472,19.0472,19.0684,19.1488,19.2819,19.4088,19.5894,19.7372,19.8656,19.9166,19.9298,19.9298,19.9364,19.9561,20.0497,20.1352,20.2076,20.3588,20.5232,20.5692,20.6826,20.7484,20.7484,20.7681,20.7813,20.7813,20.7813,20.7813,20.7813,20.7813,20.7813,20.7813,20.7813,20.7813,20.7813,20.7813,20.7813,20.7813,20.7813,20.7813,20.7813,20.7994,20.8076,20.8323,20.9046,20.9605,21.0788,21.2514,21.3895,21.4158,21.5424,21.6165,21.6428,21.6559,21.6542,21.6542,21.6542,21.6542,21.6542,21.6542,21.6542,21.6954,21.7217,21.794,21.8532,21.8747,21.9141,22.0439,22.1672,22.2478,22.3184,22.3955,22.4416,22.499,22.5976,22.6783,22.7984,22.9186,23.0501,23.1817,23.254,23.3347,23.3611,23.3826,23.3826,23.4071,23.4776,23.5612,23.6007,23.6533,23.7388,23.8553,23.9999,24.1117,24.1991,24.232,24.2385,18.0836,18.1931,18.1931,18.1931,18.1931,18.1931,18.1931,18.1996,18.2325,18.302,18.4058,18.4452,18.5307,18.6703,18.8084,18.9399,19.0472,19.0487,19.0487,19.0472,19.0538,19.121,19.2672,19.4119,19.5419,19.6846,19.8327,19.9232,19.9101,19.9232,19.9232,19.9429,19.9429,20.0169,20.1105,20.2141,20.2881,20.3999,20.5314,20.6087,20.6416,20.7139,20.7813,20.7813,20.7813,20.7813,20.7813,20.7813,20.7813,20.7813,20.7813,20.7813,20.7813,20.7813,20.7813,20.7813,20.7813,20.7813,20.7813,20.7813,20.7813,20.7813,20.8125,20.8832,20.9802,21.0591,21.1857,21.3912,21.4833,21.5161,21.6148,21.6411,21.6494,21.6494,21.6542,21.6542,21.6542,21.6542,21.6542,21.6542,21.6691,21.7086,21.7414,21.7695,21.8286,21.9519,22.0291,22.1145,22.1886,22.2855,22.4021,22.4744,22.5402,22.6125,22.698,22.8116,22.9383,23.0615,23.1488,23.2606,23.3216,23.3742,23.3826,23.3892,23.4513,23.4776,23.4842,23.5236,23.6204,23.7454,23.9079,24.0262,24.1051,24.1512,24.1991,17.9506,18.0756,18.0836,18.123,18.1851,18.1931,18.1931,18.1931,18.1931,18.2362,18.2874,18.3152,18.3875,18.511,18.6096,18.7558,18.9202,19.0042,19.0487,19.0472,19.0472,19.1013,19.162,19.2986,19.4513,19.6026,19.7407,19.813,19.8277,19.8838,19.9232,19.9298,19.9298,19.9561,20.03,20.0973,20.1828,20.2552,20.3801,20.4656,20.4722,20.5182,20.6153,20.6744,20.7336,20.7747,20.7813,20.7813,20.7813,20.7813,20.7813,20.7813,20.7813,20.7813,20.7813,20.7813,20.7813,20.7813,20.7813,20.7813,20.7813,20.7813,20.7813,20.8191,20.8651,20.9095,20.9967,21.1742,21.2728,21.3978,21.5342,21.5424,21.5885,21.6279,21.6542,21.6542,21.6542,21.6542,21.6542,21.6542,21.6625,21.6691,21.6691,21.702,21.7546,21.8204,21.8975,21.9782,22.0523,22.1821,22.3333,22.4039,22.4744,22.5336,22.5928,22.7046,22.8247,22.93,23.0286,23.1685,23.2558,23.3413,23.3676,23.3611,23.3826,23.4071,23.4202,23.4466,23.5171,23.6073,23.7369,23.8618,23.9736,24.0769,24.1512,17.7928,17.9281,17.9544,18.0361,18.1442,18.1851,18.1931,18.1931,18.1931,18.1916,18.1982,18.1996,18.2691,18.3583,18.3912,18.5373,18.7492,18.9202,19.0158,19.0472,19.0472,19.0553,19.1013,19.2197,19.333,19.4579,19.55,19.6649,19.7372,19.8262,19.8853,19.9232,19.9298,19.9298,19.9708,20.03,20.0892,20.1221,20.242,20.316,20.3291,20.3686,20.4409,20.5314,20.6103,20.6629,20.6826,20.6958,20.7221,20.7418,20.75,20.7237,20.6826,20.6777,20.6958,20.7155,20.7221,20.7402,20.7747,20.7813,20.7813,20.7813,20.7813,20.7879,20.7879,20.801,20.8651,20.9901,21.1084,21.2482,21.3846,21.4438,21.503,21.5802,21.6279,21.6542,21.6542,21.6542,21.6542,21.6542,21.6542,21.6559,21.6559,21.6757,21.702,21.748,21.794,21.8467,21.9339,22.072,22.2215,22.3118,22.389,22.4416,22.499,22.6125,22.6998,22.805,22.9036,23.0436,23.1948,23.2887,23.3282,23.3084,23.315,23.3479,23.3761,23.3939,23.4466,23.5057,23.5875,23.6843,23.8027,23.921,24.0196,17.6482,17.789,17.9098,17.9741,18.015,18.1296,18.1865,18.1865,18.1931,18.1931,18.1931,18.1931,18.2114,18.2494,18.3466,18.4175,18.5439,18.728,18.9333,19.0158,19.0356,19.0472,19.075,19.1686,19.2672,19.295,19.3542,19.4923,19.6385,19.7356,19.813,19.9035,19.9232,19.9298,19.9298,19.9561,19.9774,19.9971,20.1089,20.1697,20.1828,20.2699,20.3291,20.3883,20.4409,20.4607,20.4607,20.4607,20.487,20.5873,20.5939,20.5298,20.4607,20.4278,20.4607,20.5955,20.5955,20.6432,20.7089,20.755,20.7681,20.7813,20.7813,20.7813,20.7813,20.7879,20.7994,20.8651,20.944,21.0953,21.2433,21.3254,21.4175,21.4833,21.5819,21.6411,21.6542,21.6542,21.6362,21.6345,21.6231,21.6296,21.6411,21.6542,21.6542,21.6625,21.6757,21.7217,21.8286,21.947,22.0768,22.1821,22.2658,22.3232,22.4284,22.5402,22.5862,22.6783,22.759,22.93,23.1027,23.1422,23.1554,23.1751,23.2427,23.2887,23.3216,23.3629,23.3958,23.4221,23.4973,23.5875,23.6777,23.7651,23.8327,17.5049,17.6364,17.7059,17.7797,17.8651,18.0032,18.0704,18.0836,18.1507,18.1931,18.1931,18.1931,18.1931,18.1996,18.264,18.34,18.4306,18.5636,18.7295,18.9136,19.0239,19.0406,19.075,19.1145,19.1473,19.162,19.2212,19.3213,19.4857,19.6173,19.7291,19.808,19.8903,19.9101,19.9298,19.9298,19.9298,19.9495,19.9971,20.0219,20.0284,20.0958,20.1418,20.2305,20.3094,20.357,20.3439,20.3505,20.3867,20.413,20.3785,20.3341,20.3423,20.357,20.3833,20.4409,20.4525,20.4935,20.5577,20.6169,20.6679,20.6613,20.7418,20.7681,20.7813,20.7813,20.7813,20.801,20.852,20.944,21.0821,21.1857,21.2531,21.3189,21.4521,21.5359,21.531,21.4718,21.4538,21.5227,21.5424,21.577,21.6296,21.6477,21.6542,21.6542,21.6691,21.6757,21.7743,21.8401,21.965,22.0571,22.136,22.2329,22.3429,22.4284,22.481,22.5551,22.6538,22.8247,22.9365,22.9497,22.9778,23.0633,23.1422,23.1966,23.2493,23.3497,23.3958,23.3939,23.4268,23.502,23.581,23.6336,23.688,17.3879,17.4917,17.5219,17.6021,17.7153,17.852,17.9163,17.9229,18.0441,18.093,18.1376,18.1376,18.1588,18.1931,18.2062,18.2508,18.3466,18.4175,18.5176,18.7638,18.9136,18.9961,19.0027,18.9976,19.0224,19.0816,19.1701,19.2358,19.3082,19.4873,19.6238,19.6699,19.7801,19.8772,19.8838,19.8969,19.9298,19.9298,19.9298,19.9364,19.9429,19.9561,19.9956,20.0826,20.1894,20.2502,20.2568,20.2633,20.2568,20.2355,20.1697,20.15,20.2107,20.237,20.2618,20.2881,20.3028,20.3225,20.3686,20.4656,20.5248,20.5248,20.6037,20.7024,20.7221,20.727,20.7402,20.7813,20.7813,20.8388,20.9358,20.9736,21.0673,21.1742,21.3008,21.3781,21.3369,21.2745,21.3008,21.3649,21.3978,21.4438,21.5819,21.5885,21.6148,21.6477,21.6559,21.6542,21.702,21.7546,21.8467,21.9273,22.0045,22.09,22.2066,22.3184,22.371,22.4433,22.5599,22.7112,22.7112,22.7243,22.7984,22.8971,23.0089,23.0746,23.1093,23.208,23.3019,23.3347,23.3676,23.4316,23.4842,23.5105,23.5649,17.3249,17.355,17.4786,17.5416,17.5758,17.7101,17.7679,17.7759,17.8088,17.8797,17.9689,17.9887,18.0558,18.1931,18.1653,18.1982,18.2311,18.3386,18.4306,18.5439,18.7032,18.8347,18.8427,18.8625,18.9399,19.0224,19.0553,19.1408,19.2424,19.29,19.3856,19.509,19.6552,19.7225,19.7407,19.8459,19.9101,19.9035,19.9035,19.9035,19.9232,19.9298,19.9429,19.9758,20.0153,20.0169,20.0103,19.9971,19.984,19.9758,19.9561,19.9758,19.9758,19.9824,20.035,20.1286,20.1631,20.2107,20.316,20.3423,20.3768,20.3817,20.3949,20.4475,20.5577,20.589,20.635,20.7418,20.7813,20.7796,20.8257,20.9227,20.9884,21.0295,21.1447,21.1627,21.1068,21.1545,21.2301,21.2499,21.2499,21.314,21.4109,21.4684,21.503,21.5622,21.6082,21.6231,21.6691,21.702,21.7546,21.8155,21.873,21.9453,22.0703,22.1952,22.2478,22.3184,22.4416,22.5139,22.5139,22.5336,22.6143,22.7112,22.8313,22.9102,22.9694,23.0615,23.1535,23.2145,23.2821,23.3479,23.4071,23.4268,23.4663,17.3262,17.3249,17.3813,17.4076,17.4273,17.5641,17.6219,17.635,17.7087,17.7876,17.8257,17.8374,17.9177,18.0558,18.0624,18.1019,18.1916,18.256,18.3269,18.4109,18.5307,18.5833,18.6308,18.7836,18.8625,18.9333,19.0108,19.0816,19.1423,19.2278,19.2869,19.3709,19.5039,19.5763,19.5813,19.6471,19.6997,19.7883,19.8014,19.8459,19.9166,19.9298,19.9232,19.9232,19.9298,19.9298,19.9232,19.9232,19.8838,19.8327,19.8772,19.9298,19.9298,19.9298,19.9511,20.0037,20.0169,20.0366,20.1105,20.1894,20.2239,20.237,20.3176,20.3736,20.4262,20.4409,20.4985,20.6284,20.6481,20.6942,20.7665,20.8323,20.8651,20.8783,20.926,20.9325,20.8783,20.9391,20.9983,21.069,21.1019,21.1479,21.2942,21.3123,21.3846,21.4833,21.5293,21.5705,21.6296,21.6494,21.6822,21.702,21.7546,21.8269,21.9387,22.0062,22.0588,22.1606,22.2724,22.325,22.3316,22.3316,22.4368,22.5683,22.6586,22.7572,22.8379,22.9234,23.0023,23.083,23.1882,23.2493,23.2887,23.3216,23.3808,17.3262,17.3262,17.3262,17.3262,17.3366,17.4273,17.4786,17.4904,17.5918,17.6444,17.689,17.6904,17.7731,17.8952,17.9098,17.9887,18.0953,18.1296,18.2085,18.332,18.3532,18.3517,18.4058,18.6045,18.7558,18.8493,18.9384,19.0173,19.0553,19.1473,19.203,19.2146,19.3527,19.422,19.4351,19.468,19.5403,19.6355,19.6502,19.7078,19.7851,19.7917,19.8099,19.8049,19.7983,19.7967,19.8049,19.8099,19.7523,19.6618,19.7604,19.8049,19.7902,19.7851,19.7851,19.8049,19.8312,19.8722,19.8985,19.9971,20.076,20.0958,20.1631,20.2584,20.2897,20.2978,20.3686,20.4722,20.51,20.5495,20.6432,20.6958,20.7205,20.7205,20.7353,20.7533,20.7731,20.7813,20.8125,20.9095,20.9358,21.0098,21.1167,21.1693,21.2202,21.3386,21.3912,21.4192,21.5227,21.577,21.6033,21.6231,21.6494,21.7217,21.7743,21.8221,21.9076,22.0225,22.0817,22.136,22.1294,22.1557,22.2921,22.4236,22.5288,22.6107,22.698,22.7919,22.8379,22.8905,22.9957,23.1009,23.1488,23.2229,23.2821,17.3183,17.3262,17.3183,17.3117,17.3103,17.3314,17.3498,17.3446,17.3643,17.4405,17.5298,17.5495,17.6219,17.735,17.7599,17.8403,17.9624,17.9901,18.0756,18.1573,18.2034,18.2019,18.2217,18.3795,18.5782,18.7719,18.8296,18.9202,19.0224,19.0487,19.0604,19.0897,19.208,19.2753,19.292,19.4103,19.4548,19.4877,19.4958,19.5009,19.5272,19.5272,19.5272,19.5272,19.5337,19.5388,19.5403,19.5191,19.5009,19.4928,19.5074,19.5337,19.5125,19.5009,19.5322,19.5469,19.6486,19.7043,19.7504,19.8393,19.9116,19.9182,19.9495,20.0021,20.1089,20.1434,20.2076,20.3423,20.362,20.3752,20.4212,20.5051,20.5626,20.5742,20.5692,20.6284,20.7484,20.7665,20.7599,20.7796,20.801,20.8454,20.9802,21.0065,21.0821,21.189,21.2416,21.3074,21.4044,21.4701,21.5227,21.5622,21.5951,21.6411,21.6494,21.7103,21.8089,21.8927,21.9058,21.9207,21.9141,22.0111,22.1343,22.2724,22.3907,22.4661,22.5582,22.6586,22.7261,22.7656,22.8379,22.9281,23.0154,23.1027,23.1685,17.0498,17.0577,17.1446,17.184,17.1906,17.2854,17.3262,17.3262,17.3262,17.3484,17.3893,17.4024,17.4786,17.589,17.6087,17.6956,17.8257,17.9229,17.9426,17.9271,17.9967,18.0413,18.0676,18.2019,18.3795,18.5519,18.6586,18.7755,18.907,18.9136,18.9581,19.0356,19.1013,19.1276,19.1408,19.1868,19.2591,19.333,19.3446,19.384,19.4548,19.473,19.473,19.4746,19.473,19.473,19.4614,19.2955,19.251,19.3249,19.3461,19.3906,19.4665,19.473,19.473,19.4877,19.5353,19.5631,19.5697,19.6208,19.6455,19.6587,19.7325,19.8146,19.8672,19.9658,20.0629,20.191,20.2157,20.2568,20.3357,20.408,20.3785,20.3062,20.3719,20.4525,20.4985,20.589,20.635,20.6613,20.7221,20.7928,20.8438,20.8635,20.9243,21.0427,21.0805,21.1331,21.2548,21.3008,21.3205,21.3683,21.457,21.5161,21.5293,21.6099,21.7151,21.7234,21.7168,21.7037,21.7366,21.8467,21.9585,22.09,22.2263,22.3101,22.389,22.4942,22.5814,22.6538,22.7064,22.7703,22.8361,22.9365,23.0304,16.8907,16.9038,16.9972,17.038,17.0511,17.1446,17.2169,17.2511,17.2577,17.2788,17.3183,17.3262,17.3747,17.4523,17.4654,17.5443,17.6838,17.7717,17.7783,17.7219,17.8323,17.9163,17.9755,18.069,18.2019,18.3466,18.4832,18.6308,18.7441,18.7689,18.8084,18.9121,18.9581,18.9844,18.9844,19.0305,19.0897,19.1883,19.1964,19.2409,19.3299,19.3431,19.3415,19.3415,19.3431,19.2905,19.2131,19.0224,18.9713,19.0502,19.1043,19.1949,19.3102,19.3431,19.3431,19.3496,19.3825,19.4088,19.4169,19.4548,19.4862,19.5009,19.5763,19.6304,19.6486,19.726,19.8459,19.9774,20.0053,20.0645,20.1894,20.2552,20.196,20.025,20.1697,20.2881,20.3078,20.413,20.4903,20.5166,20.6218,20.7007,20.7205,20.7731,20.8257,20.9161,20.9292,20.9818,21.1084,21.1479,21.1561,21.2252,21.2877,21.3715,21.4109,21.4767,21.5113,21.4981,21.4932,21.4784,21.5639,21.6674,21.7743,21.8927,22.0439,22.1492,22.2198,22.3052,22.3758,22.4481,22.5091,22.5814,22.652,22.744,22.8445,16.8775,16.8709,16.892,16.8907,16.8986,16.9249,16.9906,17.0972,17.1117,17.1774,17.284,17.3051,17.3103,17.3314,17.3498,17.4076,17.518,17.5509,17.5495,17.5495,17.6824,17.8111,17.9229,17.9492,18.0427,18.1982,18.3386,18.4767,18.6177,18.6228,18.6374,18.6622,18.7821,18.8362,18.8362,18.945,19.029,19.0305,19.0305,19.0421,19.0538,19.0487,19.0487,19.0472,19.0553,18.9435,18.682,18.6571,18.6688,18.6834,18.7836,18.9085,19.029,19.0553,19.0553,19.0684,19.1751,19.2424,19.2606,19.3562,19.4088,19.4154,19.468,19.4827,19.4811,19.5059,19.5798,19.7028,19.7372,19.7767,19.9182,20.0234,19.9987,19.7964,19.9395,20.0892,20.1418,20.2552,20.3505,20.3752,20.4772,20.561,20.5955,20.6563,20.7287,20.7665,20.7862,20.8323,20.9621,21.0016,21.0624,21.1578,21.2022,21.2137,21.2728,21.3254,21.3008,21.2877,21.2811,21.3271,21.4258,21.4652,21.5639,21.702,21.8467,21.9453,22.0159,22.1606,22.218,22.264,22.2921,22.353,22.4499,22.5551,22.6472,16.5869,16.6066,16.7039,16.7434,16.7552,16.8473,16.9183,16.9578,16.9643,17.0446,17.1511,17.1709,17.2301,17.3103,17.3262,17.3498,17.3893,17.3879,17.3893,17.401,17.5378,17.627,17.6796,17.7717,17.8914,18.0295,18.0873,18.2385,18.4504,18.4767,18.5307,18.6096,18.6637,18.6915,18.6981,18.736,18.7609,18.7623,18.7609,18.7623,18.7609,18.7609,18.7609,18.7609,18.7609,18.7083,18.6294,18.6242,18.6242,18.6242,18.6637,18.7083,18.7543,18.7609,18.7623,18.7609,18.8135,18.8296,18.8478,18.9611,19.0451,19.0502,19.208,19.333,19.3395,19.4235,19.4943,19.5337,19.555,19.5616,19.6192,19.6587,19.6536,19.5945,19.6339,19.7275,19.8359,19.895,20.0069,20.1697,20.3209,20.3999,20.4262,20.4672,20.5396,20.6284,20.635,20.6942,20.8125,20.852,20.8799,20.9194,21.0032,21.0624,21.069,21.0871,21.0673,21.115,21.1282,21.217,21.3025,21.2959,21.3683,21.503,21.6279,21.72,21.8449,22.001,22.0865,22.1325,22.1606,22.1755,22.2592,22.3579,22.4105,16.4423,16.4554,16.5501,16.5908,16.604,16.6934,16.7671,16.8144,16.8131,16.8933,17.0117,17.0248,17.1038,17.2459,17.1906,17.1985,17.238,17.2446,17.2709,17.3301,17.4156,17.4852,17.5364,17.6232,17.7482,17.8651,17.89,18.0084,18.2319,18.3071,18.3795,18.4598,18.5176,18.5439,18.557,18.5914,18.6242,18.6242,18.6242,18.6242,18.6308,18.6242,18.5651,18.481,18.4664,18.465,18.4679,18.4664,18.4664,18.4664,18.519,18.5439,18.5504,18.5899,18.6242,18.6242,18.6242,18.6242,18.6308,18.7097,18.7558,18.7704,18.9333,19.0239,19.0583,19.162,19.2723,19.3233,19.3628,19.338,19.292,19.297,19.3446,19.3957,19.4483,19.5337,19.6026,19.6304,19.7159,19.9329,20.061,20.1729,20.2436,20.3225,20.3883,20.4722,20.4919,20.5314,20.6119,20.6744,20.7007,20.727,20.8175,20.9029,20.8635,20.8438,20.8684,20.9227,20.9769,21.0443,21.1298,21.1413,21.2022,21.3403,21.388,21.4669,21.5244,21.6805,21.8581,21.9173,22.0045,22.0308,22.0668,22.1851,22.2263,16.4423,16.4423,16.4423,16.4554,16.4489,16.4554,16.5356,16.6711,16.6645,16.7487,16.8723,16.8841,16.9578,17.0722,16.9525,16.9643,17.084,17.0985,17.1709,17.2906,17.3051,17.3879,17.5167,17.5232,17.6035,17.7285,17.7416,17.8191,17.9689,18.1099,18.1851,18.1968,18.3334,18.3977,18.4175,18.5176,18.5979,18.5716,18.5716,18.5914,18.5899,18.5716,18.4204,18.1982,18.1785,18.1719,18.1785,18.1733,18.1733,18.1785,18.2874,18.3649,18.378,18.4913,18.5439,18.5519,18.557,18.5636,18.5453,18.5702,18.5914,18.6045,18.6425,18.6425,18.6951,18.7952,18.9136,19.0158,19.1477,19.1253,18.9359,19.0011,19.1041,19.2085,19.3456,19.42,19.4498,19.4483,19.5353,19.6714,19.7306,19.8277,20.0645,20.2355,20.2831,20.3291,20.3423,20.3636,20.4015,20.4919,20.5413,20.5824,20.6481,20.7155,20.5955,20.589,20.6416,20.6942,20.7418,20.801,20.8964,20.9933,21.0756,21.1496,21.189,21.2301,21.2499,21.3748,21.5705,21.6822,21.7629,21.8532,21.8778,22.001,22.0751,16.4423,16.4423,16.4423,16.4423,16.4423,16.4423,16.4686,16.5028,16.5093,16.5974,16.7289,16.7381,16.7579,16.7908,16.7566,16.8144,16.9367,16.9512,17.0314,17.1511,17.1643,17.2366,17.3695,17.3747,17.4536,17.5693,17.589,17.6613,17.8074,17.9572,18.0215,18.0493,18.1771,18.2494,18.256,18.2823,18.3086,18.31,18.3086,18.3086,18.2837,18.0981,17.9469,17.8811,17.8745,17.868,17.868,17.8694,17.8694,17.868,17.9074,17.9257,17.9257,17.9652,17.9863,17.9863,17.9849,17.9849,17.9849,18.1902,18.3086,18.3297,18.5124,18.6242,18.6294,18.6571,18.7032,18.7419,18.8533,18.8984,18.8115,18.8446,18.8545,18.8629,18.992,19.1016,19.1695,19.2672,19.3724,19.509,19.5318,19.5813,19.6587,19.808,19.9805,20.1368,20.1894,20.2239,20.3357,20.3752,20.413,20.413,20.4409,20.4491,20.4212,20.413,20.4196,20.4672,20.4935,20.5462,20.6465,20.6794,20.7386,20.9309,21.0147,21.0673,21.1233,21.1973,21.3403,21.4011,21.485,21.5753,21.6477,21.8072,21.8861,16.2714,16.2714,16.2714,16.2714,16.2792,16.3318,16.3581,16.3634,16.416,16.4949,16.5777,16.5843,16.5843,16.5843,16.5843,16.6632,16.8013,16.7999,16.8802,17.0117,17.0183,17.092,17.2248,17.2301,17.309,17.4405,17.4471,17.5246,17.6482,17.7454,17.8163,17.8783,17.9652,18.0075,18.0075,18.0126,18.0061,18.0141,18.0141,18.0141,17.9943,17.8417,17.7496,17.7496,17.7496,17.7496,17.7496,17.7496,17.7496,17.7496,17.7496,17.7496,17.7496,17.7496,17.7496,17.7496,17.7496,17.7496,17.7496,17.9074,18.0226,18.0508,18.2061,18.315,18.3349,18.4528,18.4594,18.3713,18.4014,18.4965,18.5999,18.616,18.655,18.7429,18.8218,18.9015,18.9414,18.9985,19.119,19.3071,19.3203,19.3365,19.4614,19.5616,19.6815,19.8196,19.9329,19.974,20.0726,20.1976,20.2486,20.2502,20.1581,20.1466,20.2436,20.2633,20.2962,20.3373,20.357,20.3636,20.4738,20.4772,20.5232,20.6876,20.7073,20.7665,20.944,20.9852,21.0706,21.1676,21.2449,21.3517,21.3517,21.4915,21.5787,16.0215,16.0162,16.0294,16.0162,16.0425,16.1634,16.2107,16.2279,16.3647,16.4213,16.3976,16.4081,16.4094,16.4213,16.4226,16.5106,16.6513,16.6592,16.7355,16.8591,16.8723,16.9512,17.0775,17.0854,17.1643,17.284,17.3038,17.3747,17.5101,17.5167,17.5904,17.7167,17.7416,17.7627,17.7562,17.7562,17.7562,17.7496,17.7233,17.7087,17.7087,17.7087,17.7115,17.7087,17.7036,17.7087,17.6904,17.7101,17.7101,17.7101,17.6824,17.6838,17.6772,17.6693,17.6627,17.6509,17.6561,17.6693,17.6641,17.6866,17.7223,17.7984,17.8345,17.8856,17.9531,18.1595,18.1824,17.9963,17.9338,18.0975,18.3034,18.3502,18.4419,18.6206,18.7174,18.7649,18.7493,18.7254,18.8099,19.0941,19.0585,19.1169,19.337,19.4084,19.4417,19.5024,19.6223,19.7225,19.7554,19.9001,20.0316,20.0103,19.8738,19.8277,19.979,20.0695,20.0908,20.2239,20.2781,20.2847,20.3094,20.3357,20.3488,20.4541,20.408,20.4607,20.5708,20.6498,20.7796,20.8668,20.9967,21.1561,21.1824,21.2367,21.2236,16.0162,16.0162,16.0162,16.0162,16.0228,16.0491,16.0622,16.0832,16.2135,16.2147,16.1214,16.1148,16.174,16.2752,16.2805,16.3581,16.483,16.4949,16.5817,16.7171,16.7237,16.8013,16.9315,16.938,17.0169,17.1446,17.1498,17.2248,17.3484,17.3695,17.4405,17.5758,17.689,17.7496,17.7496,17.7496,17.7496,17.7364,17.5274,17.4169,17.4156,17.4169,17.4156,17.4156,17.4169,17.4169,17.4156,17.4156,17.4156,17.4156,17.309,17.2498,17.2498,17.1484,17.0813,17.0827,17.0827,17.0879,17.092,17.227,17.3621,17.4906,17.6488,17.7925,17.8964,17.8596,17.7799,17.7518,17.907,18.0622,18.1424,18.1545,18.1639,18.1943,18.3875,18.5028,18.4944,18.6578,18.8108,18.8463,18.82,18.8482,19.0139,19.105,19.1847,19.29,19.4351,19.5221,19.5337,19.5747,19.6273,19.6126,19.5813,19.5813,19.5995,19.6389,19.7144,19.8293,19.8637,19.9608,20.1105,20.1763,20.2173,20.2897,20.3241,20.3423,20.3801,20.4343,20.4738,20.533,20.6563,20.7681,20.8651,21.0312,21.1118,15.8202,15.8215,15.8215,15.8202,15.8202,15.8202,15.8609,15.9279,16.0015,15.9871,15.9254,15.9924,16.0635,16.1371,16.2041,16.2752,16.3528,16.416,16.4896,16.5698,16.5711,16.6487,16.7815,16.7947,16.8723,17.0038,17.0104,17.0446,17.1248,17.1906,17.2629,17.3405,17.4786,17.5471,17.5551,17.5537,17.5537,17.5471,17.4024,17.3262,17.3262,17.3262,17.2906,17.2235,17.2248,17.1919,17.1248,17.1248,17.1248,17.1235,17.0511,17.0051,17.0038,16.9301,16.8657,16.8013,16.7947,16.771,16.7275,16.8895,17.0676,17.2565,17.3809,17.4785,17.5602,17.5379,17.5112,17.526,17.6526,17.8112,17.9471,17.9442,17.9722,18.0763,18.2026,18.2735,18.2732,18.3793,18.4984,18.6032,18.5834,18.6355,18.8475,18.8783,18.9258,18.9968,19.1032,19.2409,19.3643,19.2738,19.1999,19.2707,19.3431,19.3957,19.4665,19.473,19.5074,19.5894,19.6041,19.6749,19.7851,19.8312,19.864,19.9379,20.0134,20.0726,20.15,20.2042,20.2765,20.3307,20.4262,20.4788,20.5593,20.6974,20.7369,15.5256,15.5256,15.5256,15.5268,15.5334,15.5519,15.632,15.7372,15.7187,15.7253,15.7504,15.8926,15.9636,15.9978,16.1187,16.1766,16.2107,16.3305,16.3818,16.3831,16.4028,16.483,16.6119,16.6316,16.7224,16.8525,16.8591,16.8723,16.9052,17.0169,17.0761,17.0906,17.2183,17.292,17.2906,17.3103,17.2972,17.2643,17.2591,17.2564,17.2577,17.2564,17.2037,17.084,17.0775,17.0183,16.8972,16.8907,16.8907,16.8907,16.8723,16.8525,16.8328,16.8052,16.7289,16.5724,16.554,16.5089,16.4113,16.5444,16.7319,16.9451,17.0462,17.0747,17.0572,17.1852,17.2799,17.299,17.328,17.4422,17.6925,17.7001,17.7682,18.0002,18.0239,18.025,18.0425,18.0381,18.1212,18.3641,18.3497,18.4255,18.6681,18.6876,18.6717,18.7211,18.8314,18.9102,19.0763,18.9731,18.8845,18.9728,19.0977,19.2161,19.2657,19.3562,19.3694,19.4073,19.4285,19.468,19.5256,19.5322,19.5337,19.4993,19.6289,19.7356,19.8393,19.9642,20.0447,20.1368,20.2289,20.2765,20.2831,20.2436,20.2223,15.2398,15.2374,15.2374,15.2386,15.244,15.36,15.4245,15.4442,15.3295,0.0,0.0,15.6045,15.7306,15.8424,15.87,15.9423,16.0557,16.0832,16.0873,16.0951,16.2147,16.2818,16.3159,16.4304,16.5685,16.7118,16.7171,16.775,16.8907,16.9183,16.9315,16.9433,17.0695,17.1446,17.1511,17.2577,17.2037,16.9854,16.9643,16.9643,16.9643,16.9643,16.9564,16.9315,16.9315,16.9183,16.8907,16.8907,16.8907,16.892,16.7829,16.6566,16.5278,16.412,16.2292,15.9831,15.9555,15.9188,15.8284,15.9534,16.0928,16.2202,16.6426,16.8146,16.616,16.7288,16.8709,16.9926,17.112,17.2541,17.4207,17.4325,17.4467,17.4952,17.5736,17.6715,17.7754,17.8596,17.96,18.1141,18.1118,18.1877,18.4608,18.459,18.509,18.7114,18.7266,18.7536,18.78,18.7441,18.6951,18.7018,18.7572,18.7623,18.7937,18.8858,18.991,19.1079,19.2212,19.338,19.4417,19.473,19.473,19.4351,19.4943,19.5272,19.5535,19.6061,19.5995,19.6258,19.8246,20.0021,19.9758,19.813,19.6652,15.1651,15.1651,15.1651,15.1651,0.0,15.2374,15.2529,15.2331,15.2319,15.2574,15.2972,15.3535,15.4096,15.482,15.5531,15.6624,15.8071,15.8728,15.9452,16.0241,16.0898,16.1227,16.1293,16.2686,16.3726,16.4553,16.5238,16.5961,16.6671,16.7473,16.7815,16.7908,16.9262,16.9985,16.9972,17.0643,17.0314,16.8907,16.8907,16.8907,16.8907,16.8907,16.8591,16.7894,16.7815,0.0,0.0,0.0,0.0,0.0,0.0,0.0,0.0,16.1305,0.0,15.7425,15.5909,15.4771,15.4234,15.5601,15.6855,15.7728,16.2506,16.4955,16.3672,16.5878,16.7569,16.8376,16.9059,16.9957,17.1147,17.1788,17.2369,17.2867,17.3753,17.4597,17.5277,17.5701,17.6744,17.8549,17.8673,17.9458,18.2294,18.2224,18.2818,18.4746,18.5188,18.5424,18.5748,18.4685,18.4071,18.4445,18.5343,18.6177,18.6308,18.69,18.7623,18.815,18.8939,18.9647,19.0356,19.0487,19.0684,19.1488,19.2131,19.2839,19.3496,19.4285,19.473,19.4928,19.5995,19.6521,19.5024,19.4811,19.473,15.1092,15.1103,15.1092,15.1092,15.1038,15.0675,15.035,15.0349,15.1501,15.2035,15.2036,15.1952,15.1871,15.1925,15.3098,15.4158,15.5205,15.6402,15.7525,15.8597,15.9123,15.9373,15.9452,16.1108,16.191,16.1963,16.3042,16.3621,16.37,16.5185,16.5935,16.5987,16.7684,16.8539,16.8446,0.0,0.0,0.0,16.7986,16.8039,16.8039,16.8052,16.7539,16.6382,16.6066,0.0,16.4107,16.3765,16.3621,16.3634,16.2542,0.0,0.0,0.0,0.0,0.0,0.0,0.0,0.0,0.0,0.0,0.0,15.7916,16.0247,16.074,16.365,16.5627,16.6209,16.6606,16.7293,16.8293,16.9392,17.04,17.124,17.1803,17.2318,17.2565,17.2435,17.3241,17.5846,17.5975,17.6947,17.9739,17.9831,18.0156,18.1973,18.2633,18.328,18.3815,18.2065,18.0985,18.174,18.3258,18.4626,18.4942,18.5373,18.5833,18.5899,18.5965,18.6359,18.6491,18.6425,18.6834,18.7836,18.8858,19.0108,19.1109,19.2328,19.2788,19.3102,19.3562,19.3102,19.0356,19.1524,19.3183,14.9111,14.9033,14.9045,14.9045,14.8913,14.7162,14.7007,14.8119,14.8309,14.9584,15.1595,15.2445,15.2834,15.2779,15.3021,15.2943,15.2699,15.2897,15.287,15.2859,15.5243,15.6439,15.6558,15.9189,16.0425,16.0425,16.0635,16.0688,16.0754,16.216,16.2896,16.3028,16.5671,16.7039,16.6921,16.4475,16.3147,16.3147,16.437,16.5002,16.5015,16.5002,16.4949,16.4686,16.3541,16.2765,16.2555,16.1424,16.0688,16.0688,16.0557,15.9533,15.7484,15.5767,15.3273,0.0,14.7256,0.0,0.0,0.0,0.0,0.0,0.0,0.0,0.0,15.6655,15.8838,16.1404,16.3169,16.4589,16.5617,16.7092,16.7979,16.8098,16.7583,16.7663,16.8856,16.948,17.0373,17.1983,17.291,17.4544,17.7266,17.7279,17.8072,18.047,18.0743,18.0597,18.0716,18.0409,17.9846,17.9022,17.9305,18.0267,18.0846,18.2677,18.4175,18.4372,18.4978,18.6177,18.5899,18.5899,18.6111,18.6374,18.6571,18.682,18.6966,18.7295,18.7477,18.774,18.9435,18.991,18.7609,18.7411,18.728,14.6971,14.6971,14.6971,14.7263,14.7777,14.7681,14.7867,14.8245,14.8245,14.8447,14.8901,14.9346,14.9323,14.8852,14.8609,14.8763,14.9258,14.8825,14.9417,15.079,15.1824,15.2769,15.3636,15.5638,15.7006,15.782,15.8609,15.9386,16.0162,16.082,16.1161,16.1161,16.2423,16.2699,16.187,16.062,16.0332,16.1095,16.174,16.2043,16.2056,16.2069,16.2043,16.2069,16.1424,16.1161,16.1108,16.0491,15.978,15.9016,15.8488,15.7008,15.4332,15.1692,14.9273,0.0,0.0,0.0,0.0,0.0,0.0,0.0,0.0,0.0,0.0,0.0,15.5091,15.8094,15.9914,16.1217,16.2127,16.3626,16.4309,16.3853,16.4211,16.4778,16.5352,16.62,16.7199,16.8355,17.0144,17.1975,17.3792,17.4547,17.5928,17.853,17.7521,17.6706,17.7257,17.7847,17.8193,17.813,17.8278,17.8617,17.8896,17.9812,18.0441,18.0427,18.0981,18.1376,18.1376,18.1376,18.1625,18.2399,18.3269,18.4072,18.4913,18.5621,18.6242,18.6177,18.6045,18.5322,18.4152,18.5059,18.6242,14.6226,14.5888,14.5128,14.4996,14.5424,14.6946,14.764,14.7628,14.7618,14.7186,14.641,14.632,14.5868,14.52,14.4775,14.4987,14.5849,14.5471,14.6402,14.8297,14.8517,14.9382,15.0764,15.2081,15.3468,15.4885,15.6003,15.7056,15.8136,15.8465,15.865,15.8609,15.7821,15.6973,15.6175,15.6492,15.7484,15.9123,15.9517,15.9846,16.0162,16.0162,16.0162,16.0162,15.9833,15.9517,15.9201,15.886,15.8067,15.6702,15.5713,15.3955,15.1228,14.7764,0.0,0.0,0.0,0.0,0.0,0.0,0.0,0.0,0.0,14.2794,14.8813,0.0,15.0998,0.0,15.5986,15.7619,15.8465,15.9921,0.0,0.0,16.072,16.133,16.134,16.249,16.3735,16.4909,16.7161,16.9273,17.106,17.2091,17.3516,17.5437,17.4154,17.3385,17.4781,17.5416,17.5871,17.6308,17.6441,17.6833,17.6855,17.6949,17.7161,17.7601,17.758,17.7496,17.7496,17.7496,17.7825,17.8914,18.0112,18.1164,18.2202,18.3334,18.3941,18.3532,18.2165,18.0864,18.0916,18.2508,18.4072,14.8177,14.6586,14.3736,14.1763,14.0703,14.2226,14.3513,14.4562,14.4631,14.4921,14.5283,14.5097,14.4695,14.4153,14.3876,0.0,14.2694,14.3586,14.375,14.3336,14.5208,14.6864,14.8251,14.9273,15.0599,15.1938,15.2069,15.2177,15.2398,15.3689,15.4245,15.4203,15.1013,14.9854,15.0753,15.2015,15.3835,15.6201,15.7516,15.8819,16.0109,16.0162,16.0162,16.0096,15.8872,15.757,15.6242,15.4968,15.3751,15.2711,15.1677,15.0182,14.8144,0.0,0.0,0.0,0.0,0.0,0.0,0.0,0.0,0.0,0.0,0.0,0.0,0.0,0.0,14.6975,15.0872,0.0,15.4823,15.613,0.0,0.0,0.0,15.6275,15.6266,15.8175,16.0029,16.1537,0.0,0.0,17.0219,17.0374,17.0533,17.1617,17.1242,17.1761,17.4058,17.3736,17.3117,17.2754,17.2258,17.2217,17.3346,17.4316,17.5695,17.7472,17.7872,17.7195,17.7101,17.7167,17.7364,17.7336,17.7693,17.789,17.7942,17.8088,17.7811,17.6533,17.7101,17.7811,17.7759,17.8154,17.86,14.3053,13.9846,13.8594,13.7126,13.5992,13.8416,13.964,13.9929,14.0865,14.106,14.0705,13.9667,13.8861,13.8232,13.7213,0.0,0.0,0.0,13.8459,13.9809,14.1762,14.338,14.4787,14.5815,14.708,14.8425,14.8425,14.8932,14.9768,15.034,14.9071,14.6048,0.0,14.4434,14.6879,14.8071,15.003,15.2756,15.3949,15.4795,15.5376,15.5073,15.4993,15.5005,15.4503,15.3978,15.3661,15.2265,15.0768,14.9126,14.8098,14.5835,0.0,0.0,0.0,0.0,0.0,0.0,0.0,0.0,0.0,0.0,0.0,13.2253,13.5953,0.0,0.0,0.0,14.5188,14.8702,15.0818,15.1459,0.0,0.0,0.0,0.0,0.0,0.0,0.0,15.6422,16.0646,16.4204,16.6135,16.667,16.7162,16.784,16.8643,16.9637,17.1002,0.0,17.1682,17.1947,17.2127,17.2201,17.2232,17.2556,17.2875,17.3587,17.3162,17.2706,17.2421,17.2339,17.2339,17.2405,17.301,17.3616,17.3602,17.2879,17.2076,17.1602,17.2616,17.3536,17.3602,17.4983,17.6153,13.6088,0.0,0.0,0.0,0.0,13.345,13.4319,13.4063,13.5152,13.5209,13.4374,13.3091,0.0,0.0,0.0,0.0,0.0,0.0,13.38,13.5974,13.828,13.9942,14.1317,14.2197,14.3417,14.4738,14.4793,14.5315,14.6235,14.5092,14.2621,13.9115,0.0,0.0,0.0,0.0,14.6808,14.9818,15.0916,15.1813,15.2608,15.2194,15.2001,15.2013,15.1617,15.132,15.1207,14.9468,14.7599,14.553,14.4237,0.0,0.0,0.0,0.0,0.0,0.0,0.0,0.0,0.0,0.0,0.0,0.0,0.0,0.0,0.0,0.0,0.0,0.0,0.0,14.4817,14.5699,14.6319,0.0,0.0,0.0,0.0,0.0,0.0,0.0,0.0,0.0,16.0734,16.2301,16.3664,0.0,0.0,16.7506,16.832,16.9143,16.9955,17.0445,17.0636,0.0,17.02,17.0048,16.9814,16.9125,16.9093,16.8858,16.8223,16.7974,16.7882,16.7882,16.8947,16.9263,16.7987,16.7197,16.7092,16.7145,16.821,16.9117,16.9315,17.1103,17.2813,0.0,0.0,0.0,0.0,12.5055,0.0,0.0,0.0,12.6786,12.6667,0.0,12.5847,0.0,0.0,0.0,0.0,12.6678,12.8837,0.0,0.0,13.4708,13.6826,13.7911,13.8675,13.968,14.1024,14.1045,14.1055,14.089,13.6971,0.0,0.0,0.0,0.0,0.0,0.0,14.4211,14.7755,14.8894,15.0764,15.3532,15.3184,15.2918,15.2852,15.1591,15.0153,14.8816,14.6323,14.4025,14.1896,13.9785,0.0,0.0,0.0,0.0,0.0,0.0,0.0,0.0,0.0,0.0,0.0,0.0,0.0,0.0,0.0,0.0,0.0,0.0,0.0,0.0,13.8616,0.0,0.0,0.0,0.0,0.0,0.0,0.0,0.0,0.0,15.4595,15.382,15.7331,16.0382,16.1473,0.0,0.0,0.0,0.0,16.7508,16.7054,16.6254,16.5705,16.5739,16.6504,16.6788,16.5803,0.0,0.0,16.6214,16.5633,16.5222,16.5301,16.6049,16.5288,16.022,16.1041,16.2449,16.2568,16.366,16.4554,16.4752,16.5895,16.7118,0.0,0.0,0.0,0.0,0.0,0.0,0.0,0.0,0.0,12.033,12.0053,11.8895,0.0,0.0,0.0,0.0,0.0,0.0,0.0,0.0,13.0029,13.2296,13.3528,13.4449,13.5558,13.6738,13.6738,13.5196,0.0,0.0,0.0,0.0,0.0,0.0,0.0,0.0,14.287,14.6723,14.8869,15.0829,15.2524,15.2094,15.1714,15.1496,14.9945,14.8047,14.5759,14.2146,13.9307,0.0,0.0,0.0,0.0,0.0,0.0,0.0,0.0,0.0,0.0,0.0,0.0,0.0,0.0,0.0,0.0,0.0,0.0,0.0,0.0,0.0,0.0,0.0,13.666,0.0,0.0,0.0,0.0,0.0,0.0,0.0,0.0,0.0,14.8392,15.268,15.6434,15.7594,15.9932,16.2002,16.3148,0.0,0.0,0.0,0.0,0.0,0.0,0.0,16.6248,16.5508,16.4499,16.355,16.2806,16.1241,15.9993,16.0047,0.0,0.0,15.5407,15.5947,15.7335,15.8014,15.8543,15.886,15.8847,16.0779,16.2476,0.0,0.0,0.0,0.0,0.0,0.0,0.0,0.0,0.0,11.2607,11.2377,0.0,0.0,0.0,0.0,0.0,0.0,0.0,0.0,0.0,0.0,0.0,12.8821,12.985,0.0,0.0,0.0,0.0,0.0,0.0,0.0,0.0,0.0,0.0,0.0,0.0,14.1298,14.4823,14.8497,15.0864,15.205,15.1568,15.1211,15.1001,14.893,14.671,14.4269,0.0,0.0,0.0,0.0,0.0,0.0,0.0,0.0,0.0,0.0,0.0,0.0,0.0,0.0,0.0,0.0,0.0,0.0,0.0,0.0,0.0,0.0,0.0,0.0,0.0,13.1774,0.0,0.0,0.0,0.0,0.0,0.0,0.0,0.0,0.0,0.0,14.7967,15.1716,15.3529,15.653,15.909,16.0181,16.16,16.2708,0.0,0.0,0.0,0.0,0.0,0.0,0.0,0.0,0.0,0.0,0.0,0.0,0.0,0.0,15.2661,14.9742,15.0496,15.1814,15.2421,0.0,0.0,0.0,0.0,0.0,0.0,0.0,0.0,0.0,0.0,0.0,0.0,0.0,0.0,0.0,10.3369,0.0,0.0,10.3496,0.0,0.0,0.0,0.0,0.0,0.0,0.0,0.0,0.0,0.0,0.0,0.0,0.0,0.0,0.0,0.0,0.0,0.0,0.0,0.0,0.0,0.0,13.9537,14.1993,14.7583,15.1003,15.2193,15.1863,15.1662,15.1564,14.8629,14.6243,14.4515,0.0,0.0,0.0,0.0,0.0,0.0,0.0,0.0,0.0,0.0,0.0,0.0,0.0,0.0,0.0,0.0,0.0,0.0,0.0,0.0,0.0,0.0,0.0,0.0,0.0,0.0,12.4885,12.737,13.0419,0.0,0.0,0.0,0.0,0.0,0.0,0.0,0.0,0.0,14.9383,15.3435,15.6577,15.7853,16.0288,16.1789,16.1549,16.0866,16.0312,16.0027,15.9579,15.8945,0.0,0.0,0.0,0.0,0.0,0.0,0.0,0.0,0.0,0.0,0.0,0.0,0.0,0.0,0.0,0.0,0.0,0.0,0.0,0.0,0.0,0.0,0.0,0.0,0.0,0.0,0.0,0.0,0.0,0.0,0.0,0.0,0.0,0.0,0.0,0.0,0.0,0.0,0.0,0.0,0.0,0.0,0.0,0.0,0.0,0.0,0.0,0.0,0.0,0.0,0.0,0.0,0.0,0.0,13.8575,14.3376,14.7223,15.029,15.2591,15.2468,15.2344,15.1938,14.8965,14.5935,0.0,0.0,0.0,0.0,0.0,0.0,0.0,0.0,0.0,0.0,0.0,0.0,0.0,0.0,0.0,0.0,0.0,0.0,0.0,0.0,0.0,0.0,0.0,0.0,0.0,0.0,0.0,0.0,12.4723,12.6799,12.8778,0.0,0.0,0.0,0.0,0.0,0.0,0.0,0.0,0.0,0.0,15.2758,15.5234,15.6964,15.8553,16.0094,16.0098,16.0148,16.0539,16.0082,15.9113,15.7811,0.0,0.0,0.0,0.0,0.0,0.0,0.0,0.0,0.0,0.0,0.0,0.0,0.0,0.0,0.0,0.0,0.0,0.0,0.0,0.0,0.0,0.0,0.0,0.0,0.0,0.0,0.0,0.0,0.0,0.0,0.0,0.0,0.0,0.0,0.0,0.0,0.0,0.0,0.0,0.0,0.0,0.0,0.0,0.0,0.0,0.0,0.0,0.0,0.0,0.0,0.0,0.0,0.0,13.7098,14.1668,14.6647,14.9871,15.136,15.2049,15.1941,15.1083,14.7493,14.3914,0.0,0.0,0.0,0.0,0.0,0.0,0.0,0.0,0.0,0.0,0.0,0.0,0.0,0.0,0.0,0.0,0.0,0.0,0.0,0.0,0.0,0.0,0.0,0.0,0.0,0.0,0.0,0.0,12.0514,12.2654,12.4841,0.0,0.0,0.0,0.0,0.0,0.0,0.0,0.0,0.0,0.0,14.9375,15.2451,15.4447,0.0,0.0,15.7569,15.7525,15.783,15.7355,15.649,15.5278,15.3231,0.0,0.0,0.0,0.0,0.0,0.0,0.0,0.0,0.0,0.0,0.0,0.0,0.0,0.0,0.0,0.0,0.0,0.0,0.0,0.0,0.0,0.0,0.0,0.0,0.0,0.0,0.0,0.0,0.0,0.0,0.0,0.0,0.0,0.0,0.0,0.0,0.0,0.0,0.0,0.0,0.0,0.0,0.0,0.0,0.0,0.0,0.0,0.0,0.0,0.0,0.0,0.0,13.4915,13.7985,14.5438,14.9134,14.9218,15.0527,15.0605,14.9124,14.4672,14.0727,0.0,0.0,0.0,0.0,0.0,0.0,0.0,0.0,0.0,0.0,0.0,0.0,0.0,0.0,0.0,0.0,0.0,0.0,0.0,0.0,0.0,0.0,0.0,0.0,0.0,0.0,0.0,0.0,0.0,0.0,0.0,0.0,0.0,0.0,0.0,0.0,0.0,0.0,0.0,0.0,0.0,14.6378,14.9381,15.2276,15.4091,0.0,15.3811,15.3319,15.2927,15.2555,15.1995,15.1178,0.0,0.0,0.0,0.0,0.0,0.0,0.0,0.0,0.0,0.0,0.0,0.0,0.0,0.0,0.0,0.0,0.0,0.0,0.0,0.0,0.0,0.0,0.0,0.0,0.0,0.0,0.0,0.0,0.0,0.0,0.0,0.0,0.0,0.0,0.0,0.0,0.0,0.0,0.0,0.0,0.0,0.0,0.0,0.0,0.0,0.0,0.0,0.0,0.0,0.0,0.0,0.0,0.0,0.0,13.6602,14.0937,14.4814,14.8104,14.7512,14.7504,14.816,14.3737,0.0,0.0,0.0,0.0,0.0,0.0,0.0,0.0,0.0,0.0,0.0,0.0,0.0,0.0,0.0,0.0,0.0,0.0,0.0,0.0,0.0,0.0,0.0,0.0,0.0,0.0,0.0,10.6233,0.0,0.0,0.0,0.0,0.0,0.0,0.0,0.0,0.0,0.0,0.0,0.0,0.0,0.0,14.2768,14.4773,14.7633,14.9907,0.0,0.0,15.237,15.1757,15.1315,15.0509,0.0,0.0,0.0,0.0,0.0,0.0,0.0,0.0,0.0,0.0,0.0,0.0,0.0,0.0,0.0,0.0,0.0,0.0,0.0,0.0,0.0,0.0,0.0,0.0,0.0,0.0,0.0,0.0,0.0,0.0,0.0,0.0,0.0,0.0,0.0,0.0,0.0,0.0,0.0,0.0,0.0,0.0,0.0,0.0,0.0,0.0,0.0,0.0,0.0,0.0,0.0,0.0,0.0,0.0,12.9705,13.5134,13.8987,14.2568,14.5779,14.5686,14.5686,14.5929,14.2055,13.8055,0.0,0.0,0.0,0.0,0.0,0.0,0.0,0.0,0.0,0.0,0.0,0.0,0.0,0.0,0.0,0.0,0.0,0.0,0.0,0.0,0.0,0.0,0.0,0.0,0.0,0.0,0.0,0.0,0.0,0.0,0.0,0.0,0.0,0.0,0.0,0.0,0.0,0.0,0.0,0.0,0.0,0.0,14.0992,14.3917,0.0,0.0,0.0,14.9093,14.8692,0.0,0.0,0.0,0.0,0.0,0.0,0.0,0.0,0.0,0.0,0.0,0.0,0.0,0.0,0.0,0.0,0.0,0.0,0.0,0.0,0.0,0.0,0.0,0.0,0.0,0.0,0.0,0.0,0.0,0.0,0.0,0.0,0.0,0.0,0.0,0.0,0.0,0.0,0.0,0.0,0.0,0.0,0.0,0.0,0.0,0.0,0.0,0.0,0.0,0.0,0.0,0.0,0.0,0.0,0.0,0.0,0.0,13.313,13.791,14.1213,14.2932,14.4331,14.4409,14.3004,13.9979,13.6119,0.0,0.0,0.0,0.0,0.0,0.0,0.0,0.0,0.0,0.0,0.0,0.0,0.0,0.0,0.0,0.0,0.0,0.0,0.0,0.0,0.0,0.0,0.0,0.0,0.0,0.0,0.0,0.0,0.0,0.0,0.0,0.0,0.0,0.0,0.0,0.0,0.0,0.0,0.0,0.0,0.0,13.4699,13.7404,14.0492,14.2433,0.0,0.0,14.4423,14.4401,14.3887,0.0,0.0,0.0,0.0,0.0,0.0,0.0,0.0,0.0,0.0,0.0,0.0,0.0,0.0,0.0,0.0,0.0,0.0,0.0,0.0,0.0,0.0,0.0,0.0,0.0,0.0,0.0,0.0,0.0,0.0,0.0,0.0,0.0,0.0,0.0,0.0,0.0,0.0,0.0,0.0,0.0,0.0,0.0,0.0,0.0,0.0,0.0,0.0,0.0,0.0,0.0,0.0,0.0,0.0,0.0,0.0,12.8415,13.4213,13.8566,14.1277,14.1698,14.1698,14.1348,13.8358,13.4583,0.0,0.0,0.0,0.0,0.0,0.0,0.0,0.0,0.0,0.0,0.0,0.0,0.0,0.0,0.0,0.0,0.0,0.0,0.0,0.0,0.0,0.0,0.0,0.0,0.0,0.0,0.0,0.0,0.0,0.0,0.0,0.0,0.0,0.0,0.0,0.0,0.0,0.0,0.0,0.0,0.0,13.23,13.2942,13.5654,0.0,0.0,0.0,0.0,13.9479,13.9213,0.0,0.0,0.0,0.0,0.0,0.0,0.0,0.0,0.0,0.0,0.0,0.0,0.0,0.0,0.0,0.0,0.0,0.0,0.0,0.0,0.0,0.0,0.0,0.0,0.0,0.0,0.0,0.0,0.0,0.0,0.0,0.0,0.0,0.0,0.0,0.0,0.0,0.0,0.0,0.0,0.0,0.0,0.0,0.0,0.0,0.0,0.0,0.0,0.0,0.0,0.0,0.0,0.0,0.0,0.0,0.0,12.6845,13.1573,13.5511,13.8566,13.8644,13.8708,13.8637,13.5654,13.2507,0.0,0.0,0.0,0.0,0.0,0.0,0.0,0.0,0.0,0.0,0.0,0.0,0.0,0.0,0.0,0.0,0.0,0.0,0.0,0.0,0.0,0.0,0.0,0.0,0.0,0.0,0.0,0.0,0.0,0.0,0.0,0.0,0.0,0.0,0.0,0.0,0.0,0.0,0.0,0.0,12.5657,12.8518,12.9219,0.0,0.0,0.0,0.0,0.0,0.0,13.6828,13.597,0.0,0.0,0.0,0.0,0.0,0.0,0.0,0.0,0.0,0.0,0.0,0.0,0.0,0.0,0.0,0.0,0.0,0.0,0.0,0.0,0.0,0.0,0.0,0.0,0.0,0.0,0.0,0.0,0.0,0.0,0.0,0.0,0.0,0.0,0.0,0.0,0.0,0.0,0.0,0.0,0.0,0.0,0.0,0.0,0.0,0.0,0.0,0.0,0.0,0.0,0.0,0.0,0.0,0.0,0.0,12.5704,12.9582,13.289,13.5433,13.601,13.6146,13.579,13.3098,13.0451,12.8006,0.0,0.0,0.0,0.0,0.0,0.0,0.0,0.0,0.0,0.0,0.0,0.0,0.0,0.0,0.0,0.0,0.0,0.0,0.0,0.0,0.0,0.0,0.0,0.0,0.0,0.0,0.0,0.0,0.0,0.0,0.0,0.0,0.0,0.0,0.0,0.0,0.0,0.0,0.0,12.2785,12.4723,0.0,0.0,0.0,0.0,0.0,0.0,0.0,0.0,13.278,0.0,0.0,0.0,0.0,0.0,0.0,0.0,0.0,0.0,0.0,0.0,0.0,0.0,0.0,0.0,0.0,0.0,0.0,0.0,0.0,0.0,0.0,0.0,0.0,0.0,0.0,0.0,0.0,0.0,0.0,0.0,0.0,0.0,0.0,0.0,0.0,0.0,0.0,0.0,0.0,0.0,0.0,0.0,0.0,0.0,0.0,0.0,0.0,0.0,0.0,0.0,0.0,0.0,0.0,0.0,0.0,12.796,13.1813,13.2384,13.4947,13.564,13.4271,13.2514,12.894,12.3349,0.0,0.0,0.0,0.0,0.0,0.0,0.0,0.0,0.0,0.0,0.0,0.0,0.0,0.0,0.0,0.0,0.0,0.0,0.0,0.0,0.0,0.0,0.0,0.0,0.0,0.0,0.0,0.0,0.0,0.0,0.0,0.0,0.0,0.0,0.0,0.0,0.0,0.0,11.5698,11.977,0.0,0.0,0.0,0.0,0.0,0.0,0.0,0.0,12.7813,0.0,0.0,0.0,0.0,0.0,0.0,0.0,0.0,0.0,0.0,0.0,0.0,0.0,0.0,0.0,0.0,0.0,0.0,0.0,0.0,0.0,0.0,0.0,0.0,0.0,0.0,0.0,0.0,0.0,0.0,0.0,0.0,0.0,0.0,0.0,0.0,0.0,0.0,0.0,0.0,0.0,0.0,0.0,0.0,0.0,0.0,0.0,0.0,0.0,0.0,0.0,0.0,0.0,0.0,0.0,0.0,0.0,0.0,12.7363,12.9076,13.0574,13.0924,13.0205,12.7857,12.436,0.0,0.0,0.0,0.0,0.0,0.0,0.0,0.0,0.0,0.0,0.0,0.0,0.0,0.0,0.0,0.0,0.0,0.0,0.0,0.0,0.0,0.0,0.0,0.0,0.0,0.0,0.0,0.0,0.0,0.0,0.0,0.0,0.0,0.0,0.0,0.0,0.0,0.0,0.0,0.0,0.0,0.0,0.0,0.0,0.0,0.0,0.0,0.0,0.0,0.0,0.0,0.0,0.0,0.0,0.0,0.0,0.0,0.0,0.0,0.0,0.0,0.0,0.0,0.0,0.0,0.0,0.0,0.0,0.0,0.0,0.0,0.0,0.0,0.0,0.0,0.0,0.0,0.0,0.0,0.0,0.0,0.0,0.0,0.0,0.0,0.0,0.0,0.0,0.0,0.0,0.0,0.0,0.0,0.0,0.0,0.0,0.0,0.0,0.0,0.0,0.0,0.0,0.0,0.0,0.0,0.0,0.0,0.0,12.2986,12.584,12.656,12.6988,12.691,12.2838,11.9289,0.0,0.0,0.0,0.0,0.0,0.0,0.0,0.0,0.0,0.0,0.0,0.0,0.0,0.0,0.0,0.0,0.0,0.0,0.0,0.0,0.0,0.0,0.0,0.0,0.0,0.0,0.0,0.0,0.0,0.0,0.0,0.0,0.0,0.0,0.0,0.0,0.0,0.0,0.0,0.0,0.0,0.0,0.0,0.0,0.0,0.0,0.0,0.0,12.5204,0.0,0.0,0.0,0.0,0.0,0.0,0.0,0.0,0.0,0.0,0.0,0.0,0.0,0.0,0.0,0.0,0.0,0.0,0.0,0.0,0.0,0.0,0.0,0.0,0.0,0.0,0.0,0.0,0.0,0.0,0.0,0.0,0.0,0.0,0.0,0.0,0.0,0.0,0.0,0.0,0.0,0.0,0.0,0.0,0.0,0.0,0.0,0.0,0.0,0.0,0.0,0.0,0.0,0.0,0.0,0.0,0.0,0.0,0.0,12.0799,12.2558,12.5418,12.6916,12.6774,11.9705,11.5002,0.0,0.0,0.0,0.0,0.0,0.0,0.0,0.0,0.0,0.0,0.0,0.0,0.0,0.0,0.0,0.0,0.0,0.0,0.0,0.0,0.0,0.0,0.0,0.0,0.0,0.0,0.0,0.0,0.0,0.0,0.0,0.0,0.0,0.0,0.0,0.0,0.0,0.0,0.0,0.0,0.0,0.0,0.0,0.0,0.0,0.0,0.0,0.0,0.0,0.0,0.0,0.0,0.0,0.0,0.0,0.0,0.0,0.0,0.0,0.0,0.0,0.0,0.0,0.0,0.0,0.0,0.0,0.0,0.0,0.0,0.0,0.0,0.0,0.0,0.0,0.0,0.0,0.0,0.0,0.0,0.0,0.0,0.0,0.0,0.0,0.0,0.0,0.0,0.0,0.0,0.0,0.0,0.0,0.0,0.0,0.0,0.0,0.0,0.0,0.0,0.0,0.0,0.0,0.0,0.0,0.0,0.0,0.0,11.6447,11.7987,12.0216,12.1429,12.1423,11.6429,11.301,0.0,0.0,0.0,0.0,0.0,0.0,0.0,0.0,0.0,0.0,0.0,0.0,0.0,0.0,0.0,0.0,0.0,0.0,0.0,0.0,0.0,0.0,0.0,0.0,0.0,0.0,0.0,0.0,0.0,0.0,0.0,0.0,0.0,0.0,0.0,0.0,0.0,0.0,0.0,0.0,0.0,0.0,0.0,0.0,0.0,0.0,0.0,0.0,0.0,0.0,0.0,0.0,0.0,0.0,0.0,0.0,0.0,0.0,0.0,0.0,0.0,0.0,0.0,0.0,0.0,0.0,0.0,0.0,0.0,0.0,0.0,0.0,0.0,0.0,0.0,0.0,0.0,0.0,0.0,0.0,0.0,0.0,0.0,0.0,0.0,0.0,0.0,0.0,0.0,0.0,0.0,0.0,0.0,0.0,0.0,0.0,0.0,0.0,0.0,0.0,0.0,0.0,0.0,0.0,0.0,0.0,0.0,0.0,0.0,11.4426,11.4794,11.5019,11.4865,11.2303,11.0168,0.0,0.0,0.0,0.0,0.0,0.0,0.0,0.0,0.0,0.0,0.0,0.0,0.0,0.0,0.0,0.0,0.0,0.0,0.0,0.0,0.0,0.0,0.0,0.0,0.0,0.0,0.0,0.0,0.0,0.0,0.0,0.0,0.0,0.0,0.0,0.0,0.0,0.0,0.0,0.0,0.0,0.0,0.0,0.0,0.0,0.0,0.0,0.0,0.0,0.0,0.0,0.0,0.0,0.0,0.0,0.0,0.0,0.0,0.0,0.0,0.0,0.0,0.0,0.0,0.0,0.0,0.0,0.0,0.0,0.0,0.0,0.0,0.0,0.0,0.0,0.0,0.0,0.0,0.0,0.0,0.0,0.0,0.0,0.0,0.0,0.0,0.0,0.0,0.0,0.0,0.0,0.0,0.0,0.0,0.0,0.0,0.0,0.0,0.0,0.0,0.0,0.0,0.0,0.0,0.0,0.0,0.0,0.0,0.0,11.2808,11.0041,10.8691,10.868,10.7115,10.5377,0.0,0.0,0.0,0.0,0.0,0.0,0.0,0.0,0.0,0.0,0.0,0.0,0.0,0.0,0.0,0.0,0.0,0.0,0.0,0.0,0.0,0.0,0.0,0.0,0.0,0.0,0.0,0.0,0.0,0.0,0.0,0.0,0.0,0.0,0.0,0.0,0.0,0.0,0.0,0.0,0.0,0.0,0.0,0.0,0.0,0.0,0.0,0.0,0.0,0.0,0.0,0.0,0.0,0.0,0.0,0.0,0.0,0.0,0.0,0.0,0.0,0.0,0.0,0.0,0.0,0.0,0.0,0.0,0.0,0.0,0.0,0.0,0.0,0.0,0.0,0.0,0.0,0.0,0.0,0.0,0.0,0.0,0.0,0.0,0.0,0.0,0.0,0.0,0.0,0.0,0.0,0.0,0.0,0.0,0.0,0.0,0.0,0.0,0.0,0.0,0.0,0.0,0.0,0.0,0.0,0.0,0.0,0.0,0.0,10.6875,10.7681,10.812,10.812,10.5601,10.4016,10.3369,0.0,0.0,0.0,0.0,0.0,0.0,0.0,0.0,0.0,0.0,0.0,0.0,0.0,0.0,0.0,0.0,0.0,0.0,0.0,0.0,0.0,0.0,0.0,0.0,0.0,0.0,0.0,0.0,0.0,0.0,0.0,0.0,0.0,0.0,0.0,0.0,0.0,0.0,0.0,0.0,0.0,0.0,0.0,0.0,0.0,0.0,0.0,0.0,0.0,0.0,0.0,0.0,0.0,0.0,0.0,0.0,0.0,0.0,0.0,0.0,0.0,0.0,0.0,0.0,0.0,0.0,0.0,0.0,0.0,0.0,0.0,0.0,0.0,0.0,0.0,0.0,0.0,0.0,0.0,0.0,0.0,0.0,0.0,0.0,0.0,0.0,0.0,0.0,0.0,0.0,0.0,0.0,0.0,0.0,0.0,0.0,0.0,0.0,0.0,0.0,0.0,0.0,0.0,0.0,0.0,0.0,0.0,0.0,10.2665,10.4816,10.5902,10.5836,10.3817,10.2247,0.0,0.0,0.0,0.0,0.0,0.0,0.0,0.0,0.0,0.0,0.0,0.0,0.0,0.0,0.0,0.0,0.0,0.0,0.0,0.0,0.0,0.0,0.0,0.0,0.0,0.0,0.0,0.0,0.0,0.0,0.0,0.0,0.0,0.0,0.0,0.0,0.0,0.0,0.0,0.0,0.0,0.0,0.0,0.0,0.0,0.0,0.0,0.0,0.0,0.0,0.0,0.0,0.0,0.0,0.0,0.0,0.0,0.0,0.0,0.0,0.0,0.0,0.0,0.0,0.0,0.0,0.0,0.0,0.0,0.0,0.0,0.0,0.0,0.0,0.0,0.0,0.0,0.0,0.0,0.0,0.0,0.0,0.0,0.0,0.0,0.0,0.0,0.0,0.0,0.0,0.0,0.0,0.0,0.0,0.0,0.0,0.0,0.0,0.0,0.0,0.0,0.0,0.0,0.0,0.0,0.0,0.0,0.0,9.7991,10.0907,10.1111,10.134,10.1121,10.1121,9.9627,0.0,0.0,0.0,0.0,0.0,0.0,0.0,0.0,0.0,0.0,0.0,0.0,0.0,0.0,0.0,0.0,0.0,0.0,0.0,0.0,0.0,0.0,0.0,0.0,0.0,0.0,0.0,0.0,0.0,0.0,0.0,0.0,0.0,0.0,0.0,0.0,0.0,0.0,0.0,0.0,0.0,0.0,0.0,0.0,0.0,0.0,0.0,0.0,0.0,0.0,0.0,0.0,0.0,0.0,0.0,0.0,0.0,0.0,0.0,0.0,0.0,0.0,0.0,0.0,0.0,0.0,0.0,0.0,0.0,0.0,0.0,0.0,0.0,0.0,0.0,0.0,0.0,0.0,0.0,0.0,0.0,0.0,0.0,0.0,0.0,0.0,0.0,0.0,0.0,0.0,0.0,0.0,0.0,0.0,0.0,0.0,0.0,0.0,0.0,0.0,0.0,0.0,0.0,0.0,0.0,0.0,0.0,0.0,0.0,9.7686,0.0,9.9465,0.0,9.849,9.7424,0.0,0.0,0.0,0.0,0.0,0.0,0.0,0.0,0.0,0.0,0.0,0.0,0.0,0.0,0.0,0.0,0.0,0.0,0.0,0.0,0.0,0.0,0.0,0.0,0.0,0.0,0.0,0.0,0.0,0.0,0.0,0.0,0.0,0.0,0.0,0.0,0.0,0.0,0.0,0.0,0.0,0.0,0.0,0.0,0.0,0.0,0.0,0.0,0.0,0.0,0.0,0.0,0.0,0.0,0.0,0.0,0.0,0.0,0.0,0.0,0.0,0.0,0.0,0.0,0.0,0.0,0.0,0.0,0.0,0.0,0.0,0.0,0.0,0.0,0.0,0.0,0.0,0.0,0.0,0.0,0.0,0.0,0.0,0.0,0.0,0.0,0.0,0.0,0.0,0.0,0.0,0.0,0.0,0.0,0.0,0.0,0.0,0.0,0.0,0.0,0.0,0.0,0.0,0.0,0.0,0.0,0.0,0.0,0.0,9.5402,9.7039,9.7905,9.791,9.6925,9.6135,0.0,0.0,0.0,0.0,0.0,0.0,0.0,0.0,0.0,0.0,0.0,0.0,0.0,0.0,0.0,0.0,0.0,0.0,0.0,0.0,0.0,0.0,0.0,0.0,0.0,0.0,0.0,0.0,0.0,0.0,0.0,0.0,0.0,0.0,0.0,0.0,0.0,0.0,0.0,0.0,0.0,0.0,0.0,0.0,0.0,0.0,0.0,0.0,0.0,0.0,0.0,0.0,0.0,0.0,0.0,0.0,0.0,0.0,0.0,0.0,0.0,0.0,0.0,0.0,0.0,0.0,0.0,0.0,0.0,0.0,0.0,0.0,0.0,0.0,0.0,0.0,0.0,0.0,0.0,0.0,0.0,0.0,0.0,0.0,0.0,0.0,0.0,0.0,0.0,0.0,0.0,0.0,0.0,0.0,0.0,0.0,0.0,0.0,0.0,0.0,0.0,0.0,0.0,0.0,0.0,0.0,0.0,0.0,0.0,9.3961,9.5483,9.6283,9.6283,9.6287,9.5555,0.0,0.0,0.0,0.0,0.0,0.0,0.0,0.0,0.0,0.0,0.0,0.0,0.0,0.0,0.0,0.0,0.0,0.0,0.0,0.0,0.0,0.0,0.0,0.0,0.0,0.0,0.0,0.0,0.0,0.0,0.0,0.0,0.0,0.0,0.0,0.0,0.0,0.0,0.0,0.0,0.0,0.0,0.0,0.0,0.0,0.0,0.0,0.0,0.0,0.0,0.0,0.0,0.0,0.0,0.0,0.0,0.0,0.0,0.0,0.0,0.0,0.0,0.0,0.0,0.0,0.0,0.0,0.0,0.0,0.0,0.0,0.0,0.0,0.0,0.0,0.0,0.0,0.0,0.0,0.0,0.0,0.0,0.0,0.0,0.0,0.0,0.0,0.0,0.0,0.0,0.0,0.0,0.0,0.0,0.0,0.0,0.0,0.0,0.0,0.0,0.0,0.0,0.0,0.0,0.0,0.0,0.0,0.0,0.0,0.0,9.4318,9.4613,9.4546,9.4541,9.4389,9.3885,0.0,0.0,0.0,0.0,0.0,0.0,0.0,0.0,0.0,0.0,0.0,0.0,0.0,0.0,0.0,0.0,0.0,0.0,0.0,0.0,0.0,0.0,0.0,0.0,0.0,0.0,0.0,0.0,0.0,0.0,0.0,0.0,0.0,0.0,0.0,0.0,0.0,0.0,0.0,0.0,0.0,0.0,0.0,0.0,0.0,0.0,0.0,0.0,0.0,0.0,0.0,0.0,0.0,0.0,0.0,0.0,0.0,0.0,0.0,0.0,0.0,0.0,0.0,0.0,0.0,0.0,0.0,0.0,0.0,0.0,0.0,0.0,0.0,0.0,0.0,0.0,0.0,0.0,0.0,0.0,0.0,0.0,0.0,0.0,0.0,0.0,0.0,0.0,0.0,0.0,0.0,0.0,0.0,0.0,0.0,0.0,0.0,0.0,0.0,0.0,0.0,0.0,0.0,0.0,0.0,0.0,0.0,0.0,0.0,0.0,9.1968,9.1964,9.1968,9.1973,0.0,0.0,0.0,0.0,0.0,0.0,0.0,0.0,0.0,0.0,0.0,0.0,0.0,0.0,0.0,0.0,0.0,0.0,0.0,0.0,0.0,0.0,0.0,0.0,0.0,0.0,0.0,0.0,0.0,0.0,0.0,0.0,0.0,0.0,0.0,0.0,0.0,0.0,0.0,0.0,0.0,0.0,0.0,0.0,0.0,0.0,0.0,0.0,0.0,0.0,0.0,0.0,0.0,0.0,0.0,0.0,0.0,0.0,0.0,0.0,0.0,0.0,0.0,0.0,0.0,0.0,0.0,0.0,0.0,0.0,0.0,0.0,0.0,0.0,0.0,0.0,0.0,0.0,0.0,0.0,0.0,0.0,0.0,0.0,0.0,0.0,0.0,0.0,0.0,0.0,0.0,0.0,0.0,0.0,0.0,0.0,0.0,0.0,0.0,0.0,0.0,0.0,0.0,0.0,0.0,0.0,0.0,0.0,0.0,0.0,0.0,8.9199,8.9199,8.927,0.0,8.9261,0.0,0.0,0.0,0.0,0.0,0.0,0.0,0.0,0.0,0.0,0.0,0.0,0.0,0.0,0.0,0.0,0.0,0.0,0.0,0.0,0.0,0.0,0.0,0.0,0.0,0.0,0.0,0.0,0.0,0.0,0.0,0.0,0.0,0.0,0.0,0.0,0.0,0.0,0.0,0.0,0.0,0.0,0.0,0.0,0.0,0.0,0.0,0.0,0.0,0.0,0.0,0.0,0.0,0.0,0.0,0.0,0.0,0.0,0.0,0.0,0.0,0.0,0.0,0.0,0.0,0.0,0.0,0.0,0.0,0.0,0.0,0.0,0.0,0.0,0.0,0.0,0.0,0.0,0.0,0.0,0.0,0.0,0.0,0.0,0.0,0.0,0.0,0.0,0.0,0.0,0.0,0.0,0.0,0.0,0.0,0.0,0.0,0.0,0.0,0.0,0.0,0.0,0.0,0.0,0.0,0.0,0.0,0.0,0.0,0.0,0.0,0.0,8.9199,8.9199,8.9199,0.0,0.0,0.0,0.0,0.0,0.0,0.0,0.0,0.0,0.0,0.0,0.0,0.0,0.0,0.0,0.0,0.0,0.0,0.0,0.0,0.0,0.0,0.0,0.0,0.0,0.0,0.0,0.0,0.0,0.0,0.0,0.0,0.0,0.0,0.0,0.0,0.0,0.0,0.0,0.0,0.0,0.0,0.0,0.0,0.0,0.0,0.0,0.0,0.0,0.0,0.0,0.0,0.0,0.0,0.0,0.0,0.0,0.0,0.0,0.0,0.0,0.0,0.0,0.0,0.0,0.0,0.0,0.0,0.0,0.0,0.0,0.0,0.0,0.0,0.0,0.0,0.0,0.0,0.0,0.0,0.0,0.0,0.0,0.0,0.0,0.0,0.0,0.0,0.0,0.0,0.0,0.0,0.0,0.0,0.0,0.0,0.0,0.0,0.0,0.0,0.0,0.0,0.0,0.0,0.0,0.0,0.0,0.0,0.0,0.0,8.7058,8.7054,8.7062,8.7129,8.7129,0.0,0.0,0.0,0.0,0.0,0.0,0.0,0.0,0.0,0.0,0.0,0.0,0.0,0.0,0.0,0.0,0.0,0.0,0.0,0.0,0.0,0.0,0.0,0.0,0.0,0.0,0.0,0.0,0.0,0.0,0.0,0.0,0.0,0.0,0.0,0.0,0.0,0.0,0.0,0.0,0.0,0.0,0.0,0.0,0.0,0.0,0.0,0.0,0.0,0.0,0.0,0.0,0.0,0.0,0.0,0.0,0.0,0.0,0.0,0.0,0.0,0.0,0.0,0.0,0.0,0.0,0.0,0.0,0.0,0.0,0.0,0.0,0.0,0.0,0.0,0.0,0.0,0.0,0.0,0.0,0.0,0.0,0.0,0.0,0.0,0.0,0.0,0.0,0.0,0.0,0.0,0.0,0.0,0.0,0.0,0.0,0.0,0.0,0.0,0.0,0.0,0.0,0.0,0.0,0.0,0.0,0.0,0.0,0.0,0.0,0.0,0.0,0.0,0.0,8.4565,0.0,0.0,0.0,0.0,0.0,0.0,0.0,0.0,0.0,0.0,0.0,0.0,0.0,0.0,0.0,0.0,0.0,0.0,0.0,0.0,0.0,0.0,0.0,0.0,0.0,0.0,0.0,0.0,0.0,0.0,0.0,0.0,0.0,0.0,0.0,0.0,0.0,0.0,0.0,0.0,0.0,0.0,0.0,0.0,0.0,0.0,0.0,0.0,0.0,0.0,0.0,0.0,0.0,0.0,0.0,0.0,0.0,0.0,0.0,0.0,0.0,0.0,0.0,0.0,0.0,0.0,0.0,0.0,0.0,0.0,0.0,0.0,0.0,0.0,0.0,0.0,0.0,0.0,0.0,0.0,0.0,0.0,0.0,0.0,0.0,0.0,0.0,0.0,0.0,0.0,0.0,0.0,0.0,0.0,0.0,0.0,0.0,0.0,0.0,0.0,0.0,0.0,0.0,0.0,0.0,0.0,0.0,0.0,0.0,0.0,0.0,0.0,0.0,0.0,0.0,0.0,0.0,0.0,0.0,0.0,0.0,0.0,0.0,0.0,0.0,0.0,0.0,0.0,0.0,0.0,0.0,0.0,0.0,0.0,0.0,0.0,0.0,0.0,0.0,0.0,0.0,0.0,0.0,0.0,0.0,0.0,0.0,0.0,0.0,0.0,0.0,0.0,0.0,0.0,0.0,0.0,0.0,0.0,0.0,0.0,0.0,0.0,0.0,0.0,0.0,0.0,0.0,0.0,0.0,0.0,0.0,0.0,0.0,0.0,0.0,0.0,0.0,0.0,0.0,0.0,0.0,0.0,0.0,0.0,0.0,0.0,0.0,0.0,0.0,0.0,0.0,0.0,0.0,0.0,0.0,0.0,0.0,0.0,0.0,0.0,0.0,0.0,0.0,0.0,0.0,0.0,0.0,0.0,0.0,0.0,0.0,0.0,0.0,0.0,0.0,0.0,0.0,0.0,0.0,0.0,0.0,0.0,0.0,0.0,0.0,0.0,0.0,0.0,0.0,0.0,0.0,0.0,0.0,0.0,0.0,0.0,0.0,0.0,0.0,0.0,0.0,0.0,0.0,0.0,0.0,0.0,0.0,0.0,0.0,0.0,0.0,0.0,0.0,0.0,0.0,0.0,0.0,0.0,0.0,0.0,0.0,0.0,0.0,0.0,0.0,0.0,0.0,0.0,0.0,0.0,0.0,0.0,0.0,0.0,0.0,0.0,0.0,0.0,0.0,0.0,0.0,0.0,0.0,0.0,0.0,0.0,0.0,0.0,0.0,0.0,0.0,0.0,0.0,0.0,0.0,0.0,0.0,0.0,0.0,0.0,0.0,0.0,0.0,0.0,0.0,0.0,0.0,0.0,0.0,0.0,0.0,0.0,0.0,0.0,0.0,0.0,0.0,0.0,0.0,0.0,0.0,0.0,0.0,0.0,0.0,0.0,0.0,0.0,0.0,0.0,0.0,0.0,0.0,0.0,0.0,0.0,0.0,0.0,0.0,0.0,0.0,0.0,0.0,0.0,0.0,0.0,0.0,0.0,0.0,0.0,0.0,0.0,0.0,0.0,0.0,0.0,0.0,0.0,0.0,0.0,0.0,0.0,0.0,0.0,0.0,0.0,0.0,0.0,0.0,0.0,0.0,0.0,0.0,0.0,0.0,0.0,0.0,0.0,0.0,0.0,0.0,0.0,0.0,0.0,0.0,0.0,0.0,0.0,0.0,0.0,0.0,0.0,0.0,0.0,0.0,0.0,0.0,0.0,0.0,0.0,0.0,0.0,0.0,0.0,0.0,0.0,0.0,0.0,0.0,0.0,0.0,0.0,0.0,0.0,0.0,0.0,0.0,0.0,0.0,0.0,0.0,0.0,0.0,0.0,0.0,0.0,0.0,0.0,0.0,0.0,0.0,0.0,0.0,0.0,0.0,0.0,0.0,0.0,0.0,0.0,0.0,0.0,0.0,0.0,0.0,0.0,0.0,0.0,0.0,0.0,0.0,0.0,0.0,0.0,0.0,0.0,0.0,0.0,0.0,0.0,0.0,0.0,0.0,0.0,0.0,0.0,0.0,0.0,0.0,0.0,0.0,0.0,0.0,0.0,0.0,0.0,0.0,0.0,0.0,0.0,0.0,0.0,0.0,0.0,0.0,0.0,0.0,0.0,0.0,0.0,0.0,0.0,0.0,0.0,0.0,0.0,0.0,0.0,0.0,0.0,0.0,0.0,0.0,0.0,0.0,0.0,0.0,0.0,0.0,0.0,0.0,0.0,0.0,0.0,0.0,0.0,0.0,0.0,0.0,0.0,0.0,0.0,0.0,0.0,0.0,0.0,0.0,0.0,0.0,0.0,0.0,0.0,0.0,0.0,0.0,0.0,0.0,0.0,0.0,0.0,0.0,0.0,0.0,0.0,0.0,0.0,0.0,0.0,0.0,0.0,0.0,0.0,0.0,0.0,0.0,0.0,0.0,0.0,0.0,0.0,0.0,0.0,0.0,0.0,0.0,0.0,0.0,0.0,0.0,0.0,0.0,0.0,0.0,0.0,0.0,0.0,0.0,0.0,0.0,0.0,0.0,0.0,0.0,0.0,0.0,0.0,0.0,0.0,0.0,0.0,0.0,0.0,0.0,0.0,0.0,0.0,0.0,0.0,0.0,0.0,0.0,0.0,0.0,0.0,0.0,0.0,0.0,0.0,0.0,0.0,0.0,0.0,0.0,0.0,0.0,0.0,0.0,0.0,0.0,0.0,0.0,0.0,0.0,0.0,0.0,0.0,0.0,0.0,0.0,0.0,0.0,0.0,0.0,0.0,0.0,0.0,0.0,0.0,0.0,0.0,0.0,0.0,0.0,0.0,0.0,0.0,0.0,0.0,0.0,0.0,0.0,0.0,0.0,0.0,0.0,0.0,0.0,0.0,0.0,0.0,0.0,0.0,0.0,0.0,0.0,0.0,0.0,0.0,0.0,0.0,0.0,0.0,0.0,0.0,0.0,0.0,0.0,0.0,0.0,0.0,0.0,0.0,0.0,0.0,0.0,0.0,0.0,0.0,0.0,0.0,0.0,0.0,0.0,0.0,0.0,0.0,0.0,0.0,0.0,0.0,0.0,0.0,0.0,0.0,0.0,0.0,0.0,0.0,0.0,0.0,0.0,0.0,0.0,0.0,0.0,0.0,0.0,0.0,0.0,0.0,0.0,0.0,0.0,0.0,0.0,0.0,0.0,0.0,0.0,0.0,0.0,0.0,0.0,0.0,0.0,0.0,0.0,0.0,0.0,0.0,0.0,0.0,0.0,0.0,0.0,0.0,0.0,0.0,0.0,0.0,0.0,0.0,0.0,0.0,0.0,0.0,0.0,0.0,0.0,0.0,0.0,0.0,0.0,0.0,0.0,0.0,0.0,0.0,0.0,0.0,0.0,0.0,0.0,0.0,0.0,0.0,0.0,0.0,0.0,0.0,0.0,0.0,0.0,0.0,0.0,0.0,0.0,0.0,0.0,0.0,0.0,0.0,0.0,0.0,0.0,0.0,0.0,0.0,0.0,0.0,0.0,0.0,0.0,0.0,0.0,0.0,0.0,0.0,0.0,0.0,0.0,0.0,0.0,0.0,0.0,0.0,0.0,0.0,0.0,0.0,0.0,0.0,0.0,0.0,0.0,0.0,0.0,0.0,0.0,0.0,0.0,0.0,0.0,0.0,0.0,0.0,0.0,0.0,0.0,0.0,0.0,0.0,0.0,0.0,0.0,0.0,0.0,0.0,0.0,0.0,0.0,0.0,0.0,0.0,0.0,0.0,0.0,0.0,0.0,0.0,0.0,0.0,0.0,0.0,0.0,0.0,0.0,0.0,0.0,0.0,0.0,0.0,0.0,0.0,0.0,0.0,0.0,0.0,0.0,0.0,0.0,0.0,0.0,0.0,0.0,0.0,0.0,0.0,0.0,0.0,0.0,0.0,0.0,0.0,0.0,0.0,0.0,0.0,0.0,0.0,0.0,0.0,0.0,0.0,0.0,0.0,0.0,0.0,0.0,0.0,0.0,0.0,0.0,0.0,0.0,0.0,0.0,0.0,0.0,0.0,0.0,0.0,0.0,0.0,0.0,0.0,0.0,0.0,0.0,0.0,0.0,0.0,0.0,0.0,0.0,0.0,0.0,0.0,0.0,0.0,0.0,0.0,0.0,0.0,0.0,0.0,0.0,0.0,0.0,0.0,0.0,0.0,0.0,0.0,0.0,0.0,0.0,0.0,0.0,0.0,0.0,0.0,0.0,0.0,0.0,0.0,0.0,0.0,0.0,0.0,0.0,0.0,0.0,0.0,0.0,0.0,0.0,0.0,0.0,0.0,0.0,0.0,0.0,0.0,0.0,0.0,0.0,0.0]}],[{"header":{"parameterUnit":"kt","parameterCategory":2,"dx":1,"dy":1,"la1":29.587661999999998,"la2":31.0,"lo1":-88.76705300000003,"lo2":-86.6583820000003,"nx":115,"ny":88,"refTime":"2022-09-27T06:00:00:Z","depth":0,"parameterNumber":2,"parameterNumberName":"V-component_of_WINDS"},"data":[10.8974,10.9785,10.9948,11.0038,11.0038,11.0038,11.0038,11.0038,11.0038,11.0038,11.0038,11.0038,11.0038,11.0038,11.0038,11.0114,11.0506,11.1862,11.2393,11.2811,11.4341,11.4873,11.5101,11.5101,11.5101,11.5101,11.5101,11.5101,11.5215,11.5996,11.6841,11.7486,11.8349,11.9326,11.9933,11.9943,11.9943,11.9943,11.9943,11.9943,11.9943,11.9943,11.9943,11.9943,11.9943,11.9943,12.0323,12.1499,12.2107,12.2913,12.3937,12.4726,12.5021,12.5021,12.5021,12.5021,12.5021,12.5021,12.5021,12.5021,12.5021,12.5021,12.5021,12.5021,12.5021,12.5021,12.5219,12.5797,12.5948,12.6434,12.7155,12.7838,12.8635,12.9303,12.998,13.0018,13.0018,13.0018,13.0018,13.0094,13.0177,13.0633,13.1316,13.2158,13.2994,13.3759,13.4449,13.4828,13.4872,13.4872,13.4872,13.491,13.491,13.4872,13.491,13.5727,13.6183,13.7056,13.7891,13.8878,13.9562,13.9789,13.9941,13.9941,13.9941,13.9941,13.9941,13.9941,14.0093,14.0245,14.0848,14.1531,14.2443,14.3316,14.4227,10.8139,10.8936,10.9683,11.0038,11.0038,11.0038,11.0038,11.0038,11.0038,11.0038,11.0038,11.0038,11.0038,11.0038,11.0038,11.0038,11.0494,11.1672,11.2382,11.299,11.4228,11.4797,11.4987,11.5101,11.5101,11.5101,11.5101,11.5101,11.5139,11.6375,11.7258,11.7648,11.8662,11.9857,11.9905,11.9943,11.9943,11.9943,11.9943,11.9943,11.9943,11.9943,11.9943,11.9943,11.9943,11.9943,12.0237,12.0921,12.1756,12.2714,12.3823,12.4612,12.4915,12.5021,12.5021,12.5021,12.5021,12.5021,12.5021,12.5021,12.5021,12.5021,12.5021,12.5021,12.5021,12.5021,12.5021,12.5181,12.5181,12.5561,12.6358,12.7155,12.7952,12.8711,12.9455,12.998,13.0018,13.0018,13.0018,13.0018,13.0246,13.0443,13.1164,13.2038,13.2842,13.3645,13.4253,13.4638,13.4872,13.4872,13.4872,13.4872,13.4872,13.4872,13.4872,13.5284,13.5581,13.6454,13.7441,13.8466,13.9339,13.9713,13.9941,13.9941,13.9941,13.9941,13.9941,13.9941,13.9941,13.9979,14.0587,14.1194,14.2067,14.2865,14.3814,10.7949,10.8758,10.9645,11.0038,11.0038,11.0038,11.0038,11.0038,11.0038,11.0038,11.0038,11.0038,11.0038,11.0038,11.0038,11.0038,11.0266,11.1341,11.2014,11.2735,11.3669,11.4531,11.4949,11.5101,11.5101,11.5101,11.5101,11.5177,11.5367,11.6527,11.7458,11.7714,11.8994,11.9905,11.9943,11.9943,11.9943,11.9943,11.9943,11.9943,11.9943,11.9943,11.9943,11.9943,11.9943,11.9943,12.0237,12.0835,12.1405,12.2164,12.3435,12.4261,12.4839,12.4953,12.4991,12.5021,12.5021,12.5021,12.5021,12.5021,12.5021,12.5021,12.5021,12.5021,12.5021,12.5021,12.5021,12.5021,12.5021,12.5219,12.6016,12.6548,12.7277,12.8187,12.9007,12.9752,12.998,13.0018,13.0018,13.0018,13.0132,13.036,13.0701,13.1537,13.2265,13.307,13.3797,13.4177,13.4676,13.4872,13.4872,13.4872,13.4872,13.4872,13.4872,13.5056,13.5246,13.6037,13.6986,13.7967,13.884,13.9448,13.9941,13.9941,13.9941,13.9941,13.9941,13.9941,13.9941,13.9941,14.0397,14.0928,14.165,14.2409,14.3168,10.7658,10.8429,10.9315,10.986,11.0012,11.0038,11.0038,11.0038,11.0038,11.0038,11.0038,11.0038,11.0038,11.0038,11.0038,11.0038,11.0228,11.1038,11.1748,11.2595,11.3377,11.4288,11.4949,11.5101,11.5101,11.5101,11.5101,11.5101,11.5443,11.6527,11.7496,11.7931,11.907,11.9943,11.9943,11.9943,11.9943,11.9943,11.9943,11.9943,11.9943,11.9943,11.9943,11.9943,11.9943,11.9943,12.0095,12.0645,12.094,12.1471,12.281,12.3806,12.4679,12.4877,12.4953,12.5021,12.5021,12.5021,12.5021,12.5021,12.5021,12.5021,12.5021,12.5021,12.5021,12.5021,12.5021,12.5021,12.5105,12.5371,12.575,12.6138,12.6707,12.7656,12.8597,12.9273,12.998,13.0018,13.0018,13.0018,13.0018,13.0132,13.0246,13.0815,13.1582,13.2386,13.319,13.3949,13.4487,13.4866,13.4866,13.4904,13.4872,13.4872,13.4872,13.5018,13.5132,13.5777,13.6492,13.736,13.8303,13.8949,13.9557,13.9713,13.9941,13.9941,13.9941,13.9941,13.9941,13.9941,14.0283,14.0663,14.1308,14.1802,14.2485,10.6873,10.7683,10.8417,10.9277,11.0,11.0038,11.0038,11.0038,11.0038,11.0038,11.0038,11.0038,11.0038,11.0038,11.0038,11.0038,11.024,11.0708,11.1493,11.261,11.3225,11.4136,11.4797,11.5101,11.5101,11.5101,11.5101,11.5101,11.5519,11.6565,11.779,11.8709,11.9554,11.9905,11.9943,11.9943,11.9943,11.9943,11.9943,11.9943,11.9943,11.9943,11.9943,11.9943,11.9943,11.9943,11.9981,12.0133,12.0455,12.1253,12.2135,12.2942,12.3844,12.4451,12.4839,12.4953,12.5021,12.5021,12.5021,12.5021,12.5021,12.5021,12.5021,12.5021,12.5021,12.5021,12.5021,12.5021,12.5021,12.5219,12.5371,12.5712,12.629,12.7155,12.8066,12.8817,12.9493,12.9942,12.998,13.0018,13.0018,13.0056,13.017,13.0398,13.1133,13.2234,13.3076,13.3873,13.4373,13.4714,13.4828,13.4904,13.4904,13.4872,13.4872,13.491,13.5056,13.5321,13.5923,13.679,13.781,13.8493,13.9101,13.9524,13.9941,13.9941,13.9941,13.9941,13.9941,13.9941,14.0093,14.0468,14.0777,14.1156,14.1726,10.6785,10.7595,10.8341,10.9201,10.9936,11.0038,11.0038,11.0038,11.0038,11.0038,11.0038,11.0038,11.0038,11.0038,11.0038,11.0038,11.005,11.048,11.1304,11.2279,11.286,11.3924,11.4721,11.5101,11.5101,11.5101,11.5101,11.5101,11.5453,11.6603,11.7893,11.8822,11.9554,11.9829,11.9943,11.9943,11.9943,11.9943,11.9943,11.9943,11.9943,11.9943,11.9943,11.9943,11.9943,11.9943,11.9943,11.9943,12.0123,12.0465,12.1291,12.2135,12.2942,12.3806,12.4337,12.4915,12.4953,12.5021,12.5021,12.5021,12.5021,12.5021,12.5021,12.5021,12.5021,12.5021,12.5021,12.5021,12.5021,12.5021,12.5105,12.5333,12.5978,12.6623,12.7458,12.8324,12.9038,12.9714,12.9904,12.998,13.0018,13.0018,13.0132,13.0291,13.0822,13.1703,13.2545,13.3342,13.3835,13.4221,13.4449,13.4828,13.4904,13.4872,13.4872,13.491,13.4948,13.517,13.5657,13.6373,13.736,13.8157,13.8873,13.941,13.9865,13.9941,13.9941,13.9941,13.9941,13.9941,14.0055,14.0207,14.0397,14.0663,14.089,10.6418,10.7215,10.7999,10.8822,10.9569,10.9633,10.9785,11.0012,11.0038,11.0038,11.0038,11.0038,11.0038,11.0038,11.0038,11.0038,11.0038,11.0266,11.1178,11.1976,11.2659,11.3723,11.4558,11.5101,11.5101,11.5101,11.5101,11.5101,11.5415,11.6651,11.7893,11.8908,11.9677,11.9867,11.9943,11.9943,11.9943,11.9943,11.9943,11.9943,11.9943,11.9943,11.9943,11.9943,11.9943,11.9943,11.9943,11.9943,11.9943,12.0161,12.0835,12.1433,12.222,12.3198,12.392,12.4603,12.4907,12.4991,12.5021,12.5021,12.5021,12.5021,12.5021,12.5021,12.5021,12.5021,12.5021,12.5021,12.5021,12.5021,12.5067,12.5219,12.5599,12.6168,12.6707,12.7686,12.8741,12.9341,12.9645,12.9759,13.0018,13.0018,13.0018,13.0208,13.0481,13.1126,13.1779,13.2538,13.3145,13.3645,13.4063,13.4714,13.4872,13.4872,13.4872,13.4872,13.4872,13.4948,13.5359,13.5961,13.6828,13.7701,13.8607,13.9253,13.9713,13.9903,13.9941,13.9941,13.9941,13.9941,13.9941,13.9941,13.9941,14.0093,14.0283,10.5557,10.643,10.7215,10.7987,10.8682,10.8834,10.9277,11.0038,11.0038,11.0038,11.0038,11.0038,11.0038,11.0038,11.0038,11.0038,11.0038,11.0038,11.1064,11.2014,11.2469,11.3582,11.4455,11.5025,11.5101,11.5101,11.5101,11.5101,11.5253,11.6641,11.8169,11.927,11.9677,11.9905,11.9943,11.9943,11.9943,11.9943,11.9943,11.9943,11.9943,11.9943,11.9943,11.9943,11.9943,11.9943,11.9943,11.9943,11.9943,12.0199,12.0721,12.113,12.188,12.2953,12.3531,12.4034,12.4641,12.4831,12.4953,12.5021,12.5021,12.5021,12.5021,12.5021,12.5021,12.5021,12.5021,12.5021,12.5021,12.5021,12.5021,12.5143,12.5295,12.5712,12.6138,12.7011,12.8142,12.8893,12.9235,12.9539,12.9828,13.0018,13.0018,13.0094,13.036,13.0784,13.1164,13.1848,13.2348,13.2886,13.3683,13.4373,13.4752,13.4828,13.4872,13.4872,13.4872,13.4872,13.5246,13.5587,13.6226,13.7056,13.8038,13.8911,13.9519,13.9865,13.9903,13.9941,13.9941,13.9941,13.9941,13.9941,13.9941,13.9941,13.9979,10.552,10.6354,10.6633,10.7481,10.8568,10.8682,10.9163,10.9936,11.0038,11.0038,11.0038,11.0038,11.0038,11.0038,11.0038,11.0038,11.0038,11.005,11.081,11.1543,11.2241,11.324,11.4125,11.4732,11.5025,11.5101,11.5101,11.5101,11.5177,11.6679,11.7714,11.8549,11.9345,11.9791,11.9943,11.9943,11.9943,11.9943,11.9943,11.9943,11.9943,11.9943,11.9943,11.9943,11.9943,11.9943,11.9943,11.9943,11.9943,11.9981,12.0275,12.0674,12.1234,12.2003,12.262,12.3502,12.4186,12.4451,12.4801,12.4983,12.5021,12.5021,12.5021,12.5021,12.5021,12.5021,12.5021,12.5021,12.5021,12.5021,12.5021,12.4991,12.5143,12.5257,12.5721,12.6146,12.7201,12.8294,12.8787,12.9159,12.9425,12.9828,13.0018,13.0132,13.017,13.036,13.0481,13.0981,13.1513,13.231,13.3145,13.3873,13.4373,13.4676,13.4834,13.4872,13.4872,13.4872,13.5132,13.5429,13.5999,13.6524,13.7544,13.8488,13.902,13.9443,13.9713,13.9941,13.9941,13.9941,13.9941,13.9941,13.9941,13.9941,13.9941,10.533,10.5886,10.624,10.6911,10.7809,10.8125,10.8746,10.9505,10.9898,11.0038,11.0038,11.0038,11.0038,11.0038,11.0038,11.0038,11.0038,11.005,11.0442,11.1251,11.2127,11.2974,11.3794,11.4591,11.5063,11.5101,11.5101,11.5101,11.5101,11.6261,11.6955,11.7676,11.8804,11.9573,11.9867,11.9943,11.9943,11.9943,11.9943,11.9943,11.9943,11.9943,11.9943,11.9943,11.9943,11.9943,11.9943,11.9943,11.9943,11.9943,11.9981,12.0275,12.0683,12.1348,12.1889,12.2544,12.3768,12.4034,12.4413,12.4907,12.4953,12.5021,12.5021,12.5021,12.5021,12.5021,12.5021,12.5021,12.5021,12.5021,12.5021,12.5021,12.4991,12.5143,12.5295,12.5721,12.6298,12.739,12.8256,12.8559,12.9045,12.9417,12.9904,13.0094,13.0094,13.0208,13.0246,13.0595,13.1133,13.1893,13.2576,13.3342,13.4101,13.4487,13.4796,13.4872,13.4872,13.4872,13.5056,13.5246,13.5581,13.6069,13.6942,13.7886,13.8488,13.902,13.9557,13.9941,13.9941,13.9941,13.9941,13.9941,13.9941,13.9941,13.9941,10.4976,10.5077,10.5911,10.6291,10.6557,10.7177,10.7961,10.8872,10.9531,10.9936,11.0012,11.0038,11.0038,11.0038,11.0038,11.0038,11.0038,11.0076,11.0354,11.1163,11.1987,11.286,11.3707,11.4477,11.5101,11.5101,11.5101,11.5101,11.5101,11.6034,11.6793,11.7524,11.8273,11.9098,11.9867,11.9943,11.9943,11.9943,11.9943,11.9943,11.9943,11.9943,11.9943,11.9943,11.9943,11.9943,11.9943,11.9943,11.9943,11.9943,11.9943,12.0019,12.0199,12.0826,12.1244,12.1585,12.2886,12.3607,12.3882,12.4536,12.4839,12.4953,12.5021,12.5021,12.5021,12.5021,12.5021,12.5021,12.5021,12.5021,12.5021,12.5021,12.5021,12.5029,12.5029,12.5333,12.5759,12.6594,12.7277,12.7838,12.8369,12.9007,12.9569,12.998,12.998,13.0018,13.0018,13.036,13.0898,13.1475,13.2006,13.2772,13.3607,13.3993,13.4449,13.4676,13.4872,13.4872,13.498,13.5018,13.5246,13.5581,13.6264,13.7246,13.7929,13.864,13.9253,13.9903,13.9941,13.9941,13.9941,13.9941,13.9941,13.9941,13.9941,10.4939,10.5001,10.5292,10.5734,10.6316,10.6595,10.7417,10.8568,10.8948,10.9391,11.0012,11.0038,11.0038,11.0038,11.0038,11.0038,11.0038,11.0076,11.0228,11.0836,11.1748,11.2583,11.3316,11.4152,11.4987,11.5101,11.5101,11.5101,11.5139,11.5844,11.6537,11.7182,11.778,11.8728,11.9526,11.9943,11.9943,11.9943,11.9943,11.9943,11.9943,11.9943,11.9943,11.9943,11.9943,11.9943,11.9943,11.9943,11.9943,11.9943,11.9943,11.9943,12.0047,12.0266,12.0645,12.1177,12.1889,12.2649,12.3455,12.411,12.4346,12.4688,12.4839,12.4945,12.5021,12.5021,12.5021,12.5021,12.5021,12.5021,12.5021,12.5021,12.5021,12.5021,12.5021,12.5029,12.5485,12.5797,12.651,12.7163,12.799,12.8711,12.9273,12.9752,12.9828,13.0018,13.0018,13.0246,13.0633,13.0981,13.1475,13.2196,13.3038,13.3569,13.4101,13.4525,13.4872,13.4872,13.4872,13.4872,13.4872,13.4986,13.5549,13.6606,13.7474,13.819,13.8873,13.9486,13.9751,13.9903,13.9941,13.9941,13.9941,13.9941,13.9941,10.4939,10.4939,10.4939,10.533,10.5835,10.6177,10.6873,10.7759,10.8391,10.9012,10.9493,10.986,11.0038,11.0038,11.0038,11.0038,11.0038,11.0038,11.0076,11.0532,11.1292,11.2127,11.2898,11.3772,11.477,11.5025,11.5101,11.5101,11.5101,11.5453,11.6223,11.6879,11.7296,11.8283,11.9146,11.9715,11.9867,11.9943,11.9943,11.9943,11.9943,11.9943,11.9943,11.9943,11.9943,11.9943,11.9943,11.9943,11.9943,11.9943,11.9943,11.9943,12.0009,12.0009,12.0275,12.0655,12.1206,12.1813,12.262,12.281,12.3198,12.3815,12.4384,12.4679,12.5021,12.5021,12.5021,12.5021,12.5021,12.5021,12.5021,12.5021,12.5021,12.5021,12.5021,12.5021,12.5181,12.5379,12.591,12.6594,12.7428,12.8294,12.8855,12.9417,12.9721,12.998,13.0018,13.0094,13.0246,13.0519,13.0974,13.162,13.25,13.3107,13.3835,13.4373,13.4872,13.4872,13.4872,13.4872,13.4872,13.491,13.517,13.6037,13.698,13.7848,13.8607,13.9139,13.9557,13.9865,13.9941,13.9941,13.9941,13.9941,13.9941,10.4939,10.4939,10.4939,10.4976,10.5077,10.5886,10.6253,10.6671,10.7847,10.8492,10.8872,10.9455,10.986,11.0012,11.0038,11.0038,11.0038,11.0038,11.0038,11.0278,11.086,11.1759,11.2595,11.3441,11.425,11.4949,11.5101,11.5101,11.5139,11.5253,11.5643,11.6185,11.6841,11.7817,11.8719,11.944,11.9706,11.9943,11.9943,11.9943,11.9943,11.9943,11.9943,11.9943,11.9943,11.9943,11.9943,11.9943,11.9943,11.9943,11.9943,11.9943,11.9943,11.9943,11.9943,12.0275,12.0683,12.1025,12.1405,12.1557,12.1785,12.2439,12.3207,12.3966,12.4641,12.4839,12.5021,12.5021,12.5021,12.5021,12.5021,12.5021,12.5021,12.5021,12.5021,12.5021,12.5067,12.5219,12.5493,12.6062,12.6783,12.761,12.8248,12.9007,12.9417,12.9569,12.9607,13.0018,13.0132,13.0208,13.0595,13.0974,13.1924,13.2728,13.3456,13.4139,13.46,13.4752,13.4866,13.4872,13.4872,13.5018,13.5094,13.5885,13.6486,13.7544,13.8417,13.8797,13.9253,13.9676,13.9941,13.9941,13.9941,13.9941,13.9941,10.4939,10.4939,10.4939,10.4939,10.4976,10.5216,10.5696,10.6291,10.6797,10.7569,10.8455,10.8898,10.9417,10.9898,11.0038,11.0038,11.0038,11.0038,11.0038,11.0278,11.086,11.1619,11.2405,11.3263,11.4136,11.509,11.5025,11.5101,11.5101,11.5139,11.5453,11.6223,11.6489,11.7324,11.8405,11.9012,11.9402,11.9791,11.9905,11.9943,11.9943,11.9943,11.9943,11.9943,11.9943,11.9943,11.9943,11.9943,11.9943,11.9943,11.9943,11.9943,11.9943,11.9943,11.9943,12.0047,12.0161,12.0389,12.0541,12.0845,12.1319,12.1785,12.2363,12.316,12.3958,12.4717,12.4983,12.4877,12.4915,12.4991,12.5021,12.5021,12.5021,12.5021,12.5021,12.5021,12.4991,12.5067,12.5295,12.575,12.6282,12.7003,12.7716,12.8514,12.8931,12.9083,12.9493,12.9942,13.0056,13.0056,13.0284,13.036,13.1202,13.2,13.2728,13.3494,13.4253,13.46,13.4828,13.4872,13.4872,13.498,13.5056,13.5429,13.5955,13.6828,13.7625,13.8265,13.8868,13.9215,13.9595,13.9713,13.9941,13.9941,13.9941,10.4939,10.4939,10.4939,10.4939,10.4939,10.4939,10.5267,10.5772,10.6164,10.6861,10.7569,10.7961,10.8606,10.9353,10.9898,11.0038,11.0038,11.0038,11.0038,11.0202,11.0442,11.1061,11.2025,11.2823,11.3615,11.4352,11.4835,11.5063,11.5101,11.5139,11.5226,11.5757,11.6164,11.6831,11.7417,11.8367,11.8946,11.9364,11.9753,11.9943,11.9943,11.9943,11.9943,11.9943,11.9943,11.9943,11.9943,11.9943,11.9943,11.9943,11.9943,11.9943,11.9943,11.9943,11.9943,11.9943,11.9943,11.9943,11.9981,12.0417,12.0579,12.0883,12.1452,12.2202,12.2772,12.3654,12.4422,12.4489,12.4764,12.4953,12.5021,12.5021,12.5021,12.5021,12.5021,12.5021,12.5021,12.5021,12.5029,12.5333,12.5712,12.6282,12.6927,12.7421,12.761,12.8066,12.8703,12.9228,12.9493,12.9752,12.9904,12.998,13.0663,13.1354,13.212,13.281,13.3607,13.4291,13.4449,13.4828,13.4866,13.4872,13.4942,13.5208,13.5695,13.6221,13.6752,13.7398,13.7962,13.8531,13.9172,13.9557,13.9903,13.9903,13.9941,10.4887,10.4939,10.4939,10.4939,10.4939,10.4939,10.4976,10.5115,10.5835,10.6202,10.6532,10.7126,10.7797,10.8594,10.9417,10.986,11.0038,11.0038,11.0038,11.0038,11.0126,11.0556,11.1289,11.2127,11.31,11.3881,11.4694,11.5025,11.5101,11.5101,11.5139,11.5253,11.5757,11.6251,11.6668,11.7542,11.8491,11.8756,11.9374,11.9753,11.9753,11.9867,11.9943,11.9943,11.9943,11.9943,11.9943,11.9943,11.9943,11.9943,11.9943,11.9943,11.9943,11.9943,11.9943,11.9943,11.9943,11.9943,11.9943,12.0085,12.0095,12.0275,12.0693,12.1092,12.1775,12.2734,12.3531,12.3683,12.4375,12.4764,12.4915,12.4991,12.5021,12.5021,12.5021,12.5021,12.5021,12.5021,12.5021,12.5219,12.5371,12.5788,12.613,12.6214,12.6442,12.7231,12.7982,12.8407,12.8855,12.9341,12.9607,12.998,13.0549,13.0974,13.1627,13.2279,13.3038,13.3797,13.4215,13.4638,13.479,13.4872,13.4872,13.5056,13.5505,13.6031,13.6259,13.6562,13.7056,13.7772,13.8607,13.9253,13.9713,13.9903,13.9941,10.4405,10.4939,10.4939,10.4939,10.4939,10.4939,10.4939,10.4976,10.5166,10.5633,10.6266,10.6494,10.6987,10.7759,10.8556,10.9315,11.0038,11.0012,11.0012,11.0038,11.0076,11.043,11.1239,11.2075,11.286,11.3577,11.4504,11.5063,11.4987,11.5063,11.5063,11.5177,11.5177,11.5567,11.6071,11.6706,11.7096,11.7742,11.8501,11.8984,11.9174,11.9592,11.9943,11.9943,11.9943,11.9943,11.9943,11.9943,11.9943,11.9943,11.9943,11.9943,11.9943,11.9943,11.9943,11.9943,11.9943,11.9943,11.9943,11.9943,11.9943,11.9943,12.0161,12.0607,12.1206,12.1661,12.2354,12.3502,12.4034,12.4224,12.4793,12.4945,12.4953,12.4953,12.5021,12.5021,12.5021,12.5021,12.5021,12.5021,12.5067,12.5295,12.5485,12.5607,12.5948,12.6699,12.7185,12.7678,12.8066,12.8666,12.9379,12.9797,13.0177,13.0595,13.1088,13.1703,13.2393,13.3145,13.3607,13.4253,13.4563,13.4866,13.4872,13.491,13.5353,13.5505,13.5543,13.5771,13.6373,13.7094,13.8076,13.8759,13.9215,13.9481,13.9713,10.3671,10.4392,10.4405,10.4633,10.4925,10.4939,10.4939,10.4939,10.4939,10.5254,10.5582,10.5709,10.6127,10.6873,10.7443,10.8252,10.9201,10.9721,11.0012,11.0038,11.0038,11.0316,11.0632,11.1455,11.2302,11.3176,11.3973,11.439,11.4439,11.4835,11.5063,11.5101,11.5101,11.5253,11.5643,11.5996,11.6489,11.6907,11.7628,11.8121,11.8159,11.8425,11.9022,11.9364,11.9706,11.9905,11.9943,11.9943,11.9943,11.9943,11.9943,11.9943,11.9943,11.9943,11.9943,11.9943,11.9943,11.9943,11.9943,11.9943,11.9943,11.9943,11.9943,12.0199,12.0465,12.0759,12.1224,12.2249,12.2819,12.354,12.4367,12.4375,12.4641,12.4869,12.5021,12.5021,12.5021,12.5021,12.5021,12.5021,12.5029,12.5067,12.5067,12.5257,12.5561,12.594,12.6426,12.6851,12.7239,12.8028,12.8901,12.9349,12.9797,13.0139,13.0481,13.1126,13.1779,13.2386,13.2956,13.3721,13.4183,13.4676,13.4828,13.479,13.4872,13.5056,13.5132,13.5284,13.5733,13.6297,13.7088,13.781,13.8455,13.9096,13.9481,10.2759,10.3606,10.3758,10.4164,10.4722,10.4925,10.4939,10.4939,10.4939,10.4963,10.5001,10.4976,10.5444,10.6025,10.6215,10.7025,10.8214,10.9201,10.9823,11.0038,11.0038,11.005,11.0316,11.1,11.1619,11.234,11.2872,11.3464,11.3881,11.4466,11.4808,11.5063,11.5101,11.5101,11.5302,11.5643,11.5985,11.6175,11.6831,11.722,11.7296,11.7524,11.7941,11.8501,11.8956,11.926,11.9374,11.945,11.9601,11.9715,11.9725,11.9573,11.9374,11.9308,11.945,11.9563,11.9601,11.9744,11.9905,11.9943,11.9943,11.9943,11.9943,11.9981,11.9981,12.0057,12.0465,12.1186,12.187,12.2638,12.3464,12.3806,12.4148,12.4633,12.4869,12.5021,12.5021,12.5021,12.5021,12.5021,12.5021,12.4991,12.4991,12.5105,12.5257,12.5523,12.5788,12.6092,12.6556,12.7352,12.8256,12.8817,12.9303,12.9607,12.998,13.0595,13.1057,13.1665,13.2234,13.3,13.3873,13.4373,13.46,13.4487,13.4525,13.4714,13.4834,13.498,13.5284,13.5625,13.6183,13.6784,13.7468,13.8152,13.8721,10.1924,10.2673,10.3467,10.3872,10.4075,10.4671,10.4901,10.4901,10.4939,10.4939,10.4939,10.4939,10.5077,10.533,10.5924,10.6367,10.7063,10.8126,10.9277,10.9823,10.9936,11.0038,11.0164,11.067,11.1239,11.1365,11.1706,11.2504,11.3312,11.3908,11.439,11.4949,11.5063,11.5101,11.5101,11.5253,11.534,11.5453,11.6099,11.6413,11.6489,11.6955,11.7296,11.7638,11.7941,11.8055,11.8055,11.8055,11.8207,11.8898,11.8936,11.8529,11.8055,11.7866,11.8055,11.8908,11.8908,11.9146,11.9526,11.9791,11.9867,11.9943,11.9943,11.9943,11.9943,11.9981,12.0085,12.0465,12.0921,12.1794,12.2571,12.3123,12.3654,12.4034,12.4603,12.4945,12.5021,12.5021,12.4877,12.4907,12.4801,12.4839,12.4945,12.5021,12.5021,12.5029,12.5105,12.5371,12.5948,12.6631,12.7421,12.8028,12.8552,12.8924,12.9531,13.0177,13.0443,13.0974,13.1399,13.2386,13.3342,13.3569,13.3645,13.3759,13.4107,13.4373,13.4563,13.4758,13.4948,13.51,13.5619,13.6183,13.6747,13.7208,13.7555,10.1064,10.1824,10.229,10.2683,10.3177,10.3974,10.433,10.4405,10.476,10.4939,10.4939,10.4939,10.4939,10.4976,10.5381,10.5886,10.6443,10.7177,10.8101,10.9163,10.9835,11.0,11.0164,11.0392,11.0582,11.0632,11.0974,11.1517,11.2466,11.3225,11.387,11.4325,11.4873,11.4987,11.5101,11.5101,11.5101,11.5215,11.5453,11.5633,11.5671,11.6023,11.6289,11.6727,11.7182,11.742,11.7344,11.7382,11.7666,11.7817,11.7655,11.7362,11.7372,11.742,11.7572,11.7941,11.8045,11.8245,11.8653,11.8994,11.9326,11.9288,11.9715,11.9867,11.9943,11.9943,11.9943,12.0057,12.0389,12.0921,12.1718,12.2354,12.2705,12.3085,12.3815,12.4337,12.427,12.3928,12.3785,12.4261,12.4375,12.4536,12.4839,12.4983,12.5021,12.5021,12.5067,12.5105,12.5674,12.6054,12.6775,12.7307,12.7762,12.8362,12.9038,12.9531,12.9835,13.0222,13.0792,13.1779,13.2424,13.25,13.2621,13.3114,13.3569,13.3842,13.4145,13.4682,13.4948,13.498,13.517,13.5689,13.6145,13.6448,13.672,10.0357,10.0989,10.1226,10.1658,10.2279,10.3101,10.3505,10.3543,10.4178,10.4394,10.4684,10.4684,10.4774,10.4939,10.5014,10.5305,10.5924,10.6367,10.6911,10.8265,10.9163,10.9709,10.9747,10.9683,10.986,11.0202,11.0644,11.1023,11.1441,11.2439,11.3263,11.3528,11.4201,11.4797,11.4835,11.4911,11.5101,11.5101,11.5101,11.5139,11.5177,11.5253,11.5481,11.5947,11.6527,11.6841,11.6879,11.6917,11.6879,11.6793,11.6413,11.6299,11.6613,11.6765,11.6944,11.7096,11.7145,11.7258,11.7524,11.8121,11.8463,11.8463,11.8918,11.9488,11.9601,11.9668,11.9744,11.9943,11.9943,12.0313,12.0911,12.1168,12.1671,12.2249,12.2942,12.3426,12.3228,12.279,12.2942,12.335,12.354,12.3806,12.4603,12.4641,12.4793,12.4983,12.4991,12.5021,12.5257,12.5561,12.6092,12.6518,12.7003,12.7496,12.821,12.8855,12.9159,12.9577,13.0291,13.1164,13.1164,13.124,13.1627,13.2196,13.2842,13.3221,13.338,13.3949,13.4449,13.4638,13.4828,13.524,13.5543,13.5695,13.5967,9.9931,10.0168,10.0913,10.134,10.1506,10.2217,10.2583,10.2597,10.2787,10.3229,10.3809,10.3923,10.4278,10.4939,10.4812,10.5001,10.5191,10.5911,10.6443,10.7063,10.7949,10.8708,10.872,10.8834,10.9315,10.986,11.005,11.0544,11.1061,11.1301,11.1923,11.2671,11.3479,11.3832,11.3973,11.458,11.4987,11.4949,11.4949,11.4949,11.5063,11.5101,11.5177,11.5367,11.5595,11.5567,11.5529,11.5453,11.5378,11.5367,11.5253,11.5367,11.5367,11.5405,11.5709,11.6213,11.6375,11.6613,11.722,11.7372,11.7534,11.76,11.7676,11.7979,11.8653,11.887,11.9136,11.9715,11.9943,11.9971,12.0237,12.0835,12.1215,12.1414,12.2002,12.2145,12.1898,12.2135,12.2495,12.2609,12.2609,12.3018,12.3616,12.3987,12.4148,12.4489,12.4755,12.4801,12.5067,12.5257,12.5561,12.5872,12.6244,12.6661,12.7383,12.8104,12.8407,12.8855,12.9607,13.0025,13.0025,13.0139,13.0564,13.1164,13.1817,13.2272,13.2614,13.3145,13.3677,13.3987,13.4335,13.4714,13.5056,13.517,13.5397,9.9907,9.9931,10.0319,10.0471,10.0585,10.1406,10.1772,10.1848,10.2241,10.2697,10.2949,10.3049,10.3481,10.4278,10.4316,10.4544,10.4963,10.5368,10.581,10.6329,10.6987,10.7291,10.7531,10.8379,10.8834,10.9277,10.9759,11.0202,11.0518,11.1011,11.1353,11.1873,11.2606,11.3024,11.3088,11.3468,11.3772,11.4212,11.4288,11.458,11.5025,11.5101,11.5063,11.5063,11.5101,11.5101,11.5063,11.5063,11.4835,11.4504,11.4797,11.5101,11.5101,11.5101,11.5188,11.5491,11.5567,11.5681,11.6071,11.6527,11.6689,11.6765,11.7193,11.759,11.7893,11.7941,11.8311,11.9098,11.9212,11.9478,11.9895,12.0275,12.0465,12.0541,12.0778,12.0816,12.0541,12.0854,12.1196,12.1642,12.1832,12.2097,12.2904,12.3047,12.3464,12.4034,12.4299,12.4498,12.4839,12.4953,12.5143,12.5257,12.5561,12.5978,12.6623,12.6973,12.7277,12.7944,12.859,12.8893,12.8931,12.8931,12.9539,13.0298,13.086,13.143,13.1855,13.2348,13.2804,13.3228,13.3835,13.4145,13.4373,13.4563,13.4904,9.9907,9.9907,9.9907,9.9907,10.003,10.0585,10.0913,10.1012,10.1534,10.1838,10.2128,10.2103,10.2645,10.3416,10.3467,10.3923,10.4506,10.4671,10.5127,10.5873,10.5962,10.5987,10.6266,10.7379,10.8252,10.8758,10.9341,10.9797,11.005,11.0582,11.0833,11.0936,11.1733,11.2203,11.2279,11.2469,11.2887,11.3365,11.3414,11.3783,11.4266,11.4304,11.4444,11.4379,11.4341,11.4368,11.4379,11.4444,11.4076,11.3517,11.4087,11.4379,11.4331,11.4266,11.4266,11.4379,11.4531,11.4732,11.4884,11.5453,11.5909,11.6023,11.6375,11.6851,11.7069,11.7079,11.7524,11.8159,11.8415,11.8643,11.9146,11.945,11.963,11.963,11.9677,11.982,11.9933,11.9943,12.0161,12.0759,12.0911,12.13,12.1879,12.2182,12.2515,12.3198,12.3502,12.3625,12.4261,12.4536,12.4688,12.4801,12.4953,12.5371,12.5674,12.591,12.6404,12.7147,12.7489,12.7762,12.7724,12.7876,12.8703,12.9463,13.007,13.0625,13.1088,13.1589,13.1855,13.2158,13.2766,13.3373,13.3607,13.3993,13.4335,9.9893,9.9907,9.9893,9.9855,9.9878,9.9969,10.0106,10.0044,10.0158,10.0661,10.124,10.1354,10.1772,10.2393,10.2569,10.3001,10.3771,10.3898,10.4392,10.4798,10.5064,10.5089,10.5203,10.6114,10.7228,10.8277,10.8644,10.9201,10.986,11.0012,11.0114,11.0214,11.0898,11.1251,11.1417,11.2101,11.2393,11.2583,11.2595,11.2659,11.2811,11.2811,11.2811,11.2811,11.2849,11.2914,11.2887,11.28,11.2659,11.2648,11.2697,11.2849,11.2762,11.2659,11.2876,11.2925,11.3441,11.3691,11.3957,11.4542,11.496,11.4998,11.5215,11.5519,11.6099,11.6261,11.6668,11.7372,11.7486,11.7562,11.7828,11.8349,11.8719,11.8822,11.8756,11.9098,11.9753,11.9895,11.9857,11.9971,12.0057,12.0351,12.1206,12.1357,12.1718,12.2296,12.26,12.298,12.3578,12.3958,12.4261,12.4489,12.4679,12.4945,12.4953,12.5265,12.5835,12.6358,12.6434,12.648,12.6442,12.7041,12.7792,12.859,12.9273,12.979,13.0322,13.086,13.1209,13.1437,13.1855,13.2417,13.288,13.3342,13.3721,9.8468,9.8483,9.8953,9.9181,9.9219,9.9703,9.9907,9.9907,9.9907,10.013,10.0334,10.041,10.0913,10.1582,10.1696,10.2165,10.2949,10.3543,10.3657,10.347,10.3936,10.4227,10.4379,10.5089,10.6114,10.7076,10.7658,10.8366,10.9125,10.9163,10.9455,10.9936,11.0316,11.0468,11.0544,11.081,11.1228,11.1619,11.1721,11.1949,11.2393,11.2534,11.2534,11.2507,11.2534,11.2534,11.2431,11.1508,11.1216,11.1607,11.1695,11.1987,11.2496,11.2534,11.2534,11.2583,11.2823,11.2948,11.2986,11.3316,11.3495,11.3571,11.3962,11.4363,11.4667,11.5236,11.5833,11.6499,11.6679,11.6879,11.7334,11.7752,11.7655,11.7238,11.7618,11.8045,11.8311,11.887,11.9136,11.9288,11.9601,12.0047,12.0379,12.0493,12.0807,12.149,12.1747,12.205,12.2676,12.2942,12.3055,12.3292,12.3882,12.4224,12.4299,12.4726,12.5333,12.5341,12.5303,12.5227,12.5417,12.6092,12.6737,12.7496,12.8324,12.8848,12.9303,12.9911,13.0374,13.0792,13.1095,13.1506,13.1886,13.2424,13.2924,9.758,9.7656,9.8164,9.8369,9.8445,9.8953,9.9371,9.9537,9.9575,9.9665,9.9893,9.9907,10.0281,10.0761,10.0837,10.1292,10.2065,10.267,10.2708,10.2317,10.2987,10.3505,10.3847,10.4354,10.5089,10.5924,10.6747,10.7531,10.8151,10.8328,10.8556,10.9189,10.9455,10.9607,10.9607,10.9873,11.0214,11.0784,11.0795,11.1087,11.1672,11.1748,11.1774,11.1774,11.1748,11.1444,11.0962,10.986,10.9531,10.9986,11.0264,11.0822,11.1558,11.1748,11.1748,11.1786,11.1976,11.2127,11.2139,11.2393,11.261,11.2659,11.3024,11.3301,11.3441,11.3924,11.458,11.534,11.5464,11.5806,11.6527,11.6907,11.6565,11.5578,11.6413,11.7096,11.721,11.7817,11.8301,11.8453,11.906,11.9516,11.963,11.9933,12.0237,12.0797,12.0873,12.1177,12.187,12.2097,12.2107,12.2428,12.2866,12.3388,12.3616,12.3996,12.4156,12.408,12.4013,12.3966,12.446,12.5097,12.5674,12.6358,12.7231,12.7838,12.8286,12.8779,12.9228,12.9645,12.9956,13.0374,13.0822,13.1354,13.1893,9.7504,9.7466,9.7557,9.758,9.7595,9.7747,9.8126,9.8711,9.8763,9.9143,9.9727,9.9817,9.9878,9.9969,10.0106,10.0471,10.114,10.133,10.1354,10.1354,10.209,10.2897,10.3543,10.3695,10.4202,10.5001,10.5911,10.6709,10.7455,10.7519,10.7569,10.7746,10.8404,10.8682,10.8682,10.9379,10.9898,10.9873,10.9873,10.9974,11.0076,11.0012,11.0012,11.0038,11.005,10.9405,10.786,10.7683,10.7784,10.7835,10.8379,10.91,10.9898,11.005,11.005,11.0126,11.0708,11.1061,11.1201,11.1824,11.2127,11.2165,11.2469,11.2519,11.2545,11.2724,11.3115,11.3718,11.3881,11.4109,11.4998,11.5605,11.5426,11.4223,11.5085,11.5985,11.6289,11.6907,11.7382,11.7562,11.8225,11.8747,11.8908,11.9222,11.9639,11.9895,12.0009,12.0275,12.1063,12.1291,12.1604,12.2078,12.2372,12.2477,12.2819,12.3123,12.2942,12.2866,12.2828,12.3093,12.3663,12.3891,12.446,12.5257,12.6092,12.6661,12.7109,12.7944,12.8316,12.8582,12.8703,12.9015,12.9615,13.0222,13.0754,9.5855,9.5969,9.641,9.6638,9.6736,9.7268,9.7709,9.7936,9.7974,9.8407,9.8991,9.9105,9.9446,9.9878,9.9907,10.0106,10.0334,10.0357,10.0334,10.0433,10.1254,10.1834,10.2138,10.267,10.3329,10.4126,10.4493,10.5366,10.6557,10.6709,10.6987,10.7443,10.7721,10.7847,10.7885,10.8139,10.8316,10.829,10.8316,10.829,10.8316,10.8316,10.8316,10.8316,10.8316,10.8012,10.7557,10.7493,10.7493,10.7493,10.7721,10.8012,10.8278,10.8316,10.829,10.8316,10.862,10.8644,10.8784,10.9403,10.9922,10.9986,11.0898,11.1619,11.1657,11.2177,11.2621,11.2849,11.2936,11.2974,11.3343,11.3571,11.3506,11.3164,11.3392,11.3897,11.445,11.4792,11.5437,11.6413,11.7286,11.7742,11.7893,11.8093,11.8511,11.9098,11.9136,11.9478,12.0161,12.0389,12.0512,12.074,12.1262,12.1604,12.1642,12.1785,12.1671,12.1908,12.1984,12.2419,12.2913,12.2875,12.3292,12.4148,12.4869,12.54,12.6122,12.7063,12.7557,12.7822,12.7944,12.799,12.8514,12.9083,12.9387,9.5019,9.5095,9.5582,9.5787,9.5863,9.644,9.6835,9.7078,9.7101,9.7534,9.8217,9.8293,9.8749,9.9475,9.9219,9.9233,9.9461,9.9499,9.9651,9.9992,10.0485,10.0951,10.1278,10.1748,10.2469,10.3177,10.3353,10.4037,10.5328,10.5696,10.6114,10.6544,10.6911,10.7063,10.7139,10.7303,10.7493,10.7493,10.7493,10.7493,10.7531,10.7493,10.7152,10.6633,10.6582,10.6607,10.6557,10.6582,10.6582,10.6582,10.6886,10.7063,10.7101,10.7329,10.7493,10.7493,10.7493,10.7493,10.7531,10.7987,10.8252,10.8303,10.9277,10.9835,10.9998,11.0632,11.1304,11.1634,11.1862,11.1683,11.1417,11.1482,11.1721,11.2051,11.2355,11.2849,11.3176,11.3301,11.3794,11.5047,11.5713,11.6358,11.6803,11.7258,11.7638,11.8159,11.8273,11.8501,11.8928,11.9364,11.9516,11.9668,12.0228,12.0721,12.0493,12.0379,12.056,12.0835,12.111,12.1461,12.1955,12.2059,12.2372,12.3169,12.3406,12.3861,12.4232,12.5173,12.6198,12.6539,12.7003,12.7155,12.7443,12.8126,12.8324,9.5019,9.5019,9.5019,9.5095,9.5057,9.5095,9.5529,9.622,9.6182,9.6698,9.7443,9.7542,9.7936,9.8535,9.7875,9.7974,9.8635,9.8687,9.9105,9.9764,9.9817,10.0357,10.1164,10.1202,10.1634,10.2355,10.2431,10.2911,10.3809,10.4557,10.4925,10.5026,10.5848,10.6253,10.6367,10.6911,10.7341,10.719,10.719,10.7303,10.7329,10.719,10.6317,10.5001,10.4887,10.4849,10.4887,10.4825,10.4825,10.4887,10.5582,10.6063,10.6139,10.6759,10.7063,10.7076,10.7139,10.7177,10.7038,10.7215,10.7303,10.7379,10.7633,10.7633,10.7936,10.848,10.9163,10.9823,11.0271,10.9899,10.8776,10.9013,10.9812,11.0586,11.1551,11.2086,11.2329,11.2355,11.2823,11.3502,11.3843,11.4439,11.5806,11.6793,11.7031,11.7296,11.7372,11.7458,11.7714,11.8273,11.8633,11.8832,11.9212,11.9563,11.8908,11.887,11.9174,11.9478,11.9715,12.0057,12.0683,12.1281,12.168,12.2069,12.2296,12.2495,12.2609,12.333,12.4498,12.5143,12.5569,12.613,12.6312,12.7063,12.7451,9.5019,9.5019,9.5019,9.5019,9.5019,9.5019,9.5171,9.5339,9.5377,9.5825,9.6585,9.6577,9.6691,9.688,9.6714,9.7078,9.7846,9.7899,9.8331,9.8991,9.9067,9.9484,10.022,10.0281,10.0737,10.1468,10.1582,10.2,10.2811,10.3709,10.4113,10.424,10.4912,10.533,10.5368,10.552,10.5671,10.5646,10.5671,10.5671,10.5495,10.4457,10.3584,10.3204,10.3166,10.3128,10.3128,10.3104,10.3104,10.3128,10.3356,10.3494,10.3494,10.3722,10.3811,10.3811,10.3836,10.3836,10.3836,10.4988,10.5671,10.576,10.6848,10.7493,10.7557,10.7683,10.7949,10.8036,10.7007,10.6209,10.5585,10.5771,10.6369,10.7299,10.8102,10.9244,11.0501,11.1239,11.1847,11.2671,11.2731,11.3088,11.3571,11.4325,11.5285,11.6223,11.6527,11.6689,11.7334,11.7562,11.7817,11.7817,11.7941,11.7951,11.7828,11.7817,11.7855,11.8093,11.8245,11.8549,11.924,11.943,11.9772,12.0845,12.1367,12.1671,12.1917,12.2305,12.3169,12.3482,12.4004,12.4565,12.4983,12.5864,12.632,9.4031,9.4031,9.4031,9.4031,9.4047,9.4351,9.4503,9.4563,9.4867,9.5323,9.5711,9.5749,9.5749,9.5749,9.5749,9.6205,9.7002,9.7025,9.7458,9.8217,9.8255,9.8649,9.9385,9.9446,9.9902,10.0661,10.0699,10.1178,10.1924,10.2518,10.296,10.3253,10.3722,10.3901,10.3901,10.3963,10.3925,10.3939,10.3939,10.3939,10.3825,10.2976,10.2445,10.2445,10.2445,10.2445,10.2445,10.2445,10.2445,10.2445,10.2445,10.2445,10.2445,10.2445,10.2445,10.2445,10.2445,10.2445,10.2445,10.3356,10.3791,10.3299,10.4254,10.4645,10.4296,10.4833,10.4871,10.4271,10.3118,10.266,10.33,10.3323,10.3872,10.51,10.5711,10.6464,10.7609,10.8448,10.9551,11.0699,11.123,11.171,11.2431,11.2974,11.3631,11.4428,11.5047,11.5247,11.5816,11.6537,11.6869,11.6841,11.631,11.6206,11.6803,11.6917,11.7107,11.7307,11.742,11.7458,11.8131,11.8225,11.8491,11.944,11.9554,11.9895,12.0921,12.112,12.1613,12.2211,12.2696,12.3274,12.3274,12.4042,12.4506,9.2588,9.2528,9.2604,9.2528,9.268,9.332,9.3563,9.3721,9.4541,9.4928,9.4731,9.4852,9.4829,9.4928,9.4905,9.5354,9.6106,9.6122,9.6623,9.7367,9.7443,9.7899,9.8597,9.8611,9.9067,9.9727,9.984,10.0281,10.1126,10.1164,10.1558,10.2255,10.2431,10.2521,10.2483,10.2483,10.2483,10.2445,10.2293,10.2241,10.2241,10.2241,10.2193,10.2241,10.2179,10.2241,10.2103,10.2217,10.2217,10.2217,10.209,10.2065,10.2028,10.2014,10.1976,10.1876,10.1938,10.2014,10.1952,10.2017,10.1548,10.0827,10.0806,10.0517,9.9932,10.0595,10.0495,9.9467,9.9185,9.9833,10.1131,10.1227,10.1765,10.3083,10.3686,10.4082,10.4364,10.5102,10.6387,10.7995,10.8928,11.0198,11.1396,11.1984,11.2317,11.2633,11.3289,11.3832,11.4022,11.4857,11.5616,11.5529,11.4705,11.4439,11.5312,11.5871,11.5958,11.6689,11.6965,11.7003,11.7182,11.7334,11.741,11.8017,11.7752,11.8055,11.8728,11.9184,11.9971,12.0436,12.1224,12.2107,12.2258,12.2533,12.2457,9.2528,9.2528,9.2528,9.2528,9.2566,9.2718,9.2794,9.2886,9.3667,9.3645,9.3136,9.3098,9.344,9.3965,9.4025,9.4503,9.5225,9.5323,9.5795,9.6486,9.6524,9.7002,9.7785,9.7823,9.8278,9.8953,9.9014,9.9385,10.013,10.022,10.0661,10.1506,10.2128,10.2445,10.2445,10.2445,10.2445,10.2369,10.1131,10.0462,10.0485,10.0462,10.0485,10.0485,10.0462,10.0462,10.0485,10.0485,10.0485,10.0485,9.9902,9.956,9.956,9.9038,9.8681,9.8658,9.8658,9.8719,9.8649,9.8585,9.8668,9.902,9.8996,9.907,9.9233,9.7222,9.5504,9.5384,9.6186,9.6988,9.7419,9.7516,9.7982,9.9173,10.0389,10.1444,10.2384,10.3821,10.4975,10.5274,10.6208,10.725,10.833,10.9644,11.0693,11.1301,11.2279,11.2747,11.2849,11.305,11.3354,11.3305,11.3088,11.3088,11.3229,11.3457,11.3821,11.4412,11.4575,11.5171,11.6071,11.6451,11.6651,11.7069,11.7231,11.7372,11.7628,11.7903,11.8131,11.8473,11.9222,11.9867,12.0465,12.1385,12.1812,9.1367,9.1345,9.1345,9.1367,9.1367,9.1367,9.1573,9.1931,9.2327,9.2273,9.1974,9.2332,9.2772,9.3168,9.3525,9.3965,9.4443,9.4867,9.5263,9.5696,9.5673,9.6152,9.6888,9.6964,9.7443,9.8202,9.824,9.8407,9.8839,9.9219,9.9636,10.0115,10.0913,10.1244,10.1258,10.1282,10.1282,10.1244,10.041,9.9907,9.9907,9.9907,9.9764,9.9408,9.9385,9.9195,9.8839,9.8839,9.8839,9.8862,9.8445,9.8179,9.8202,9.7808,9.7405,9.7002,9.6964,9.6614,9.5848,9.6074,9.6165,9.6055,9.6003,9.5488,9.4138,9.2455,9.1492,9.1538,9.223,9.2966,9.3644,9.419,9.4963,9.624,9.7582,9.8669,9.9312,10.0539,10.1683,10.2457,10.3441,10.4531,10.572,10.7182,10.8341,10.8782,10.998,11.1087,11.1835,11.1277,11.0886,11.133,11.1748,11.2051,11.2496,11.2534,11.2697,11.31,11.3149,11.3593,11.4266,11.4531,11.4721,11.5112,11.5475,11.5816,11.6299,11.6575,11.6993,11.7269,11.7893,11.8197,11.8624,11.9421,11.9649,8.9637,8.9637,8.9637,8.9616,8.9654,8.9789,9.0223,9.083,9.0695,9.0733,9.0906,9.1785,9.2224,9.2392,9.3032,9.3395,9.3563,9.4373,9.47,9.4677,9.4791,9.5225,9.5879,9.5992,9.6547,9.7329,9.7367,9.7443,9.7633,9.8278,9.862,9.8673,9.9347,9.9741,9.9764,9.9878,9.9802,9.9613,9.9551,9.9598,9.9575,9.9598,9.9295,9.8635,9.8597,9.8255,9.7618,9.758,9.758,9.758,9.7443,9.7329,9.7215,9.7086,9.6585,9.5651,9.5514,9.4775,9.3116,9.3693,9.3613,9.2424,9.2313,9.0818,8.738,8.7711,8.8194,8.8321,8.8588,8.9022,9.03,9.1314,9.2311,9.361,9.4797,9.5588,9.5744,9.6795,9.8134,9.9547,10.0605,10.1904,10.3479,10.4689,10.5438,10.5952,10.7392,10.8766,10.9686,10.9196,10.8755,10.9505,11.0226,11.0909,11.1266,11.1824,11.19,11.2154,11.2241,11.2469,11.2838,11.2876,11.2849,11.2686,11.3327,11.3908,11.4542,11.5264,11.5692,11.6223,11.6755,11.6993,11.7031,11.6803,11.6717,8.7904,8.7946,8.7946,8.7925,8.7984,8.8709,8.9109,8.9223,8.8477,0.0,0.0,9.0092,9.0792,9.1438,9.1568,9.1985,9.2756,9.2886,9.2968,9.2984,9.3645,9.4003,9.417,9.4921,9.5719,9.6425,9.6486,9.685,9.758,9.7709,9.7785,9.7884,9.8582,9.8953,9.8991,9.9575,9.9295,9.8065,9.7974,9.7974,9.7974,9.7974,9.796,9.7785,9.7785,9.7709,9.758,9.758,9.758,9.7557,9.6865,9.6167,9.5513,9.4785,9.3699,9.2191,9.2061,9.1329,8.9695,9.026,8.9951,8.8269,8.8432,8.7444,8.4834,8.5295,8.6019,8.664,8.7308,8.8032,8.8943,8.9213,8.9435,8.9654,9.1117,9.236,9.2995,9.4493,9.5841,9.6822,9.7828,9.9137,10.0789,10.1926,10.306,10.442,10.5546,10.661,10.676,10.6623,10.6716,10.7669,10.8227,10.829,10.8506,10.9037,10.9645,11.0354,11.0974,11.1683,11.2317,11.2534,11.2534,11.2279,11.2621,11.2811,11.2963,11.3267,11.3229,11.3381,11.4493,11.5519,11.5367,11.439,11.3609,8.7528,8.7528,8.7528,8.7528,0.0,8.7946,8.7371,8.6185,8.6206,8.668,8.7514,8.8365,8.8911,8.9329,8.9768,9.0455,9.1291,9.1671,9.2088,9.2544,9.2924,9.3114,9.3152,9.3927,9.4557,9.4945,9.543,9.5848,9.6288,9.6721,9.6888,9.688,9.7724,9.8141,9.8164,9.8521,9.8331,9.758,9.758,9.758,9.758,9.758,9.7367,9.6903,9.6888,0.0,0.0,0.0,0.0,0.0,0.0,0.0,0.0,9.313,0.0,8.9976,8.9109,8.7732,8.5741,8.578,8.5387,8.4086,8.4793,8.402,8.0992,8.1324,8.1842,8.2265,8.2598,8.3353,8.4546,8.5475,8.6351,8.7221,8.883,9.0013,9.0516,9.1677,9.2959,9.4095,9.5158,9.6426,9.8046,9.9133,10.0265,10.1486,10.2883,10.4175,10.4991,10.4556,10.4408,10.5286,10.6469,10.7455,10.7531,10.7873,10.829,10.8594,10.9049,10.9493,10.9936,11.0012,11.0126,11.0556,11.0962,11.1406,11.1786,11.2241,11.2534,11.2648,11.3229,11.3533,11.2633,11.2545,11.2534,8.652,8.6499,8.652,8.652,8.6462,8.5872,8.4442,8.2724,8.3466,8.4383,8.5471,8.6545,8.6994,8.7052,8.7752,8.8499,8.9269,8.9929,9.0718,9.1595,9.1899,9.2072,9.2088,9.3016,9.3449,9.3509,9.4221,9.4586,9.4601,9.537,9.5742,9.5803,9.6812,9.7306,9.7314,0.0,0.0,0.0,9.7048,9.7109,9.7109,9.7086,9.6759,9.603,9.5818,0.0,9.4807,9.4639,9.4586,9.4563,9.3873,0.0,0.0,0.0,0.0,0.0,0.0,0.0,0.0,0.0,0.0,0.0,8.0273,7.9352,7.6777,7.7019,7.7453,7.7643,7.769,7.8371,7.999,8.1563,8.2966,8.4359,8.6126,8.7298,8.7482,8.8572,8.9824,9.1235,9.2463,9.3713,9.5255,9.6374,9.7372,9.8482,9.9969,10.1627,10.3007,10.2092,10.1843,10.2823,10.4608,10.6192,10.6709,10.7025,10.7291,10.7329,10.7367,10.7595,10.7671,10.7633,10.7835,10.8379,10.9037,10.9759,11.0302,11.1076,11.1341,11.1558,11.1824,11.1558,10.9936,11.0646,11.1569,8.3079,8.3063,8.3042,8.3042,8.281,8.0006,7.9016,7.9353,7.9481,8.0796,8.298,8.4583,8.529,8.5232,8.5422,8.5872,8.6613,8.6725,8.7234,8.817,8.9658,9.032,9.0417,9.1936,9.268,9.268,9.2772,9.2832,9.287,9.3623,9.4019,9.4095,9.559,9.641,9.6311,9.493,9.4193,9.4193,9.4959,9.5384,9.5361,9.5384,9.5323,9.5171,9.4421,9.3943,9.3851,9.3228,9.2832,9.2832,9.2756,9.1643,8.9412,8.8438,8.6525,0.0,8.1101,0.0,0.0,0.0,0.0,0.0,0.0,0.0,0.0,7.3336,7.4226,7.5371,7.5357,7.5904,7.7476,7.8444,7.9056,7.9336,8.0945,8.2341,8.3185,8.5338,8.7102,8.7955,8.9473,9.1104,9.2617,9.3735,9.4994,9.6305,9.7403,9.8152,9.8568,9.8496,9.905,10.0996,10.1575,10.2803,10.4083,10.5469,10.6367,10.6481,10.6797,10.7455,10.7329,10.7329,10.7417,10.7569,10.7683,10.786,10.7911,10.8101,10.824,10.8392,10.9405,10.9645,10.8316,10.8202,10.8126,7.9721,7.9721,7.9721,7.789,7.4916,7.3757,7.3724,7.4494,7.4494,7.5944,7.8366,7.9148,7.9998,8.0873,8.1319,8.1984,8.2815,8.3746,8.4859,8.6129,8.738,8.8173,8.8646,8.9886,9.0705,9.1117,9.1573,9.205,9.2528,9.2908,9.3076,9.3076,9.3775,9.3905,9.3367,9.2646,9.2538,9.3038,9.344,9.3674,9.3652,9.3629,9.3674,9.3629,9.3228,9.3076,9.3016,9.2718,9.2278,9.1779,9.087,8.9482,8.7428,8.4843,8.2318,0.0,0.0,0.0,0.0,0.0,0.0,0.0,0.0,0.0,0.0,0.0,6.8899,7.0181,7.0572,7.1568,7.3619,7.4542,7.5422,7.6406,7.7611,7.854,7.8924,8.0837,8.2595,8.3853,8.5876,8.7803,8.9419,9.044,9.1735,9.3805,9.3275,9.3031,9.3939,9.5092,9.6374,9.8232,9.984,10.125,10.1989,10.3292,10.4178,10.4202,10.4457,10.4684,10.4684,10.4684,10.4861,10.5342,10.581,10.6241,10.6759,10.7202,10.7493,10.7455,10.7379,10.6962,10.6254,10.681,10.7493,7.5614,7.544,7.4096,7.0964,6.6873,6.7379,6.8234,6.9159,6.9179,7.0623,7.3072,7.3252,7.4148,7.5612,7.6422,7.7319,7.8444,8.0092,8.1701,8.329,8.475,8.5839,8.6633,8.7694,8.8633,8.9367,9.0012,9.0619,9.1329,9.1519,9.1654,9.1573,9.066,9.0002,8.9714,8.9924,9.0637,9.1899,9.2126,9.2316,9.2528,9.2528,9.2528,9.2528,9.2338,9.2126,9.1915,9.1747,9.1145,9.0017,8.8379,8.655,8.4583,8.0647,0.0,0.0,0.0,0.0,0.0,0.0,0.0,0.0,0.0,6.1004,6.2761,0.0,6.344,0.0,6.5486,6.7083,6.934,7.0367,0.0,0.0,7.3775,7.4267,7.4245,7.6094,7.7906,7.9321,8.1812,8.4224,8.6251,8.7242,8.8292,8.954,8.8377,8.8047,8.9988,9.1894,9.3635,9.523,9.7363,9.9158,9.9583,10.0496,10.1352,10.1958,10.23,10.2445,10.2445,10.2445,10.2635,10.3329,10.3988,10.4595,10.5228,10.5848,10.6165,10.5962,10.514,10.4356,10.4419,10.5305,10.6241,7.0132,6.9232,6.416,6.1479,6.0678,6.1174,6.2215,6.3609,6.3639,6.5044,6.7361,6.8118,6.8968,6.9919,7.066,0.0,7.3517,7.5095,7.6735,7.8459,8.1502,8.3356,8.4144,8.5722,8.6921,8.7638,8.7714,8.7832,8.7904,8.8705,8.9109,8.9029,8.5276,8.4084,8.5428,8.628,8.7841,9.0126,9.0885,9.1665,9.2468,9.2528,9.2528,9.249,9.1725,9.0944,9.0206,8.9527,8.8294,8.6592,8.5025,8.2713,7.9627,0.0,0.0,0.0,0.0,0.0,0.0,0.0,0.0,0.0,0.0,0.0,0.0,0.0,0.0,5.8637,6.0956,0.0,6.4724,6.6123,0.0,0.0,0.0,6.8661,6.8682,7.1486,7.3642,7.4363,0.0,0.0,8.3337,8.4568,8.4589,8.2893,8.3318,8.4674,8.7049,8.9031,9.072,9.1734,9.2982,9.4329,9.6056,9.6967,9.8237,10.0345,10.1791,10.2207,10.2217,10.2255,10.2369,10.2417,10.2559,10.2673,10.2735,10.2787,10.2659,10.1986,10.2217,10.2659,10.2597,10.2825,10.3115,6.2132,5.862,5.648,5.525,5.4815,5.5704,5.6729,5.7826,5.8146,5.9649,6.2003,6.191,6.2598,6.3794,6.3824,0.0,0.0,0.0,7.1622,7.363,7.7221,7.9323,8.0231,8.1817,8.2976,8.3681,8.3681,8.402,8.4546,8.4923,8.3617,8.0774,0.0,8.0241,8.1312,8.2606,8.4236,8.6205,8.7488,8.8304,8.8664,8.9193,8.9485,8.9464,8.9118,8.8508,8.7686,8.6916,8.5246,8.2582,8.0987,7.8309,0.0,0.0,0.0,0.0,0.0,0.0,0.0,0.0,0.0,0.0,0.0,5.2096,5.3682,0.0,0.0,0.0,5.6963,5.9021,6.0887,6.153,0.0,0.0,0.0,0.0,0.0,0.0,0.0,6.9643,7.2287,7.5103,7.7801,7.7553,7.7395,7.8098,7.8892,8.0345,8.2942,0.0,8.6535,8.8025,8.9992,9.1802,9.3029,9.4025,9.518,9.6872,9.7939,9.8741,9.939,9.9531,9.9531,9.9569,9.9888,10.0206,10.0229,9.9812,9.938,9.9137,9.966,10.0191,10.0229,10.1027,10.1734,5.4165,0.0,0.0,0.0,0.0,5.0685,5.1602,5.2471,5.2813,5.4114,5.596,5.5682,0.0,0.0,0.0,0.0,0.0,0.0,6.6028,6.8304,7.2296,7.4678,7.5808,7.7533,7.8783,7.9534,7.9591,7.9903,8.0435,7.8727,7.6108,7.2829,0.0,0.0,0.0,0.0,8.0022,8.2272,8.3896,8.4938,8.5383,8.6272,8.6766,8.6745,8.6519,8.5967,8.5087,8.384,8.1736,7.8555,7.6465,0.0,0.0,0.0,0.0,0.0,0.0,0.0,0.0,0.0,0.0,0.0,0.0,0.0,0.0,0.0,0.0,0.0,0.0,0.0,5.6453,5.7117,5.7821,0.0,0.0,0.0,0.0,0.0,0.0,0.0,0.0,0.0,7.0594,7.0229,7.0712,0.0,0.0,7.6282,7.8685,8.0677,8.2491,8.4083,8.6417,0.0,8.8925,9.003,9.1274,9.2545,9.3549,9.4595,9.5873,9.6309,9.6469,9.6469,9.7358,9.757,9.6591,9.6288,9.6471,9.6531,9.7116,9.7671,9.7785,9.8787,9.9774,0.0,0.0,0.0,0.0,4.5594,0.0,0.0,0.0,4.7699,4.8227,0.0,4.9711,0.0,0.0,0.0,0.0,5.4466,5.7299,0.0,0.0,6.659,6.9482,7.1029,7.3178,7.4685,7.5552,7.5514,7.5494,7.5159,6.9532,0.0,0.0,0.0,0.0,0.0,0.0,7.5046,7.8744,8.0475,8.2125,8.3551,8.4502,8.4982,8.4945,8.4244,8.3392,8.2516,8.0276,7.7666,7.4556,7.1368,0.0,0.0,0.0,0.0,0.0,0.0,0.0,0.0,0.0,0.0,0.0,0.0,0.0,0.0,0.0,0.0,0.0,0.0,0.0,0.0,5.2906,0.0,0.0,0.0,0.0,0.0,0.0,0.0,0.0,0.0,6.369,6.1563,6.3416,6.5589,6.7323,0.0,0.0,0.0,0.0,7.8807,7.9765,8.1593,8.2871,8.2973,8.4324,8.6103,8.7985,0.0,0.0,9.2164,9.3204,9.3776,9.3791,9.5085,9.5039,9.1052,9.2218,9.3731,9.3829,9.4519,9.5095,9.5209,9.581,9.6425,0.0,0.0,0.0,0.0,0.0,0.0,0.0,0.0,0.0,4.4803,4.554,4.5379,0.0,0.0,0.0,0.0,0.0,0.0,0.0,0.0,6.0547,6.339,6.4856,6.6599,6.8118,6.932,6.932,6.7314,0.0,0.0,0.0,0.0,0.0,0.0,0.0,0.0,6.9779,7.2954,7.5113,7.6955,7.8476,7.9307,8.0032,8.0605,7.9963,7.9003,7.7808,7.5059,7.2133,0.0,0.0,0.0,0.0,0.0,0.0,0.0,0.0,0.0,0.0,0.0,0.0,0.0,0.0,0.0,0.0,0.0,0.0,0.0,0.0,0.0,0.0,0.0,5.0777,0.0,0.0,0.0,0.0,0.0,0.0,0.0,0.0,0.0,5.6893,5.9278,6.1769,6.3372,6.5685,6.7829,6.941,0.0,0.0,0.0,0.0,0.0,0.0,0.0,8.2973,8.4274,8.5405,8.6561,8.7794,8.8918,8.96,8.9659,0.0,0.0,8.8149,8.8736,8.9981,9.1086,9.1535,9.1747,9.1768,9.2826,9.3835,0.0,0.0,0.0,0.0,0.0,0.0,0.0,0.0,0.0,4.1386,4.1789,0.0,0.0,0.0,0.0,0.0,0.0,0.0,0.0,0.0,0.0,0.0,5.8813,6.0571,0.0,0.0,0.0,0.0,0.0,0.0,0.0,0.0,0.0,0.0,0.0,0.0,6.4393,6.7268,6.9986,7.2085,7.3647,7.4463,7.5185,7.5775,7.4991,7.3998,7.2767,0.0,0.0,0.0,0.0,0.0,0.0,0.0,0.0,0.0,0.0,0.0,0.0,0.0,0.0,0.0,0.0,0.0,0.0,0.0,0.0,0.0,0.0,0.0,0.0,0.0,4.8003,0.0,0.0,0.0,0.0,0.0,0.0,0.0,0.0,0.0,0.0,5.5875,5.8191,5.9608,6.1733,6.3722,6.5277,6.7609,6.9668,0.0,0.0,0.0,0.0,0.0,0.0,0.0,0.0,0.0,0.0,0.0,0.0,0.0,0.0,8.4976,8.3351,8.4336,8.5865,8.7254,0.0,0.0,0.0,0.0,0.0,0.0,0.0,0.0,0.0,0.0,0.0,0.0,0.0,0.0,0.0,3.7687,0.0,0.0,3.7781,0.0,0.0,0.0,0.0,0.0,0.0,0.0,0.0,0.0,0.0,0.0,0.0,0.0,0.0,0.0,0.0,0.0,0.0,0.0,0.0,0.0,0.0,5.8961,6.1902,6.5226,6.7626,6.9233,7.0135,7.057,7.06,6.9529,6.8535,6.7749,0.0,0.0,0.0,0.0,0.0,0.0,0.0,0.0,0.0,0.0,0.0,0.0,0.0,0.0,0.0,0.0,0.0,0.0,0.0,0.0,0.0,0.0,0.0,0.0,0.0,0.0,4.5396,4.6339,4.7509,0.0,0.0,0.0,0.0,0.0,0.0,0.0,0.0,0.0,5.5991,5.8371,6.057,6.2105,6.4202,6.5958,6.6942,6.8568,7.0044,7.1066,7.2068,7.3274,0.0,0.0,0.0,0.0,0.0,0.0,0.0,0.0,0.0,0.0,0.0,0.0,0.0,0.0,0.0,0.0,0.0,0.0,0.0,0.0,0.0,0.0,0.0,0.0,0.0,0.0,0.0,0.0,0.0,0.0,0.0,0.0,0.0,0.0,0.0,0.0,0.0,0.0,0.0,0.0,0.0,0.0,0.0,0.0,0.0,0.0,0.0,0.0,0.0,0.0,0.0,0.0,0.0,0.0,5.5308,5.8428,6.0254,6.218,6.4158,6.4449,6.4936,6.5499,6.4338,6.3691,0.0,0.0,0.0,0.0,0.0,0.0,0.0,0.0,0.0,0.0,0.0,0.0,0.0,0.0,0.0,0.0,0.0,0.0,0.0,0.0,0.0,0.0,0.0,0.0,0.0,0.0,0.0,0.0,4.5396,4.6131,4.6911,0.0,0.0,0.0,0.0,0.0,0.0,0.0,0.0,0.0,0.0,5.7803,5.8982,6.0621,6.2606,6.5089,6.588,6.695,6.8947,7.0568,7.1623,7.1737,0.0,0.0,0.0,0.0,0.0,0.0,0.0,0.0,0.0,0.0,0.0,0.0,0.0,0.0,0.0,0.0,0.0,0.0,0.0,0.0,0.0,0.0,0.0,0.0,0.0,0.0,0.0,0.0,0.0,0.0,0.0,0.0,0.0,0.0,0.0,0.0,0.0,0.0,0.0,0.0,0.0,0.0,0.0,0.0,0.0,0.0,0.0,0.0,0.0,0.0,0.0,0.0,0.0,5.2199,5.4914,5.6775,5.8541,6.0147,6.0469,6.0739,6.1042,5.9591,5.8716,0.0,0.0,0.0,0.0,0.0,0.0,0.0,0.0,0.0,0.0,0.0,0.0,0.0,0.0,0.0,0.0,0.0,0.0,0.0,0.0,0.0,0.0,0.0,0.0,0.0,0.0,0.0,0.0,4.3863,4.4642,4.5516,0.0,0.0,0.0,0.0,0.0,0.0,0.0,0.0,0.0,0.0,5.5362,5.6455,5.8058,0.0,0.0,6.2615,6.3744,6.5602,6.7123,6.8171,6.8476,6.9151,0.0,0.0,0.0,0.0,0.0,0.0,0.0,0.0,0.0,0.0,0.0,0.0,0.0,0.0,0.0,0.0,0.0,0.0,0.0,0.0,0.0,0.0,0.0,0.0,0.0,0.0,0.0,0.0,0.0,0.0,0.0,0.0,0.0,0.0,0.0,0.0,0.0,0.0,0.0,0.0,0.0,0.0,0.0,0.0,0.0,0.0,0.0,0.0,0.0,0.0,0.0,0.0,4.9585,5.1569,5.44,5.6223,5.707,5.7688,5.7694,5.7103,5.5353,5.3976,0.0,0.0,0.0,0.0,0.0,0.0,0.0,0.0,0.0,0.0,0.0,0.0,0.0,0.0,0.0,0.0,0.0,0.0,0.0,0.0,0.0,0.0,0.0,0.0,0.0,0.0,0.0,0.0,0.0,0.0,0.0,0.0,0.0,0.0,0.0,0.0,0.0,0.0,0.0,0.0,0.0,5.339,5.4463,5.6272,5.7493,0.0,5.9091,6.0563,6.1544,6.2461,6.3615,6.5342,0.0,0.0,0.0,0.0,0.0,0.0,0.0,0.0,0.0,0.0,0.0,0.0,0.0,0.0,0.0,0.0,0.0,0.0,0.0,0.0,0.0,0.0,0.0,0.0,0.0,0.0,0.0,0.0,0.0,0.0,0.0,0.0,0.0,0.0,0.0,0.0,0.0,0.0,0.0,0.0,0.0,0.0,0.0,0.0,0.0,0.0,0.0,0.0,0.0,0.0,0.0,0.0,0.0,0.0,5.0057,5.1689,5.3245,5.4638,5.4489,5.4509,5.4705,5.3094,0.0,0.0,0.0,0.0,0.0,0.0,0.0,0.0,0.0,0.0,0.0,0.0,0.0,0.0,0.0,0.0,0.0,0.0,0.0,0.0,0.0,0.0,0.0,0.0,0.0,0.0,0.0,3.8698,0.0,0.0,0.0,0.0,0.0,0.0,0.0,0.0,0.0,0.0,0.0,0.0,0.0,0.0,5.1985,5.2693,5.3939,5.5234,0.0,0.0,5.8394,5.997,6.0872,6.1647,0.0,0.0,0.0,0.0,0.0,0.0,0.0,0.0,0.0,0.0,0.0,0.0,0.0,0.0,0.0,0.0,0.0,0.0,0.0,0.0,0.0,0.0,0.0,0.0,0.0,0.0,0.0,0.0,0.0,0.0,0.0,0.0,0.0,0.0,0.0,0.0,0.0,0.0,0.0,0.0,0.0,0.0,0.0,0.0,0.0,0.0,0.0,0.0,0.0,0.0,0.0,0.0,0.0,0.0,4.7249,4.9206,5.0609,5.1869,5.3037,5.3071,5.3071,5.3069,5.1726,5.0504,0.0,0.0,0.0,0.0,0.0,0.0,0.0,0.0,0.0,0.0,0.0,0.0,0.0,0.0,0.0,0.0,0.0,0.0,0.0,0.0,0.0,0.0,0.0,0.0,0.0,0.0,0.0,0.0,0.0,0.0,0.0,0.0,0.0,0.0,0.0,0.0,0.0,0.0,0.0,0.0,0.0,0.0,5.1317,5.2382,0.0,0.0,0.0,5.6115,5.717,0.0,0.0,0.0,0.0,0.0,0.0,0.0,0.0,0.0,0.0,0.0,0.0,0.0,0.0,0.0,0.0,0.0,0.0,0.0,0.0,0.0,0.0,0.0,0.0,0.0,0.0,0.0,0.0,0.0,0.0,0.0,0.0,0.0,0.0,0.0,0.0,0.0,0.0,0.0,0.0,0.0,0.0,0.0,0.0,0.0,0.0,0.0,0.0,0.0,0.0,0.0,0.0,0.0,0.0,0.0,0.0,0.0,4.8496,5.0238,5.1375,5.1979,5.2577,5.2583,5.2005,5.0991,4.9606,0.0,0.0,0.0,0.0,0.0,0.0,0.0,0.0,0.0,0.0,0.0,0.0,0.0,0.0,0.0,0.0,0.0,0.0,0.0,0.0,0.0,0.0,0.0,0.0,0.0,0.0,0.0,0.0,0.0,0.0,0.0,0.0,0.0,0.0,0.0,0.0,0.0,0.0,0.0,0.0,0.0,4.9068,5.0074,5.1135,5.1797,0.0,0.0,5.3863,5.3922,5.5278,0.0,0.0,0.0,0.0,0.0,0.0,0.0,0.0,0.0,0.0,0.0,0.0,0.0,0.0,0.0,0.0,0.0,0.0,0.0,0.0,0.0,0.0,0.0,0.0,0.0,0.0,0.0,0.0,0.0,0.0,0.0,0.0,0.0,0.0,0.0,0.0,0.0,0.0,0.0,0.0,0.0,0.0,0.0,0.0,0.0,0.0,0.0,0.0,0.0,0.0,0.0,0.0,0.0,0.0,0.0,0.0,4.6799,4.885,5.0434,5.1421,5.1596,5.1596,5.1447,5.0337,4.8943,0.0,0.0,0.0,0.0,0.0,0.0,0.0,0.0,0.0,0.0,0.0,0.0,0.0,0.0,0.0,0.0,0.0,0.0,0.0,0.0,0.0,0.0,0.0,0.0,0.0,0.0,0.0,0.0,0.0,0.0,0.0,0.0,0.0,0.0,0.0,0.0,0.0,0.0,0.0,0.0,0.0,4.8112,4.8346,4.9332,0.0,0.0,0.0,0.0,5.2127,5.3047,0.0,0.0,0.0,0.0,0.0,0.0,0.0,0.0,0.0,0.0,0.0,0.0,0.0,0.0,0.0,0.0,0.0,0.0,0.0,0.0,0.0,0.0,0.0,0.0,0.0,0.0,0.0,0.0,0.0,0.0,0.0,0.0,0.0,0.0,0.0,0.0,0.0,0.0,0.0,0.0,0.0,0.0,0.0,0.0,0.0,0.0,0.0,0.0,0.0,0.0,0.0,0.0,0.0,0.0,0.0,0.0,4.6227,4.7889,4.928,5.0434,5.0441,5.0486,5.046,4.9332,4.8208,0.0,0.0,0.0,0.0,0.0,0.0,0.0,0.0,0.0,0.0,0.0,0.0,0.0,0.0,0.0,0.0,0.0,0.0,0.0,0.0,0.0,0.0,0.0,0.0,0.0,0.0,0.0,0.0,0.0,0.0,0.0,0.0,0.0,0.0,0.0,0.0,0.0,0.0,0.0,0.0,4.5716,4.6737,4.7032,0.0,0.0,0.0,0.0,0.0,0.0,5.1626,5.2385,0.0,0.0,0.0,0.0,0.0,0.0,0.0,0.0,0.0,0.0,0.0,0.0,0.0,0.0,0.0,0.0,0.0,0.0,0.0,0.0,0.0,0.0,0.0,0.0,0.0,0.0,0.0,0.0,0.0,0.0,0.0,0.0,0.0,0.0,0.0,0.0,0.0,0.0,0.0,0.0,0.0,0.0,0.0,0.0,0.0,0.0,0.0,0.0,0.0,0.0,0.0,0.0,0.0,0.0,0.0,4.5811,4.7144,4.8266,4.9273,4.9462,4.9532,4.9402,4.8361,4.742,4.659,0.0,0.0,0.0,0.0,0.0,0.0,0.0,0.0,0.0,0.0,0.0,0.0,0.0,0.0,0.0,0.0,0.0,0.0,0.0,0.0,0.0,0.0,0.0,0.0,0.0,0.0,0.0,0.0,0.0,0.0,0.0,0.0,0.0,0.0,0.0,0.0,0.0,0.0,0.0,4.4728,4.5396,0.0,0.0,0.0,0.0,0.0,0.0,0.0,0.0,5.0949,0.0,0.0,0.0,0.0,0.0,0.0,0.0,0.0,0.0,0.0,0.0,0.0,0.0,0.0,0.0,0.0,0.0,0.0,0.0,0.0,0.0,0.0,0.0,0.0,0.0,0.0,0.0,0.0,0.0,0.0,0.0,0.0,0.0,0.0,0.0,0.0,0.0,0.0,0.0,0.0,0.0,0.0,0.0,0.0,0.0,0.0,0.0,0.0,0.0,0.0,0.0,0.0,0.0,0.0,0.0,0.0,4.6494,4.7895,4.8102,4.9054,4.9369,4.8912,4.819,4.691,4.4953,0.0,0.0,0.0,0.0,0.0,0.0,0.0,0.0,0.0,0.0,0.0,0.0,0.0,0.0,0.0,0.0,0.0,0.0,0.0,0.0,0.0,0.0,0.0,0.0,0.0,0.0,0.0,0.0,0.0,0.0,0.0,0.0,0.0,0.0,0.0,0.0,0.0,0.0,4.2218,4.3685,0.0,0.0,0.0,0.0,0.0,0.0,0.0,0.0,4.7986,0.0,0.0,0.0,0.0,0.0,0.0,0.0,0.0,0.0,0.0,0.0,0.0,0.0,0.0,0.0,0.0,0.0,0.0,0.0,0.0,0.0,0.0,0.0,0.0,0.0,0.0,0.0,0.0,0.0,0.0,0.0,0.0,0.0,0.0,0.0,0.0,0.0,0.0,0.0,0.0,0.0,0.0,0.0,0.0,0.0,0.0,0.0,0.0,0.0,0.0,0.0,0.0,0.0,0.0,0.0,0.0,0.0,0.0,4.6356,4.698,4.7525,4.7673,4.7431,4.6556,4.5283,0.0,0.0,0.0,0.0,0.0,0.0,0.0,0.0,0.0,0.0,0.0,0.0,0.0,0.0,0.0,0.0,0.0,0.0,0.0,0.0,0.0,0.0,0.0,0.0,0.0,0.0,0.0,0.0,0.0,0.0,0.0,0.0,0.0,0.0,0.0,0.0,0.0,0.0,0.0,0.0,0.0,0.0,0.0,0.0,0.0,0.0,0.0,0.0,0.0,0.0,0.0,0.0,0.0,0.0,0.0,0.0,0.0,0.0,0.0,0.0,0.0,0.0,0.0,0.0,0.0,0.0,0.0,0.0,0.0,0.0,0.0,0.0,0.0,0.0,0.0,0.0,0.0,0.0,0.0,0.0,0.0,0.0,0.0,0.0,0.0,0.0,0.0,0.0,0.0,0.0,0.0,0.0,0.0,0.0,0.0,0.0,0.0,0.0,0.0,0.0,0.0,0.0,0.0,0.0,0.0,0.0,0.0,0.0,4.4839,4.588,4.6123,4.6279,4.627,4.4804,4.3454,0.0,0.0,0.0,0.0,0.0,0.0,0.0,0.0,0.0,0.0,0.0,0.0,0.0,0.0,0.0,0.0,0.0,0.0,0.0,0.0,0.0,0.0,0.0,0.0,0.0,0.0,0.0,0.0,0.0,0.0,0.0,0.0,0.0,0.0,0.0,0.0,0.0,0.0,0.0,0.0,0.0,0.0,0.0,0.0,0.0,0.0,0.0,0.0,4.5629,0.0,0.0,0.0,0.0,0.0,0.0,0.0,0.0,0.0,0.0,0.0,0.0,0.0,0.0,0.0,0.0,0.0,0.0,0.0,0.0,0.0,0.0,0.0,0.0,0.0,0.0,0.0,0.0,0.0,0.0,0.0,0.0,0.0,0.0,0.0,0.0,0.0,0.0,0.0,0.0,0.0,0.0,0.0,0.0,0.0,0.0,0.0,0.0,0.0,0.0,0.0,0.0,0.0,0.0,0.0,0.0,0.0,0.0,0.0,4.3967,4.4683,4.5707,4.6253,4.6201,4.3643,4.1911,0.0,0.0,0.0,0.0,0.0,0.0,0.0,0.0,0.0,0.0,0.0,0.0,0.0,0.0,0.0,0.0,0.0,0.0,0.0,0.0,0.0,0.0,0.0,0.0,0.0,0.0,0.0,0.0,0.0,0.0,0.0,0.0,0.0,0.0,0.0,0.0,0.0,0.0,0.0,0.0,0.0,0.0,0.0,0.0,0.0,0.0,0.0,0.0,0.0,0.0,0.0,0.0,0.0,0.0,0.0,0.0,0.0,0.0,0.0,0.0,0.0,0.0,0.0,0.0,0.0,0.0,0.0,0.0,0.0,0.0,0.0,0.0,0.0,0.0,0.0,0.0,0.0,0.0,0.0,0.0,0.0,0.0,0.0,0.0,0.0,0.0,0.0,0.0,0.0,0.0,0.0,0.0,0.0,0.0,0.0,0.0,0.0,0.0,0.0,0.0,0.0,0.0,0.0,0.0,0.0,0.0,0.0,0.0,4.2383,4.3035,4.3792,4.4234,4.4251,4.2431,4.1167,0.0,0.0,0.0,0.0,0.0,0.0,0.0,0.0,0.0,0.0,0.0,0.0,0.0,0.0,0.0,0.0,0.0,0.0,0.0,0.0,0.0,0.0,0.0,0.0,0.0,0.0,0.0,0.0,0.0,0.0,0.0,0.0,0.0,0.0,0.0,0.0,0.0,0.0,0.0,0.0,0.0,0.0,0.0,0.0,0.0,0.0,0.0,0.0,0.0,0.0,0.0,0.0,0.0,0.0,0.0,0.0,0.0,0.0,0.0,0.0,0.0,0.0,0.0,0.0,0.0,0.0,0.0,0.0,0.0,0.0,0.0,0.0,0.0,0.0,0.0,0.0,0.0,0.0,0.0,0.0,0.0,0.0,0.0,0.0,0.0,0.0,0.0,0.0,0.0,0.0,0.0,0.0,0.0,0.0,0.0,0.0,0.0,0.0,0.0,0.0,0.0,0.0,0.0,0.0,0.0,0.0,0.0,0.0,0.0,4.1718,4.1817,4.1864,4.1843,4.0892,4.0098,0.0,0.0,0.0,0.0,0.0,0.0,0.0,0.0,0.0,0.0,0.0,0.0,0.0,0.0,0.0,0.0,0.0,0.0,0.0,0.0,0.0,0.0,0.0,0.0,0.0,0.0,0.0,0.0,0.0,0.0,0.0,0.0,0.0,0.0,0.0,0.0,0.0,0.0,0.0,0.0,0.0,0.0,0.0,0.0,0.0,0.0,0.0,0.0,0.0,0.0,0.0,0.0,0.0,0.0,0.0,0.0,0.0,0.0,0.0,0.0,0.0,0.0,0.0,0.0,0.0,0.0,0.0,0.0,0.0,0.0,0.0,0.0,0.0,0.0,0.0,0.0,0.0,0.0,0.0,0.0,0.0,0.0,0.0,0.0,0.0,0.0,0.0,0.0,0.0,0.0,0.0,0.0,0.0,0.0,0.0,0.0,0.0,0.0,0.0,0.0,0.0,0.0,0.0,0.0,0.0,0.0,0.0,0.0,0.0,4.1059,4.0001,3.9493,3.9523,3.8937,3.8386,0.0,0.0,0.0,0.0,0.0,0.0,0.0,0.0,0.0,0.0,0.0,0.0,0.0,0.0,0.0,0.0,0.0,0.0,0.0,0.0,0.0,0.0,0.0,0.0,0.0,0.0,0.0,0.0,0.0,0.0,0.0,0.0,0.0,0.0,0.0,0.0,0.0,0.0,0.0,0.0,0.0,0.0,0.0,0.0,0.0,0.0,0.0,0.0,0.0,0.0,0.0,0.0,0.0,0.0,0.0,0.0,0.0,0.0,0.0,0.0,0.0,0.0,0.0,0.0,0.0,0.0,0.0,0.0,0.0,0.0,0.0,0.0,0.0,0.0,0.0,0.0,0.0,0.0,0.0,0.0,0.0,0.0,0.0,0.0,0.0,0.0,0.0,0.0,0.0,0.0,0.0,0.0,0.0,0.0,0.0,0.0,0.0,0.0,0.0,0.0,0.0,0.0,0.0,0.0,0.0,0.0,0.0,0.0,0.0,3.8932,3.9159,3.9286,3.9286,3.8436,3.7907,3.7687,0.0,0.0,0.0,0.0,0.0,0.0,0.0,0.0,0.0,0.0,0.0,0.0,0.0,0.0,0.0,0.0,0.0,0.0,0.0,0.0,0.0,0.0,0.0,0.0,0.0,0.0,0.0,0.0,0.0,0.0,0.0,0.0,0.0,0.0,0.0,0.0,0.0,0.0,0.0,0.0,0.0,0.0,0.0,0.0,0.0,0.0,0.0,0.0,0.0,0.0,0.0,0.0,0.0,0.0,0.0,0.0,0.0,0.0,0.0,0.0,0.0,0.0,0.0,0.0,0.0,0.0,0.0,0.0,0.0,0.0,0.0,0.0,0.0,0.0,0.0,0.0,0.0,0.0,0.0,0.0,0.0,0.0,0.0,0.0,0.0,0.0,0.0,0.0,0.0,0.0,0.0,0.0,0.0,0.0,0.0,0.0,0.0,0.0,0.0,0.0,0.0,0.0,0.0,0.0,0.0,0.0,0.0,0.0,3.7399,3.815,3.8496,3.8456,3.7786,3.7215,0.0,0.0,0.0,0.0,0.0,0.0,0.0,0.0,0.0,0.0,0.0,0.0,0.0,0.0,0.0,0.0,0.0,0.0,0.0,0.0,0.0,0.0,0.0,0.0,0.0,0.0,0.0,0.0,0.0,0.0,0.0,0.0,0.0,0.0,0.0,0.0,0.0,0.0,0.0,0.0,0.0,0.0,0.0,0.0,0.0,0.0,0.0,0.0,0.0,0.0,0.0,0.0,0.0,0.0,0.0,0.0,0.0,0.0,0.0,0.0,0.0,0.0,0.0,0.0,0.0,0.0,0.0,0.0,0.0,0.0,0.0,0.0,0.0,0.0,0.0,0.0,0.0,0.0,0.0,0.0,0.0,0.0,0.0,0.0,0.0,0.0,0.0,0.0,0.0,0.0,0.0,0.0,0.0,0.0,0.0,0.0,0.0,0.0,0.0,0.0,0.0,0.0,0.0,0.0,0.0,0.0,0.0,0.0,3.559,3.668,3.6786,3.6822,3.6758,3.6758,3.62,0.0,0.0,0.0,0.0,0.0,0.0,0.0,0.0,0.0,0.0,0.0,0.0,0.0,0.0,0.0,0.0,0.0,0.0,0.0,0.0,0.0,0.0,0.0,0.0,0.0,0.0,0.0,0.0,0.0,0.0,0.0,0.0,0.0,0.0,0.0,0.0,0.0,0.0,0.0,0.0,0.0,0.0,0.0,0.0,0.0,0.0,0.0,0.0,0.0,0.0,0.0,0.0,0.0,0.0,0.0,0.0,0.0,0.0,0.0,0.0,0.0,0.0,0.0,0.0,0.0,0.0,0.0,0.0,0.0,0.0,0.0,0.0,0.0,0.0,0.0,0.0,0.0,0.0,0.0,0.0,0.0,0.0,0.0,0.0,0.0,0.0,0.0,0.0,0.0,0.0,0.0,0.0,0.0,0.0,0.0,0.0,0.0,0.0,0.0,0.0,0.0,0.0,0.0,0.0,0.0,0.0,0.0,0.0,0.0,3.554,0.0,3.6202,0.0,3.5771,3.5369,0.0,0.0,0.0,0.0,0.0,0.0,0.0,0.0,0.0,0.0,0.0,0.0,0.0,0.0,0.0,0.0,0.0,0.0,0.0,0.0,0.0,0.0,0.0,0.0,0.0,0.0,0.0,0.0,0.0,0.0,0.0,0.0,0.0,0.0,0.0,0.0,0.0,0.0,0.0,0.0,0.0,0.0,0.0,0.0,0.0,0.0,0.0,0.0,0.0,0.0,0.0,0.0,0.0,0.0,0.0,0.0,0.0,0.0,0.0,0.0,0.0,0.0,0.0,0.0,0.0,0.0,0.0,0.0,0.0,0.0,0.0,0.0,0.0,0.0,0.0,0.0,0.0,0.0,0.0,0.0,0.0,0.0,0.0,0.0,0.0,0.0,0.0,0.0,0.0,0.0,0.0,0.0,0.0,0.0,0.0,0.0,0.0,0.0,0.0,0.0,0.0,0.0,0.0,0.0,0.0,0.0,0.0,0.0,0.0,3.4709,3.5319,3.5604,3.5591,3.5188,3.4916,0.0,0.0,0.0,0.0,0.0,0.0,0.0,0.0,0.0,0.0,0.0,0.0,0.0,0.0,0.0,0.0,0.0,0.0,0.0,0.0,0.0,0.0,0.0,0.0,0.0,0.0,0.0,0.0,0.0,0.0,0.0,0.0,0.0,0.0,0.0,0.0,0.0,0.0,0.0,0.0,0.0,0.0,0.0,0.0,0.0,0.0,0.0,0.0,0.0,0.0,0.0,0.0,0.0,0.0,0.0,0.0,0.0,0.0,0.0,0.0,0.0,0.0,0.0,0.0,0.0,0.0,0.0,0.0,0.0,0.0,0.0,0.0,0.0,0.0,0.0,0.0,0.0,0.0,0.0,0.0,0.0,0.0,0.0,0.0,0.0,0.0,0.0,0.0,0.0,0.0,0.0,0.0,0.0,0.0,0.0,0.0,0.0,0.0,0.0,0.0,0.0,0.0,0.0,0.0,0.0,0.0,0.0,0.0,0.0,3.4228,3.4709,3.4955,3.4955,3.4942,3.4735,0.0,0.0,0.0,0.0,0.0,0.0,0.0,0.0,0.0,0.0,0.0,0.0,0.0,0.0,0.0,0.0,0.0,0.0,0.0,0.0,0.0,0.0,0.0,0.0,0.0,0.0,0.0,0.0,0.0,0.0,0.0,0.0,0.0,0.0,0.0,0.0,0.0,0.0,0.0,0.0,0.0,0.0,0.0,0.0,0.0,0.0,0.0,0.0,0.0,0.0,0.0,0.0,0.0,0.0,0.0,0.0,0.0,0.0,0.0,0.0,0.0,0.0,0.0,0.0,0.0,0.0,0.0,0.0,0.0,0.0,0.0,0.0,0.0,0.0,0.0,0.0,0.0,0.0,0.0,0.0,0.0,0.0,0.0,0.0,0.0,0.0,0.0,0.0,0.0,0.0,0.0,0.0,0.0,0.0,0.0,0.0,0.0,0.0,0.0,0.0,0.0,0.0,0.0,0.0,0.0,0.0,0.0,0.0,0.0,0.0,3.4358,3.4436,3.4397,3.441,3.4384,3.4215,0.0,0.0,0.0,0.0,0.0,0.0,0.0,0.0,0.0,0.0,0.0,0.0,0.0,0.0,0.0,0.0,0.0,0.0,0.0,0.0,0.0,0.0,0.0,0.0,0.0,0.0,0.0,0.0,0.0,0.0,0.0,0.0,0.0,0.0,0.0,0.0,0.0,0.0,0.0,0.0,0.0,0.0,0.0,0.0,0.0,0.0,0.0,0.0,0.0,0.0,0.0,0.0,0.0,0.0,0.0,0.0,0.0,0.0,0.0,0.0,0.0,0.0,0.0,0.0,0.0,0.0,0.0,0.0,0.0,0.0,0.0,0.0,0.0,0.0,0.0,0.0,0.0,0.0,0.0,0.0,0.0,0.0,0.0,0.0,0.0,0.0,0.0,0.0,0.0,0.0,0.0,0.0,0.0,0.0,0.0,0.0,0.0,0.0,0.0,0.0,0.0,0.0,0.0,0.0,0.0,0.0,0.0,0.0,0.0,0.0,3.3488,3.35,3.3488,3.3475,0.0,0.0,0.0,0.0,0.0,0.0,0.0,0.0,0.0,0.0,0.0,0.0,0.0,0.0,0.0,0.0,0.0,0.0,0.0,0.0,0.0,0.0,0.0,0.0,0.0,0.0,0.0,0.0,0.0,0.0,0.0,0.0,0.0,0.0,0.0,0.0,0.0,0.0,0.0,0.0,0.0,0.0,0.0,0.0,0.0,0.0,0.0,0.0,0.0,0.0,0.0,0.0,0.0,0.0,0.0,0.0,0.0,0.0,0.0,0.0,0.0,0.0,0.0,0.0,0.0,0.0,0.0,0.0,0.0,0.0,0.0,0.0,0.0,0.0,0.0,0.0,0.0,0.0,0.0,0.0,0.0,0.0,0.0,0.0,0.0,0.0,0.0,0.0,0.0,0.0,0.0,0.0,0.0,0.0,0.0,0.0,0.0,0.0,0.0,0.0,0.0,0.0,0.0,0.0,0.0,0.0,0.0,0.0,0.0,0.0,0.0,3.2438,3.2438,3.2464,0.0,3.2488,0.0,0.0,0.0,0.0,0.0,0.0,0.0,0.0,0.0,0.0,0.0,0.0,0.0,0.0,0.0,0.0,0.0,0.0,0.0,0.0,0.0,0.0,0.0,0.0,0.0,0.0,0.0,0.0,0.0,0.0,0.0,0.0,0.0,0.0,0.0,0.0,0.0,0.0,0.0,0.0,0.0,0.0,0.0,0.0,0.0,0.0,0.0,0.0,0.0,0.0,0.0,0.0,0.0,0.0,0.0,0.0,0.0,0.0,0.0,0.0,0.0,0.0,0.0,0.0,0.0,0.0,0.0,0.0,0.0,0.0,0.0,0.0,0.0,0.0,0.0,0.0,0.0,0.0,0.0,0.0,0.0,0.0,0.0,0.0,0.0,0.0,0.0,0.0,0.0,0.0,0.0,0.0,0.0,0.0,0.0,0.0,0.0,0.0,0.0,0.0,0.0,0.0,0.0,0.0,0.0,0.0,0.0,0.0,0.0,0.0,0.0,0.0,3.2438,3.2438,3.2438,0.0,0.0,0.0,0.0,0.0,0.0,0.0,0.0,0.0,0.0,0.0,0.0,0.0,0.0,0.0,0.0,0.0,0.0,0.0,0.0,0.0,0.0,0.0,0.0,0.0,0.0,0.0,0.0,0.0,0.0,0.0,0.0,0.0,0.0,0.0,0.0,0.0,0.0,0.0,0.0,0.0,0.0,0.0,0.0,0.0,0.0,0.0,0.0,0.0,0.0,0.0,0.0,0.0,0.0,0.0,0.0,0.0,0.0,0.0,0.0,0.0,0.0,0.0,0.0,0.0,0.0,0.0,0.0,0.0,0.0,0.0,0.0,0.0,0.0,0.0,0.0,0.0,0.0,0.0,0.0,0.0,0.0,0.0,0.0,0.0,0.0,0.0,0.0,0.0,0.0,0.0,0.0,0.0,0.0,0.0,0.0,0.0,0.0,0.0,0.0,0.0,0.0,0.0,0.0,0.0,0.0,0.0,0.0,0.0,0.0,3.166,3.1672,3.1648,3.1686,3.1686,0.0,0.0,0.0,0.0,0.0,0.0,0.0,0.0,0.0,0.0,0.0,0.0,0.0,0.0,0.0,0.0,0.0,0.0,0.0,0.0,0.0,0.0,0.0,0.0,0.0,0.0,0.0,0.0,0.0,0.0,0.0,0.0,0.0,0.0,0.0,0.0,0.0,0.0,0.0,0.0,0.0,0.0,0.0,0.0,0.0,0.0,0.0,0.0,0.0,0.0,0.0,0.0,0.0,0.0,0.0,0.0,0.0,0.0,0.0,0.0,0.0,0.0,0.0,0.0,0.0,0.0,0.0,0.0,0.0,0.0,0.0,0.0,0.0,0.0,0.0,0.0,0.0,0.0,0.0,0.0,0.0,0.0,0.0,0.0,0.0,0.0,0.0,0.0,0.0,0.0,0.0,0.0,0.0,0.0,0.0,0.0,0.0,0.0,0.0,0.0,0.0,0.0,0.0,0.0,0.0,0.0,0.0,0.0,0.0,0.0,0.0,0.0,0.0,0.0,3.074,0.0,0.0,0.0,0.0,0.0,0.0,0.0,0.0,0.0,0.0,0.0,0.0,0.0,0.0,0.0,0.0,0.0,0.0,0.0,0.0,0.0,0.0,0.0,0.0,0.0,0.0,0.0,0.0,0.0,0.0,0.0,0.0,0.0,0.0,0.0,0.0,0.0,0.0,0.0,0.0,0.0,0.0,0.0,0.0,0.0,0.0,0.0,0.0,0.0,0.0,0.0,0.0,0.0,0.0,0.0,0.0,0.0,0.0,0.0,0.0,0.0,0.0,0.0,0.0,0.0,0.0,0.0,0.0,0.0,0.0,0.0,0.0,0.0,0.0,0.0,0.0,0.0,0.0,0.0,0.0,0.0,0.0,0.0,0.0,0.0,0.0,0.0,0.0,0.0,0.0,0.0,0.0,0.0,0.0,0.0,0.0,0.0,0.0,0.0,0.0,0.0,0.0,0.0,0.0,0.0,0.0,0.0,0.0,0.0,0.0,0.0,0.0,0.0,0.0,0.0,0.0,0.0,0.0,0.0,0.0,0.0,0.0,0.0,0.0,0.0,0.0,0.0,0.0,0.0,0.0,0.0,0.0,0.0,0.0,0.0,0.0,0.0,0.0,0.0,0.0,0.0,0.0,0.0,0.0,0.0,0.0,0.0,0.0,0.0,0.0,0.0,0.0,0.0,0.0,0.0,0.0,0.0,0.0,0.0,0.0,0.0,0.0,0.0,0.0,0.0,0.0,0.0,0.0,0.0,0.0,0.0,0.0,0.0,0.0,0.0,0.0,0.0,0.0,0.0,0.0,0.0,0.0,0.0,0.0,0.0,0.0,0.0,0.0,0.0,0.0,0.0,0.0,0.0,0.0,0.0,0.0,0.0,0.0,0.0,0.0,0.0,0.0,0.0,0.0,0.0,0.0,0.0,0.0,0.0,0.0,0.0,0.0,0.0,0.0,0.0,0.0,0.0,0.0,0.0,0.0,0.0,0.0,0.0,0.0,0.0,0.0,0.0,0.0,0.0,0.0,0.0,0.0,0.0,0.0,0.0,0.0,0.0,0.0,0.0,0.0,0.0,0.0,0.0,0.0,0.0,0.0,0.0,0.0,0.0,0.0,0.0,0.0,0.0,0.0,0.0,0.0,0.0,0.0,0.0,0.0,0.0,0.0,0.0,0.0,0.0,0.0,0.0,0.0,0.0,0.0,0.0,0.0,0.0,0.0,0.0,0.0,0.0,0.0,0.0,0.0,0.0,0.0,0.0,0.0,0.0,0.0,0.0,0.0,0.0,0.0,0.0,0.0,0.0,0.0,0.0,0.0,0.0,0.0,0.0,0.0,0.0,0.0,0.0,0.0,0.0,0.0,0.0,0.0,0.0,0.0,0.0,0.0,0.0,0.0,0.0,0.0,0.0,0.0,0.0,0.0,0.0,0.0,0.0,0.0,0.0,0.0,0.0,0.0,0.0,0.0,0.0,0.0,0.0,0.0,0.0,0.0,0.0,0.0,0.0,0.0,0.0,0.0,0.0,0.0,0.0,0.0,0.0,0.0,0.0,0.0,0.0,0.0,0.0,0.0,0.0,0.0,0.0,0.0,0.0,0.0,0.0,0.0,0.0,0.0,0.0,0.0,0.0,0.0,0.0,0.0,0.0,0.0,0.0,0.0,0.0,0.0,0.0,0.0,0.0,0.0,0.0,0.0,0.0,0.0,0.0,0.0,0.0,0.0,0.0,0.0,0.0,0.0,0.0,0.0,0.0,0.0,0.0,0.0,0.0,0.0,0.0,0.0,0.0,0.0,0.0,0.0,0.0,0.0,0.0,0.0,0.0,0.0,0.0,0.0,0.0,0.0,0.0,0.0,0.0,0.0,0.0,0.0,0.0,0.0,0.0,0.0,0.0,0.0,0.0,0.0,0.0,0.0,0.0,0.0,0.0,0.0,0.0,0.0,0.0,0.0,0.0,0.0,0.0,0.0,0.0,0.0,0.0,0.0,0.0,0.0,0.0,0.0,0.0,0.0,0.0,0.0,0.0,0.0,0.0,0.0,0.0,0.0,0.0,0.0,0.0,0.0,0.0,0.0,0.0,0.0,0.0,0.0,0.0,0.0,0.0,0.0,0.0,0.0,0.0,0.0,0.0,0.0,0.0,0.0,0.0,0.0,0.0,0.0,0.0,0.0,0.0,0.0,0.0,0.0,0.0,0.0,0.0,0.0,0.0,0.0,0.0,0.0,0.0,0.0,0.0,0.0,0.0,0.0,0.0,0.0,0.0,0.0,0.0,0.0,0.0,0.0,0.0,0.0,0.0,0.0,0.0,0.0,0.0,0.0,0.0,0.0,0.0,0.0,0.0,0.0,0.0,0.0,0.0,0.0,0.0,0.0,0.0,0.0,0.0,0.0,0.0,0.0,0.0,0.0,0.0,0.0,0.0,0.0,0.0,0.0,0.0,0.0,0.0,0.0,0.0,0.0,0.0,0.0,0.0,0.0,0.0,0.0,0.0,0.0,0.0,0.0,0.0,0.0,0.0,0.0,0.0,0.0,0.0,0.0,0.0,0.0,0.0,0.0,0.0,0.0,0.0,0.0,0.0,0.0,0.0,0.0,0.0,0.0,0.0,0.0,0.0,0.0,0.0,0.0,0.0,0.0,0.0,0.0,0.0,0.0,0.0,0.0,0.0,0.0,0.0,0.0,0.0,0.0,0.0,0.0,0.0,0.0,0.0,0.0,0.0,0.0,0.0,0.0,0.0,0.0,0.0,0.0,0.0,0.0,0.0,0.0,0.0,0.0,0.0,0.0,0.0,0.0,0.0,0.0,0.0,0.0,0.0,0.0,0.0,0.0,0.0,0.0,0.0,0.0,0.0,0.0,0.0,0.0,0.0,0.0,0.0,0.0,0.0,0.0,0.0,0.0,0.0,0.0,0.0,0.0,0.0,0.0,0.0,0.0,0.0,0.0,0.0,0.0,0.0,0.0,0.0,0.0,0.0,0.0,0.0,0.0,0.0,0.0,0.0,0.0,0.0,0.0,0.0,0.0,0.0,0.0,0.0,0.0,0.0,0.0,0.0,0.0,0.0,0.0,0.0,0.0,0.0,0.0,0.0,0.0,0.0,0.0,0.0,0.0,0.0,0.0,0.0,0.0,0.0,0.0,0.0,0.0,0.0,0.0,0.0,0.0,0.0,0.0,0.0,0.0,0.0,0.0,0.0,0.0,0.0,0.0,0.0,0.0,0.0,0.0,0.0,0.0,0.0,0.0,0.0,0.0,0.0,0.0,0.0,0.0,0.0,0.0,0.0,0.0,0.0,0.0,0.0,0.0,0.0,0.0,0.0,0.0,0.0,0.0,0.0,0.0,0.0,0.0,0.0,0.0,0.0,0.0,0.0,0.0,0.0,0.0,0.0,0.0,0.0,0.0,0.0,0.0,0.0,0.0,0.0,0.0,0.0,0.0,0.0,0.0,0.0,0.0,0.0,0.0,0.0,0.0,0.0,0.0,0.0,0.0,0.0,0.0,0.0,0.0,0.0,0.0,0.0,0.0,0.0,0.0,0.0,0.0,0.0,0.0,0.0,0.0,0.0,0.0,0.0,0.0,0.0,0.0,0.0,0.0,0.0,0.0,0.0,0.0,0.0,0.0,0.0,0.0,0.0,0.0,0.0,0.0,0.0,0.0,0.0,0.0,0.0,0.0,0.0,0.0,0.0,0.0,0.0,0.0,0.0,0.0,0.0,0.0,0.0,0.0,0.0,0.0,0.0,0.0,0.0,0.0,0.0,0.0,0.0,0.0,0.0,0.0,0.0,0.0,0.0,0.0,0.0,0.0,0.0,0.0,0.0,0.0,0.0,0.0,0.0,0.0,0.0,0.0,0.0,0.0,0.0,0.0,0.0,0.0,0.0,0.0,0.0,0.0,0.0,0.0,0.0,0.0,0.0,0.0,0.0,0.0,0.0,0.0,0.0,0.0,0.0,0.0,0.0,0.0,0.0,0.0,0.0,0.0,0.0,0.0,0.0,0.0,0.0,0.0,0.0,0.0,0.0,0.0,0.0,0.0,0.0,0.0,0.0,0.0,0.0,0.0,0.0,0.0,0.0,0.0,0.0,0.0,0.0,0.0,0.0,0.0,0.0,0.0,0.0,0.0,0.0,0.0,0.0,0.0,0.0,0.0,0.0,0.0,0.0,0.0,0.0,0.0,0.0,0.0,0.0,0.0,0.0,0.0,0.0,0.0,0.0,0.0,0.0,0.0,0.0,0.0,0.0,0.0,0.0,0.0,0.0,0.0,0.0,0.0,0.0,0.0,0.0,0.0,0.0,0.0,0.0,0.0,0.0,0.0,0.0,0.0,0.0,0.0,0.0,0.0,0.0,0.0,0.0,0.0]}]]]